[[{"header":{"parameterUnit":"m.s-1","parameterCategory":1,"la1":31.0,"la2":29.5877,"lo1":-88.7671,"lo2":-86.6584,"dx":0.0162,"dy":0.0185,"nx":115,"ny":88,"refTime":"2023-02-01T18:00:00:Z","depth":0,"parameterNumber":2,"parameterNumberName":"U-component_of_WINDS"},"data":[0.0,0.0,0.0,0.0,0.0,0.0,0.0,0.0,0.0,0.0,0.0,0.0,0.0,0.0,0.0,0.0,0.0,0.0,0.0,0.0,0.0,0.0,0.0,0.0,0.0,0.0,0.0,0.0,0.0,0.0,0.0,0.0,0.0,0.0,0.0,0.0,0.0,0.0,0.0,0.0,0.0,0.0,0.0,0.0,0.0,0.0,0.0,0.0,0.0,0.0,0.0,0.0,0.0,0.0,0.0,0.0,0.0,0.0,0.0,0.0,0.0,0.0,0.0,0.0,0.0,0.0,0.0,0.0,0.0,0.0,0.0,0.0,0.0,0.0,0.0,0.0,0.0,0.0,0.0,0.0,0.0,0.0,0.0,0.0,0.0,0.0,0.0,0.0,0.0,0.0,0.0,0.0,0.0,0.0,0.0,0.0,0.0,0.0,0.0,0.0,0.0,0.0,0.0,0.0,0.0,0.0,0.0,0.0,0.0,0.0,0.0,0.0,0.0,0.0,0.0,0.0,0.0,0.0,0.0,0.0,0.0,0.0,0.0,0.0,0.0,0.0,0.0,0.0,0.0,0.0,0.0,0.0,0.0,0.0,0.0,0.0,0.0,0.0,0.0,0.0,0.0,0.0,0.0,0.0,0.0,0.0,0.0,0.0,0.0,0.0,0.0,0.0,0.0,0.0,0.0,0.0,0.0,0.0,0.0,0.0,0.0,0.0,0.0,0.0,0.0,0.0,0.0,0.0,0.0,0.0,0.0,0.0,0.0,0.0,0.0,0.0,0.0,0.0,0.0,0.0,0.0,0.0,0.0,0.0,0.0,0.0,0.0,0.0,0.0,0.0,0.0,0.0,0.0,0.0,0.0,0.0,0.0,0.0,0.0,0.0,0.0,0.0,0.0,0.0,0.0,0.0,0.0,0.0,0.0,0.0,0.0,0.0,0.0,0.0,0.0,0.0,0.0,0.0,0.0,0.0,0.0,0.0,0.0,0.0,0.0,0.0,0.0,0.0,0.0,0.0,0.0,0.0,0.0,0.0,0.0,0.0,0.0,0.0,0.0,0.0,0.0,0.0,0.0,0.0,0.0,0.0,0.0,0.0,0.0,0.0,0.0,0.0,0.0,0.0,0.0,0.0,0.0,0.0,0.0,0.0,0.0,0.0,0.0,0.0,0.0,0.0,0.0,0.0,0.0,0.0,0.0,0.0,0.0,0.0,0.0,0.0,0.0,0.0,0.0,0.0,0.0,0.0,0.0,0.0,0.0,0.0,0.0,0.0,0.0,0.0,0.0,0.0,0.0,0.0,0.0,0.0,0.0,0.0,0.0,0.0,0.0,0.0,0.0,0.0,0.0,0.0,0.0,0.0,0.0,0.0,0.0,0.0,0.0,0.0,0.0,0.0,0.0,0.0,0.0,0.0,0.0,0.0,0.0,0.0,0.0,0.0,0.0,0.0,0.0,0.0,0.0,0.0,0.0,0.0,0.0,0.0,0.0,0.0,0.0,0.0,0.0,0.0,0.0,0.0,0.0,0.0,0.0,0.0,0.0,0.0,0.0,0.0,0.0,0.0,0.0,0.0,0.0,0.0,0.0,0.0,0.0,0.0,0.0,0.0,0.0,0.0,0.0,0.0,0.0,0.0,0.0,0.0,0.0,0.0,0.0,0.0,0.0,0.0,0.0,0.0,0.0,0.0,0.0,0.0,0.0,0.0,0.0,0.0,0.0,0.0,0.0,0.0,0.0,0.0,0.0,0.0,0.0,0.0,0.0,0.0,0.0,0.0,0.0,0.0,0.0,0.0,0.0,0.0,0.0,0.0,0.0,0.0,0.0,0.0,0.0,0.0,0.0,0.0,0.0,0.0,0.0,0.0,0.0,0.0,0.0,0.0,0.0,0.0,0.0,0.0,0.0,0.0,0.0,0.0,0.0,0.0,0.0,0.0,0.0,0.0,0.0,0.0,0.0,0.0,0.0,0.0,0.0,0.0,0.0,0.0,0.0,0.0,0.0,0.0,0.0,0.0,0.0,0.0,0.0,0.0,0.0,0.0,0.0,0.0,0.0,0.0,0.0,0.0,0.0,0.0,0.0,0.0,0.0,0.0,0.0,0.0,0.0,0.0,0.0,0.0,0.0,0.0,0.0,0.0,0.0,0.0,0.0,0.0,0.0,0.0,0.0,0.0,0.0,0.0,0.0,0.0,0.0,0.0,0.0,0.0,0.0,0.0,0.0,0.0,0.0,0.0,0.0,0.0,0.0,0.0,0.0,0.0,0.0,0.0,0.0,0.0,0.0,0.0,0.0,0.0,0.0,0.0,0.0,0.0,0.0,0.0,0.0,0.0,0.0,0.0,0.0,0.0,0.0,0.0,0.0,0.0,0.0,0.0,0.0,0.0,0.0,0.0,0.0,0.0,0.0,0.0,0.0,0.0,0.0,0.0,0.0,0.0,0.0,0.0,0.0,0.0,0.0,0.0,0.0,0.0,0.0,0.0,0.0,0.0,0.0,0.0,0.0,0.0,0.0,0.0,0.0,0.0,0.0,0.0,0.0,0.0,0.0,0.0,0.0,0.0,0.0,0.0,0.0,0.0,0.0,0.0,0.0,0.0,0.0,0.0,0.0,0.0,0.0,0.0,0.0,0.0,0.0,0.0,0.0,0.0,0.0,0.0,0.0,0.0,0.0,0.0,0.0,0.0,0.0,0.0,0.0,0.0,0.0,0.0,0.0,0.0,0.0,0.0,0.0,0.0,0.0,0.0,0.0,0.0,0.0,0.0,0.0,0.0,0.0,0.0,0.0,0.0,0.0,0.0,0.0,0.0,0.0,0.0,0.0,0.0,0.0,0.0,0.0,0.0,0.0,0.0,0.0,0.0,0.0,0.0,0.0,0.0,0.0,0.0,0.0,0.0,0.0,0.0,0.0,0.0,0.0,0.0,0.0,0.0,0.0,0.0,0.0,0.0,0.0,0.0,0.0,0.0,0.0,0.0,0.0,0.0,0.0,0.0,0.0,0.0,0.0,0.0,0.0,0.0,0.0,0.0,0.0,0.0,0.0,0.0,0.0,0.0,0.0,0.0,0.0,0.0,0.0,0.0,0.0,0.0,0.0,0.0,0.0,0.0,0.0,0.0,0.0,0.0,0.0,0.0,0.0,0.0,0.0,0.0,0.0,0.0,0.0,0.0,0.0,0.0,0.0,0.0,0.0,0.0,0.0,0.0,0.0,0.0,0.0,0.0,0.0,0.0,0.0,0.0,0.0,0.0,0.0,0.0,0.0,0.0,0.0,0.0,0.0,0.0,0.0,0.0,0.0,0.0,0.0,0.0,0.0,0.0,0.0,0.0,0.0,0.0,0.0,0.0,0.0,0.0,0.0,0.0,0.0,0.0,0.0,0.0,0.0,0.0,0.0,0.0,0.0,0.0,0.0,0.0,0.0,0.0,0.0,0.0,0.0,0.0,0.0,0.0,0.0,0.0,0.0,0.0,0.0,0.0,0.0,0.0,0.0,0.0,0.0,0.0,0.0,0.0,0.0,0.0,0.0,0.0,0.0,0.0,0.0,0.0,0.0,0.0,0.0,0.0,0.0,0.0,0.0,0.0,0.0,0.0,0.0,0.0,0.0,0.0,0.0,0.0,0.0,0.0,0.0,0.0,0.0,0.0,0.0,0.0,0.0,0.0,0.0,0.0,0.0,0.0,0.0,0.0,0.0,0.0,0.0,0.0,0.0,0.0,0.0,0.0,0.0,0.0,0.0,0.0,0.0,0.0,0.0,0.0,0.0,0.0,0.0,0.0,0.0,0.0,0.0,0.0,0.0,0.0,0.0,0.0,0.0,0.0,0.0,0.0,0.0,0.0,0.0,0.0,0.0,0.0,0.0,0.0,0.0,0.0,0.0,0.0,0.0,0.0,0.0,0.0,0.0,0.0,0.0,0.0,0.0,0.0,0.0,0.0,0.0,0.0,0.0,0.0,0.0,0.0,0.0,0.0,0.0,0.0,0.0,0.0,0.0,0.0,0.0,0.0,0.0,0.0,0.0,0.0,0.0,0.0,0.0,0.0,0.0,0.0,0.0,0.0,0.0,0.0,0.0,0.0,0.0,0.0,0.0,0.0,0.0,0.0,0.0,0.0,0.0,0.0,0.0,0.0,0.0,0.0,0.0,0.0,0.0,0.0,0.0,0.0,0.0,0.0,0.0,0.0,0.0,0.0,0.0,0.0,0.0,0.0,0.0,0.0,0.0,0.0,0.0,0.0,0.0,0.0,0.0,0.0,0.0,0.0,2.7293,0.0,0.0,0.0,0.0,0.0,0.0,0.0,0.0,0.0,0.0,0.0,0.0,0.0,0.0,0.0,0.0,0.0,0.0,0.0,0.0,0.0,0.0,0.0,0.0,0.0,0.0,0.0,0.0,0.0,0.0,0.0,0.0,0.0,0.0,0.0,0.0,0.0,0.0,0.0,0.0,0.0,0.0,0.0,0.0,0.0,0.0,0.0,0.0,0.0,0.0,0.0,0.0,0.0,0.0,0.0,0.0,0.0,0.0,0.0,0.0,0.0,0.0,0.0,0.0,0.0,0.0,0.0,0.0,0.0,0.0,0.0,0.0,0.0,0.0,0.0,0.0,0.0,0.0,0.0,0.0,0.0,0.0,0.0,0.0,0.0,0.0,0.0,0.0,0.0,0.0,0.0,0.0,0.0,0.0,0.0,0.0,0.0,0.0,0.0,0.0,0.0,0.0,0.0,0.0,0.0,0.0,0.0,0.0,0.0,0.0,2.7195,2.7083,2.7648,2.784,2.7612,0.0,0.0,0.0,0.0,0.0,0.0,0.0,0.0,0.0,0.0,0.0,0.0,0.0,0.0,0.0,0.0,0.0,0.0,0.0,0.0,0.0,0.0,0.0,0.0,0.0,0.0,0.0,0.0,0.0,0.0,0.0,0.0,0.0,0.0,0.0,0.0,0.0,0.0,0.0,0.0,0.0,0.0,0.0,0.0,0.0,0.0,0.0,0.0,0.0,0.0,0.0,0.0,0.0,0.0,0.0,0.0,0.0,0.0,0.0,0.0,0.0,0.0,0.0,0.0,0.0,0.0,0.0,0.0,0.0,0.0,0.0,0.0,0.0,0.0,0.0,0.0,0.0,0.0,0.0,0.0,0.0,0.0,0.0,0.0,0.0,0.0,0.0,0.0,0.0,0.0,0.0,0.0,0.0,0.0,0.0,0.0,0.0,0.0,0.0,0.0,0.0,0.0,0.0,0.0,0.0,0.0,0.0,0.0,0.0,0.0,0.0,0.0,2.8291,2.8503,2.8723,0.0,0.0,0.0,0.0,0.0,0.0,0.0,0.0,0.0,0.0,0.0,0.0,0.0,0.0,0.0,0.0,0.0,0.0,0.0,0.0,0.0,0.0,0.0,0.0,0.0,0.0,0.0,0.0,0.0,0.0,0.0,0.0,0.0,0.0,0.0,0.0,0.0,0.0,0.0,0.0,0.0,0.0,0.0,0.0,0.0,0.0,0.0,0.0,0.0,0.0,0.0,0.0,0.0,0.0,0.0,0.0,0.0,0.0,0.0,0.0,0.0,0.0,0.0,0.0,0.0,0.0,0.0,0.0,0.0,0.0,0.0,0.0,0.0,0.0,0.0,0.0,0.0,0.0,0.0,0.0,0.0,0.0,0.0,0.0,0.0,0.0,0.0,0.0,0.0,0.0,0.0,0.0,0.0,0.0,0.0,0.0,0.0,0.0,0.0,0.0,0.0,0.0,0.0,0.0,0.0,0.0,0.0,0.0,0.0,0.0,2.8224,2.9963,2.9384,0.0,3.0987,0.0,0.0,0.0,0.0,0.0,0.0,0.0,0.0,0.0,0.0,0.0,0.0,0.0,0.0,0.0,0.0,0.0,0.0,0.0,0.0,0.0,0.0,0.0,0.0,0.0,0.0,0.0,0.0,0.0,0.0,0.0,0.0,0.0,0.0,0.0,0.0,0.0,0.0,0.0,0.0,0.0,0.0,0.0,0.0,0.0,0.0,0.0,0.0,0.0,0.0,0.0,0.0,0.0,0.0,0.0,0.0,0.0,0.0,0.0,0.0,0.0,0.0,0.0,0.0,0.0,0.0,0.0,0.0,0.0,0.0,0.0,0.0,0.0,0.0,0.0,0.0,0.0,0.0,0.0,0.0,0.0,0.0,0.0,0.0,0.0,0.0,0.0,0.0,0.0,0.0,0.0,0.0,0.0,0.0,0.0,0.0,0.0,0.0,0.0,0.0,0.0,0.0,0.0,0.0,0.0,0.0,0.0,0.0,0.0,0.0,2.9294,3.0563,2.998,3.0396,0.0,0.0,0.0,0.0,0.0,0.0,0.0,0.0,0.0,0.0,0.0,0.0,0.0,0.0,0.0,0.0,0.0,0.0,0.0,0.0,0.0,0.0,0.0,0.0,0.0,0.0,0.0,0.0,0.0,0.0,0.0,0.0,0.0,0.0,0.0,0.0,0.0,0.0,0.0,0.0,0.0,0.0,0.0,0.0,0.0,0.0,0.0,0.0,0.0,0.0,0.0,0.0,0.0,0.0,0.0,0.0,0.0,0.0,0.0,0.0,0.0,0.0,0.0,0.0,0.0,0.0,0.0,0.0,0.0,0.0,0.0,0.0,0.0,0.0,0.0,0.0,0.0,0.0,0.0,0.0,0.0,0.0,0.0,0.0,0.0,0.0,0.0,0.0,0.0,0.0,0.0,0.0,0.0,0.0,0.0,0.0,0.0,0.0,0.0,0.0,0.0,0.0,0.0,0.0,0.0,0.0,0.0,0.0,0.0,0.0,2.96,3.0116,3.1155,3.1136,3.1631,3.2748,0.0,0.0,0.0,0.0,0.0,0.0,0.0,0.0,0.0,0.0,0.0,0.0,0.0,0.0,0.0,0.0,0.0,0.0,0.0,0.0,0.0,0.0,0.0,0.0,0.0,0.0,0.0,0.0,0.0,0.0,0.0,0.0,0.0,0.0,0.0,0.0,0.0,0.0,0.0,0.0,0.0,0.0,0.0,0.0,0.0,0.0,0.0,0.0,0.0,0.0,0.0,0.0,0.0,0.0,0.0,0.0,0.0,0.0,0.0,0.0,0.0,0.0,0.0,0.0,0.0,0.0,0.0,0.0,0.0,0.0,0.0,0.0,0.0,0.0,0.0,0.0,0.0,0.0,0.0,0.0,0.0,0.0,0.0,0.0,0.0,0.0,0.0,0.0,0.0,0.0,0.0,0.0,0.0,0.0,0.0,0.0,0.0,0.0,0.0,0.0,0.0,0.0,0.0,0.0,0.0,0.0,0.0,0.0,3.06,3.0016,3.0514,3.2283,3.329,3.3739,0.0,0.0,0.0,0.0,0.0,0.0,0.0,0.0,0.0,0.0,0.0,0.0,0.0,0.0,0.0,0.0,0.0,0.0,0.0,0.0,0.0,0.0,0.0,0.0,0.0,0.0,0.0,0.0,0.0,0.0,0.0,0.0,0.0,0.0,0.0,0.0,0.0,0.0,0.0,0.0,0.0,0.0,0.0,0.0,0.0,0.0,0.0,0.0,0.0,0.0,0.0,0.0,0.0,0.0,0.0,0.0,0.0,0.0,0.0,0.0,0.0,0.0,0.0,0.0,0.0,0.0,0.0,0.0,0.0,0.0,0.0,0.0,0.0,0.0,0.0,0.0,0.0,0.0,0.0,0.0,0.0,0.0,0.0,0.0,0.0,0.0,0.0,0.0,0.0,0.0,0.0,0.0,0.0,0.0,0.0,0.0,0.0,0.0,0.0,0.0,0.0,0.0,0.0,0.0,0.0,0.0,0.0,0.0,0.0,3.0966,3.1829,3.269,3.3506,3.3264,3.3335,0.0,0.0,0.0,0.0,0.0,0.0,0.0,0.0,0.0,0.0,0.0,0.0,0.0,0.0,0.0,0.0,0.0,0.0,0.0,0.0,0.0,0.0,0.0,0.0,0.0,0.0,0.0,0.0,0.0,0.0,0.0,0.0,0.0,0.0,0.0,0.0,0.0,0.0,0.0,0.0,0.0,0.0,0.0,0.0,0.0,0.0,0.0,0.0,0.0,0.0,0.0,0.0,0.0,0.0,0.0,0.0,0.0,0.0,0.0,0.0,0.0,0.0,0.0,0.0,0.0,0.0,0.0,0.0,0.0,0.0,0.0,0.0,0.0,0.0,0.0,0.0,0.0,0.0,0.0,0.0,0.0,0.0,0.0,0.0,0.0,0.0,0.0,0.0,0.0,0.0,0.0,0.0,0.0,0.0,0.0,0.0,0.0,0.0,0.0,0.0,0.0,0.0,0.0,0.0,0.0,0.0,0.0,0.0,0.0,3.2155,0.0,3.481,3.4609,3.403,3.3784,0.0,0.0,0.0,0.0,0.0,0.0,0.0,0.0,0.0,0.0,0.0,0.0,0.0,0.0,0.0,0.0,0.0,0.0,0.0,0.0,0.0,0.0,0.0,0.0,0.0,0.0,0.0,0.0,0.0,0.0,0.0,0.0,0.0,0.0,0.0,0.0,0.0,0.0,0.0,0.0,0.0,0.0,0.0,0.0,0.0,0.0,0.0,0.0,0.0,0.0,0.0,0.0,0.0,0.0,0.0,0.0,0.0,0.0,0.0,0.0,0.0,0.0,0.0,0.0,0.0,0.0,0.0,0.0,0.0,0.0,0.0,0.0,0.0,0.0,0.0,0.0,0.0,0.0,0.0,0.0,0.0,0.0,0.0,0.0,0.0,0.0,0.0,0.0,0.0,0.0,0.0,0.0,0.0,0.0,0.0,0.0,0.0,0.0,0.0,0.0,0.0,0.0,0.0,0.0,0.0,0.0,0.0,0.0,3.2516,3.4232,3.6133,3.6547,3.5552,3.575,3.5304,0.0,0.0,0.0,0.0,0.0,0.0,0.0,0.0,0.0,0.0,0.0,0.0,0.0,0.0,0.0,0.0,0.0,0.0,0.0,0.0,0.0,0.0,0.0,0.0,0.0,0.0,0.0,0.0,0.0,0.0,0.0,0.0,0.0,0.0,0.0,0.0,0.0,0.0,0.0,0.0,0.0,0.0,0.0,0.0,0.0,0.0,0.0,0.0,0.0,0.0,0.0,0.0,0.0,0.0,0.0,0.0,0.0,0.0,0.0,0.0,0.0,0.0,0.0,0.0,0.0,0.0,0.0,0.0,0.0,0.0,0.0,0.0,0.0,0.0,0.0,0.0,0.0,0.0,0.0,0.0,0.0,0.0,0.0,0.0,0.0,0.0,0.0,0.0,0.0,0.0,0.0,0.0,0.0,0.0,0.0,0.0,0.0,0.0,0.0,0.0,0.0,0.0,0.0,0.0,0.0,0.0,0.0,0.0,0.0,3.3773,3.5972,3.6833,3.6099,3.6019,3.5803,0.0,0.0,0.0,0.0,0.0,0.0,0.0,0.0,0.0,0.0,0.0,0.0,0.0,0.0,0.0,0.0,0.0,0.0,0.0,0.0,0.0,0.0,0.0,0.0,0.0,0.0,0.0,0.0,0.0,0.0,0.0,0.0,0.0,0.0,0.0,0.0,0.0,0.0,0.0,0.0,0.0,0.0,0.0,0.0,0.0,0.0,0.0,0.0,0.0,0.0,0.0,0.0,0.0,0.0,0.0,0.0,0.0,0.0,0.0,0.0,0.0,0.0,0.0,0.0,0.0,0.0,0.0,0.0,0.0,0.0,0.0,0.0,0.0,0.0,0.0,0.0,0.0,0.0,0.0,0.0,0.0,0.0,0.0,0.0,0.0,0.0,0.0,0.0,0.0,0.0,0.0,0.0,0.0,0.0,0.0,0.0,0.0,0.0,0.0,0.0,0.0,0.0,0.0,0.0,0.0,0.0,0.0,0.0,0.0,3.5133,3.7182,3.8022,3.73,3.6863,3.6443,3.6041,0.0,0.0,0.0,0.0,0.0,0.0,0.0,0.0,0.0,0.0,0.0,0.0,0.0,0.0,0.0,0.0,0.0,0.0,0.0,0.0,0.0,0.0,0.0,0.0,0.0,0.0,0.0,0.0,0.0,0.0,0.0,0.0,0.0,0.0,0.0,0.0,0.0,0.0,0.0,0.0,0.0,0.0,0.0,0.0,0.0,0.0,0.0,0.0,0.0,0.0,0.0,0.0,0.0,0.0,0.0,0.0,0.0,0.0,0.0,0.0,0.0,0.0,0.0,0.0,0.0,0.0,0.0,0.0,0.0,0.0,0.0,0.0,0.0,0.0,0.0,0.0,0.0,0.0,0.0,0.0,0.0,0.0,0.0,0.0,0.0,0.0,0.0,0.0,0.0,0.0,0.0,0.0,0.0,0.0,0.0,0.0,0.0,0.0,0.0,0.0,0.0,0.0,0.0,0.0,0.0,0.0,0.0,0.0,3.768,3.9395,3.9833,3.8899,3.8096,3.7222,0.0,0.0,0.0,0.0,0.0,0.0,0.0,0.0,0.0,0.0,0.0,0.0,0.0,0.0,0.0,0.0,0.0,0.0,0.0,0.0,0.0,0.0,0.0,0.0,0.0,0.0,0.0,0.0,0.0,0.0,0.0,0.0,0.0,0.0,0.0,0.0,0.0,0.0,0.0,0.0,0.0,0.0,0.0,0.0,0.0,0.0,0.0,0.0,0.0,0.0,0.0,0.0,0.0,0.0,0.0,0.0,0.0,0.0,0.0,0.0,0.0,0.0,0.0,0.0,0.0,0.0,0.0,0.0,0.0,0.0,0.0,0.0,0.0,0.0,0.0,0.0,0.0,0.0,0.0,0.0,0.0,0.0,0.0,0.0,0.0,0.0,0.0,0.0,0.0,0.0,0.0,0.0,0.0,0.0,0.0,0.0,0.0,0.0,0.0,0.0,0.0,0.0,0.0,0.0,0.0,0.0,0.0,0.0,0.0,3.878,3.9871,4.0005,3.9054,3.8165,3.763,0.0,0.0,0.0,0.0,0.0,0.0,0.0,0.0,0.0,0.0,0.0,0.0,0.0,0.0,0.0,0.0,0.0,0.0,0.0,0.0,0.0,0.0,0.0,0.0,0.0,0.0,0.0,0.0,0.0,0.0,0.0,0.0,0.0,0.0,0.0,0.0,0.0,0.0,0.0,0.0,0.0,0.0,0.0,0.0,0.0,0.0,0.0,0.0,0.0,0.0,0.0,0.0,0.0,0.0,0.0,0.0,0.0,0.0,0.0,0.0,0.0,0.0,0.0,0.0,0.0,0.0,0.0,0.0,0.0,0.0,0.0,0.0,0.0,0.0,0.0,0.0,0.0,0.0,0.0,0.0,0.0,0.0,0.0,0.0,0.0,0.0,0.0,0.0,0.0,0.0,0.0,0.0,0.0,0.0,0.0,0.0,0.0,0.0,0.0,0.0,0.0,0.0,0.0,0.0,0.0,0.0,0.0,0.0,3.8587,3.9802,4.0323,4.0351,3.987,3.8862,3.8185,0.0,0.0,0.0,0.0,0.0,0.0,0.0,0.0,0.0,0.0,0.0,0.0,0.0,0.0,0.0,0.0,0.0,0.0,0.0,0.0,0.0,0.0,0.0,0.0,0.0,0.0,0.0,0.0,0.0,0.0,0.0,0.0,0.0,0.0,0.0,0.0,0.0,0.0,0.0,0.0,0.0,0.0,0.0,0.0,0.0,0.0,0.0,0.0,0.0,0.0,0.0,0.0,0.0,0.0,0.0,0.0,0.0,0.0,0.0,0.0,0.0,0.0,0.0,0.0,0.0,0.0,0.0,0.0,0.0,0.0,0.0,0.0,0.0,0.0,0.0,0.0,0.0,0.0,0.0,0.0,0.0,0.0,0.0,0.0,0.0,0.0,0.0,0.0,0.0,0.0,0.0,0.0,0.0,0.0,0.0,0.0,0.0,0.0,0.0,0.0,0.0,0.0,0.0,0.0,0.0,0.0,0.0,0.0,3.9054,4.068,4.0718,4.0765,4.0859,3.9825,3.8806,0.0,0.0,0.0,0.0,0.0,0.0,0.0,0.0,0.0,0.0,0.0,0.0,0.0,0.0,0.0,0.0,0.0,0.0,0.0,0.0,0.0,0.0,0.0,0.0,0.0,0.0,0.0,0.0,0.0,0.0,0.0,0.0,0.0,0.0,0.0,0.0,0.0,0.0,0.0,0.0,0.0,0.0,0.0,0.0,0.0,0.0,0.0,0.0,0.0,0.0,0.0,0.0,0.0,0.0,0.0,0.0,0.0,0.0,0.0,0.0,0.0,0.0,0.0,0.0,0.0,0.0,0.0,0.0,0.0,0.0,0.0,0.0,0.0,0.0,0.0,0.0,0.0,0.0,0.0,0.0,0.0,0.0,0.0,0.0,0.0,0.0,0.0,0.0,0.0,0.0,0.0,0.0,0.0,0.0,0.0,0.0,0.0,0.0,0.0,0.0,0.0,0.0,0.0,0.0,0.0,0.0,0.0,0.0,3.9791,4.082,4.0878,4.0888,4.0888,3.989,3.8967,0.0,0.0,0.0,0.0,0.0,0.0,0.0,0.0,0.0,0.0,0.0,0.0,0.0,0.0,0.0,0.0,0.0,0.0,0.0,0.0,0.0,0.0,0.0,0.0,0.0,0.0,0.0,0.0,0.0,0.0,0.0,0.0,0.0,0.0,0.0,0.0,0.0,0.0,0.0,0.0,0.0,0.0,0.0,0.0,0.0,0.0,0.0,0.0,3.8531,0.0,0.0,0.0,0.0,0.0,0.0,0.0,0.0,0.0,0.0,0.0,0.0,0.0,0.0,0.0,0.0,0.0,0.0,0.0,0.0,0.0,0.0,0.0,0.0,0.0,0.0,0.0,0.0,0.0,0.0,0.0,0.0,0.0,0.0,0.0,0.0,0.0,0.0,0.0,0.0,0.0,0.0,0.0,0.0,0.0,0.0,0.0,0.0,0.0,0.0,0.0,0.0,0.0,0.0,0.0,0.0,0.0,0.0,0.0,4.0121,4.0953,4.0987,4.0993,4.0954,4.0466,3.9529,0.0,0.0,0.0,0.0,0.0,0.0,0.0,0.0,0.0,0.0,0.0,0.0,0.0,0.0,0.0,0.0,0.0,0.0,0.0,0.0,0.0,0.0,0.0,0.0,0.0,0.0,0.0,0.0,0.0,0.0,0.0,0.0,0.0,0.0,0.0,0.0,0.0,0.0,0.0,0.0,0.0,0.0,0.0,0.0,0.0,0.0,0.0,0.0,0.0,0.0,0.0,0.0,0.0,0.0,0.0,0.0,0.0,0.0,0.0,0.0,0.0,0.0,0.0,0.0,0.0,0.0,0.0,0.0,0.0,0.0,0.0,0.0,0.0,0.0,0.0,0.0,0.0,0.0,0.0,0.0,0.0,0.0,0.0,0.0,0.0,0.0,0.0,0.0,0.0,0.0,0.0,0.0,0.0,0.0,0.0,0.0,0.0,0.0,0.0,0.0,0.0,0.0,0.0,0.0,0.0,0.0,0.0,3.9432,4.0234,4.1068,4.1111,4.1097,4.1113,4.1106,4.0225,3.8421,0.0,0.0,0.0,0.0,0.0,0.0,0.0,0.0,0.0,0.0,0.0,0.0,0.0,0.0,0.0,0.0,0.0,0.0,0.0,0.0,0.0,0.0,0.0,0.0,0.0,0.0,0.0,0.0,0.0,0.0,0.0,0.0,0.0,0.0,0.0,0.0,0.0,0.0,3.9801,3.9685,0.0,0.0,0.0,0.0,0.0,0.0,0.0,0.0,3.9041,0.0,0.0,0.0,0.0,0.0,0.0,0.0,0.0,0.0,0.0,0.0,0.0,0.0,0.0,0.0,0.0,0.0,0.0,0.0,0.0,0.0,0.0,0.0,0.0,0.0,0.0,0.0,0.0,0.0,0.0,0.0,0.0,0.0,0.0,0.0,0.0,0.0,0.0,0.0,0.0,0.0,0.0,0.0,0.0,0.0,0.0,0.0,0.0,0.0,0.0,0.0,0.0,0.0,0.0,0.0,0.0,3.9551,3.9726,4.0215,4.1068,4.1105,4.1116,4.1113,4.1117,4.0554,3.9399,0.0,0.0,0.0,0.0,0.0,0.0,0.0,0.0,0.0,0.0,0.0,0.0,0.0,0.0,0.0,0.0,0.0,0.0,0.0,0.0,0.0,0.0,0.0,0.0,0.0,0.0,0.0,0.0,0.0,0.0,0.0,0.0,0.0,0.0,0.0,0.0,0.0,0.0,0.0,4.0505,4.0613,0.0,0.0,0.0,0.0,0.0,0.0,0.0,0.0,3.8383,0.0,0.0,0.0,0.0,0.0,0.0,0.0,0.0,0.0,0.0,0.0,0.0,0.0,0.0,0.0,0.0,0.0,0.0,0.0,0.0,0.0,0.0,0.0,0.0,0.0,0.0,0.0,0.0,0.0,0.0,0.0,0.0,0.0,0.0,0.0,0.0,0.0,0.0,0.0,0.0,0.0,0.0,0.0,0.0,0.0,0.0,0.0,0.0,0.0,0.0,0.0,0.0,0.0,0.0,0.0,3.9032,3.9938,4.0629,4.1019,4.1047,4.1247,4.1699,4.1733,4.1283,0.0,0.0,0.0,0.0,0.0,0.0,0.0,0.0,0.0,0.0,0.0,0.0,0.0,0.0,0.0,0.0,0.0,0.0,0.0,0.0,0.0,0.0,0.0,0.0,0.0,0.0,0.0,0.0,0.0,0.0,0.0,0.0,0.0,0.0,0.0,0.0,0.0,0.0,0.0,0.0,4.0607,4.064,4.0654,0.0,0.0,0.0,0.0,0.0,0.0,3.947,3.8917,0.0,0.0,0.0,0.0,0.0,0.0,0.0,0.0,0.0,0.0,0.0,0.0,0.0,0.0,0.0,0.0,0.0,0.0,0.0,0.0,0.0,0.0,0.0,0.0,0.0,0.0,0.0,0.0,0.0,0.0,0.0,0.0,0.0,0.0,0.0,0.0,0.0,0.0,0.0,0.0,0.0,0.0,0.0,0.0,0.0,0.0,0.0,0.0,0.0,0.0,0.0,0.0,0.0,0.0,0.0,3.8571,4.0454,4.1455,4.148,4.149,4.1866,4.2533,4.2555,4.2226,0.0,0.0,0.0,0.0,0.0,0.0,0.0,0.0,0.0,0.0,0.0,0.0,0.0,0.0,0.0,0.0,0.0,0.0,0.0,0.0,0.0,0.0,0.0,0.0,0.0,0.0,0.0,0.0,0.0,0.0,0.0,0.0,0.0,0.0,0.0,0.0,0.0,0.0,0.0,0.0,0.0,4.0694,4.0585,4.0564,0.0,0.0,0.0,0.0,4.0648,4.006,0.0,0.0,0.0,0.0,0.0,0.0,0.0,0.0,0.0,0.0,0.0,0.0,0.0,0.0,0.0,0.0,0.0,0.0,0.0,0.0,0.0,0.0,0.0,0.0,0.0,0.0,0.0,0.0,0.0,0.0,0.0,0.0,0.0,0.0,0.0,0.0,0.0,0.0,0.0,0.0,0.0,0.0,0.0,0.0,0.0,0.0,0.0,0.0,0.0,0.0,0.0,0.0,0.0,0.0,0.0,0.0,3.9356,4.1757,4.3043,4.3121,4.3226,4.3337,4.3446,4.3446,4.3398,0.0,0.0,0.0,0.0,0.0,0.0,0.0,0.0,0.0,0.0,0.0,0.0,0.0,0.0,0.0,0.0,0.0,0.0,0.0,0.0,0.0,0.0,0.0,0.0,0.0,0.0,0.0,0.0,0.0,0.0,0.0,0.0,0.0,0.0,0.0,0.0,0.0,0.0,0.0,0.0,0.0,4.1203,4.0511,4.0422,4.0454,0.0,0.0,4.0454,4.0511,4.0439,0.0,0.0,0.0,0.0,0.0,0.0,0.0,0.0,0.0,0.0,0.0,0.0,0.0,0.0,0.0,0.0,0.0,0.0,0.0,0.0,0.0,0.0,0.0,0.0,0.0,0.0,0.0,0.0,0.0,0.0,0.0,0.0,0.0,0.0,0.0,0.0,0.0,0.0,0.0,0.0,0.0,0.0,0.0,0.0,0.0,0.0,0.0,0.0,0.0,0.0,0.0,0.0,0.0,0.0,0.0,3.9706,3.9813,4.2015,4.3208,4.3247,4.3361,4.3676,4.4151,4.4233,4.4284,0.0,0.0,0.0,0.0,0.0,0.0,0.0,0.0,0.0,0.0,0.0,0.0,0.0,0.0,0.0,0.0,0.0,0.0,0.0,0.0,0.0,0.0,0.0,0.0,0.0,0.0,0.0,0.0,0.0,0.0,0.0,0.0,0.0,0.0,0.0,0.0,0.0,0.0,0.0,0.0,0.0,0.0,4.0157,4.012,0.0,0.0,0.0,4.0344,4.0375,0.0,0.0,0.0,0.0,0.0,0.0,0.0,0.0,0.0,0.0,0.0,0.0,0.0,0.0,0.0,0.0,0.0,0.0,0.0,0.0,0.0,0.0,0.0,0.0,0.0,0.0,0.0,0.0,0.0,0.0,0.0,0.0,0.0,0.0,0.0,0.0,0.0,0.0,0.0,0.0,0.0,0.0,0.0,0.0,0.0,0.0,0.0,0.0,0.0,0.0,0.0,0.0,0.0,0.0,0.0,0.0,0.0,4.0186,4.2565,4.378,4.3605,4.3747,4.4194,4.4892,4.4976,0.0,0.0,0.0,0.0,0.0,0.0,0.0,0.0,0.0,0.0,0.0,0.0,0.0,0.0,0.0,0.0,0.0,0.0,0.0,0.0,0.0,0.0,0.0,0.0,0.0,0.0,0.0,3.9212,0.0,0.0,0.0,0.0,0.0,0.0,0.0,0.0,0.0,0.0,0.0,0.0,0.0,0.0,4.0034,3.984,3.9781,3.9807,0.0,0.0,4.0196,4.0215,4.0253,4.0329,0.0,0.0,0.0,0.0,0.0,0.0,0.0,0.0,0.0,0.0,0.0,0.0,0.0,0.0,0.0,0.0,0.0,0.0,0.0,0.0,0.0,0.0,0.0,0.0,0.0,0.0,0.0,0.0,0.0,0.0,0.0,0.0,0.0,0.0,0.0,0.0,0.0,0.0,0.0,0.0,0.0,0.0,0.0,0.0,0.0,0.0,0.0,0.0,0.0,0.0,0.0,0.0,0.0,0.0,0.0,4.0633,4.4047,4.5513,4.4911,4.5189,4.5475,4.5703,4.5602,4.5641,0.0,0.0,0.0,0.0,0.0,0.0,0.0,0.0,0.0,0.0,0.0,0.0,0.0,0.0,0.0,0.0,0.0,0.0,0.0,0.0,0.0,0.0,0.0,0.0,0.0,0.0,0.0,0.0,0.0,0.0,0.0,0.0,0.0,0.0,0.0,0.0,0.0,0.0,0.0,0.0,0.0,4.0365,3.9623,3.9502,3.9514,0.0,0.0,3.9914,3.9935,4.0118,4.0329,4.0329,0.0,0.0,0.0,0.0,0.0,0.0,0.0,0.0,0.0,0.0,0.0,0.0,0.0,0.0,0.0,0.0,0.0,0.0,0.0,0.0,0.0,0.0,0.0,0.0,0.0,0.0,0.0,0.0,0.0,0.0,0.0,0.0,0.0,0.0,0.0,0.0,0.0,0.0,0.0,0.0,0.0,0.0,0.0,0.0,0.0,0.0,0.0,0.0,0.0,0.0,0.0,0.0,0.0,4.1009,4.1033,4.3713,4.4991,4.4732,4.5058,4.5285,4.5381,4.5503,4.5645,0.0,0.0,0.0,0.0,0.0,0.0,0.0,0.0,0.0,0.0,0.0,0.0,0.0,0.0,0.0,0.0,0.0,0.0,0.0,0.0,0.0,0.0,0.0,0.0,0.0,0.0,0.0,0.0,3.935,3.9173,3.8906,0.0,0.0,0.0,0.0,0.0,0.0,0.0,0.0,0.0,0.0,3.886,3.8548,3.8733,0.0,0.0,3.9331,3.967,3.967,3.9739,3.9785,3.9804,3.9785,0.0,0.0,0.0,0.0,0.0,0.0,0.0,0.0,0.0,0.0,0.0,0.0,0.0,0.0,0.0,0.0,0.0,0.0,0.0,0.0,0.0,0.0,0.0,0.0,0.0,0.0,0.0,0.0,0.0,0.0,0.0,0.0,0.0,0.0,0.0,0.0,0.0,0.0,0.0,0.0,0.0,0.0,0.0,0.0,0.0,0.0,0.0,0.0,0.0,0.0,0.0,0.0,4.0575,4.0936,4.3088,4.4223,4.427,4.4657,4.4896,4.4969,4.5227,4.5513,0.0,0.0,0.0,0.0,0.0,0.0,0.0,0.0,0.0,0.0,0.0,0.0,0.0,0.0,0.0,0.0,0.0,0.0,0.0,0.0,0.0,0.0,0.0,0.0,0.0,0.0,0.0,0.0,3.8818,3.8511,3.8223,0.0,0.0,0.0,0.0,0.0,0.0,0.0,0.0,0.0,0.0,3.7769,3.7787,3.8041,3.8204,3.8196,3.8765,3.9216,3.9189,3.9249,3.932,3.9327,0.0,0.0,0.0,0.0,0.0,0.0,0.0,0.0,0.0,0.0,0.0,0.0,0.0,0.0,0.0,0.0,0.0,0.0,0.0,0.0,0.0,0.0,0.0,0.0,0.0,0.0,0.0,0.0,0.0,0.0,3.6381,0.0,0.0,0.0,0.0,0.0,0.0,0.0,0.0,0.0,0.0,0.0,0.0,0.0,0.0,0.0,0.0,0.0,0.0,0.0,0.0,0.0,0.0,3.9994,4.0143,4.2372,4.359,4.3707,4.4114,4.4401,4.4607,4.4738,4.5299,4.6326,0.0,0.0,0.0,0.0,0.0,0.0,0.0,0.0,0.0,0.0,0.0,0.0,0.0,0.0,0.0,0.0,0.0,0.0,0.0,0.0,0.0,0.0,0.0,0.0,0.0,0.0,3.8135,3.7791,3.7524,0.0,0.0,0.0,0.0,0.0,0.0,0.0,0.0,0.0,0.0,3.7487,3.7487,3.7487,3.7487,3.7524,3.752,3.8113,3.8505,3.8542,3.8755,3.8924,0.0,0.0,0.0,0.0,0.0,0.0,0.0,0.0,0.0,0.0,0.0,0.0,0.0,0.0,0.0,0.0,0.0,0.0,0.0,0.0,0.0,0.0,0.0,0.0,0.0,0.0,0.0,3.661,3.6702,0.0,0.0,0.0,0.0,0.0,0.0,0.0,0.0,0.0,0.0,0.0,3.5244,3.6635,0.0,0.0,0.0,0.0,0.0,0.0,0.0,0.0,0.0,0.0,0.0,0.0,3.9217,3.9598,4.1753,4.2923,4.2959,4.359,4.4042,4.427,4.4455,4.5117,4.6342,0.0,0.0,0.0,0.0,0.0,0.0,0.0,0.0,0.0,0.0,0.0,0.0,0.0,0.0,0.0,0.0,0.0,0.0,0.0,0.0,0.0,0.0,0.0,0.0,0.0,3.7685,0.0,0.0,0.0,0.0,0.0,0.0,0.0,0.0,0.0,0.0,0.0,3.6357,3.6661,3.6719,3.6719,3.6701,3.6925,3.7102,0.0,0.0,0.0,0.0,0.0,0.0,0.0,0.0,0.0,0.0,0.0,0.0,0.0,0.0,3.9773,3.9825,3.9504,3.9284,3.9189,0.0,0.0,0.0,0.0,0.0,0.0,0.0,0.0,0.0,0.0,0.0,0.0,0.0,0.0,3.5791,0.0,3.5921,0.0,0.0,0.0,0.0,0.0,0.0,0.0,0.0,3.491,3.5125,3.4334,3.5667,3.5404,0.0,3.3776,3.3985,0.0,0.0,0.0,0.0,0.0,0.0,0.0,0.0,3.8639,3.9441,4.139,4.2451,4.2497,4.3211,4.3646,4.3841,4.4416,4.5213,4.6225,4.6244,4.6287,0.0,0.0,0.0,0.0,0.0,0.0,0.0,0.0,0.0,0.0,0.0,0.0,0.0,0.0,0.0,0.0,0.0,0.0,0.0,0.0,0.0,0.0,0.0,3.8022,0.0,0.0,0.0,0.0,0.0,0.0,0.0,0.0,0.0,3.6542,3.6241,3.6148,3.6486,3.631,3.6225,3.6497,0.0,0.0,0.0,0.0,0.0,0.0,0.0,3.7527,3.6865,3.7496,3.8088,3.8032,3.8786,3.9319,3.8952,0.0,0.0,3.9685,3.9408,3.9051,3.9049,3.8618,3.8288,3.8406,3.8504,3.8596,0.0,0.0,0.0,0.0,0.0,0.0,0.0,0.0,3.3707,3.4117,0.0,3.5202,0.0,0.0,0.0,0.0,0.0,3.1126,0.0,0.0,3.4134,3.442,3.464,3.4268,3.3691,3.2897,3.2933,3.3071,3.3285,3.4398,0.0,0.0,0.0,0.0,0.0,0.0,3.8401,3.9631,4.1283,4.2141,4.2188,4.2887,4.3267,4.3338,4.4564,4.5469,4.5949,4.5987,4.6038,4.6144,4.3828,0.0,0.0,0.0,0.0,0.0,0.0,0.0,0.0,0.0,0.0,0.0,0.0,0.0,0.0,0.0,0.0,0.0,0.0,0.0,0.0,3.8901,0.0,0.0,0.0,0.0,0.0,0.0,0.0,0.0,0.0,0.0,3.6799,3.6834,3.6851,3.6885,0.0,0.0,0.0,0.0,3.6064,3.6709,3.6582,3.6392,3.6374,3.6253,3.6028,3.5491,0.0,0.0,3.7349,3.7985,3.829,3.7452,3.7905,3.8735,4.0204,3.9393,3.8572,3.8556,3.8054,3.7469,3.7633,3.7998,3.8209,1.0925,0.0,0.0,0.0,0.0,2.4595,2.7045,3.1156,3.1855,3.2522,3.315,3.1946,0.0,0.0,0.0,0.0,0.0,0.0,2.8716,3.0623,3.0804,3.1279,3.1902,3.279,3.3069,3.2751,3.3155,3.34,3.3599,3.4322,3.4821,3.4975,0.0,0.0,0.0,0.0,3.8404,3.9242,4.0528,4.1358,4.1729,4.2248,4.2752,4.3303,4.4017,4.4705,4.5398,4.5563,4.5659,4.5621,4.453,0.0,0.0,0.0,0.0,0.0,0.0,0.0,0.0,0.0,0.0,0.0,0.0,0.0,0.0,0.0,0.0,0.0,0.0,0.0,3.8624,3.844,3.8231,0.0,0.0,0.0,0.0,0.0,0.0,0.0,0.0,0.0,3.6646,3.6389,3.6489,0.0,0.0,3.596,3.6175,3.558,3.5202,3.5393,3.5807,0.0,0.0,3.5585,3.5616,3.4958,3.5842,3.6951,3.7888,3.8241,3.8432,3.8594,3.8125,3.8261,3.9853,3.927,3.8558,3.8897,3.889,3.8949,3.9528,3.9707,3.9805,1.3372,1.7912,0.7167,1.0398,2.2591,2.2744,2.4982,2.8668,2.994,3.0354,3.004,2.9726,2.9158,2.8313,2.7908,0.0,0.0,0.0,2.7569,2.9366,2.9455,2.9768,3.0433,3.1428,3.1804,3.169,3.1962,3.2374,3.282,3.3178,3.3988,3.5123,0.0,0.0,3.6878,3.7498,3.828,3.9327,4.0534,4.1311,4.1649,4.252,4.3292,4.394,4.4395,4.4927,4.5456,4.576,4.591,4.5847,4.5182,4.4449,0.0,0.0,0.0,0.0,0.0,0.0,0.0,0.0,0.0,0.0,0.0,3.7474,0.0,0.0,0.0,0.0,3.8367,3.8709,3.8713,3.8554,0.0,0.0,0.0,0.0,0.0,0.0,0.0,3.7313,3.7295,3.6991,3.6236,3.6059,3.607,3.627,3.5801,3.5501,3.5808,0.0,3.5001,3.5481,3.5719,3.5799,3.5461,3.5603,3.5773,3.5793,3.5893,3.6549,3.7753,3.778,3.7764,3.8007,3.7563,3.7506,3.8946,3.8489,3.8293,3.9166,3.9354,3.9438,3.9686,3.9811,4.0039,1.5746,1.7926,0.7936,0.8491,1.6127,1.9885,2.3479,2.6695,2.7993,2.7748,2.6668,2.8151,2.8015,2.6586,2.6329,0.0,2.851,2.7584,2.7944,2.9476,2.9239,2.9365,2.9808,3.0164,3.0288,3.0134,3.0233,3.0718,3.151,3.1637,3.2707,3.4714,3.4991,3.5747,3.6885,3.7222,3.8241,3.9952,4.1137,4.1778,4.2037,4.343,4.4422,4.4957,4.5321,4.5626,4.5864,4.6268,4.6541,4.6475,4.5737,4.5263,4.5109,0.0,0.0,0.0,0.0,0.0,0.0,0.0,0.0,0.0,0.0,0.0,0.0,0.0,0.0,0.0,3.7363,0.0,3.8734,3.8816,0.0,0.0,0.0,3.8974,3.8974,3.8019,3.73,3.7189,0.0,0.0,3.5734,3.5844,3.5814,3.5404,3.4971,3.4898,3.5564,3.5124,3.5237,3.6117,3.5947,3.5676,3.5791,3.564,3.5712,3.6516,3.6237,3.5916,3.6927,3.6768,3.6336,3.649,3.6353,3.6587,3.7315,3.7367,3.7782,3.9044,3.9283,3.9156,3.897,3.9004,3.9423,1.6613,1.7916,1.67,1.7989,2.1184,2.3545,2.5279,2.6411,2.5611,2.6091,2.7321,2.5984,2.5821,2.6566,2.604,2.6726,2.8133,2.67,2.6582,2.7578,2.7167,2.7396,2.82,2.9352,3.0062,3.0506,3.1565,3.1926,3.1796,3.2368,3.298,3.363,3.4368,3.5706,3.7588,3.8205,3.9185,4.0572,4.1448,4.2209,4.2866,4.36,4.4182,4.4675,4.4928,4.5218,4.5588,4.5847,4.6149,4.6461,4.5895,4.548,4.5388,4.3683,0.0,0.0,0.0,0.0,0.0,0.0,0.0,0.0,0.0,3.703,3.715,0.0,3.7987,0.0,3.6656,3.6695,3.7769,3.6658,0.0,0.0,3.751,3.7172,3.6737,3.7388,3.7498,3.6337,3.6848,3.6862,3.5872,3.6277,3.6201,3.5126,3.4851,3.4866,3.5065,3.4559,3.4235,3.4561,3.4516,3.4287,3.4137,3.3622,3.3651,3.4203,3.4099,3.4159,3.4961,3.4963,3.4994,3.5392,3.5135,3.5305,3.6369,3.6219,3.6564,3.8182,3.8683,3.9013,3.9785,3.9833,3.9816,1.8258,1.9651,2.1495,2.2285,2.2473,2.4244,2.5027,2.4937,2.526,2.5333,2.507,2.4541,2.4968,2.6113,2.6333,2.6977,2.7909,2.6645,2.6314,2.6773,2.6718,2.6948,2.7466,2.9012,2.9867,3.0272,3.1371,3.1771,3.147,3.1898,3.2426,3.3227,3.3699,3.5104,3.7223,3.8044,3.907,4.0237,4.167,4.28,4.3645,4.3993,4.4446,4.5047,4.5354,4.5738,4.6104,4.643,4.6539,4.6379,4.6043,4.5809,4.5671,4.4227,4.3362,0.0,0.0,0.0,0.0,0.0,0.0,0.0,0.0,0.0,0.0,0.0,3.7483,3.6628,3.5809,3.5619,3.6399,3.5616,3.5469,3.6538,3.6538,3.6368,3.6243,3.652,3.6438,3.5861,3.6207,3.6288,3.5604,3.6119,3.6223,3.5184,3.4904,3.4747,3.4547,3.4304,3.4163,3.443,3.4307,3.4113,3.3938,3.3642,3.35,3.3688,3.3723,3.3906,3.424,3.4312,3.4428,3.4772,3.4582,3.4625,3.5627,3.5568,3.5841,3.6958,3.7237,3.782,3.9634,4.0168,4.0386,2.018,2.1872,2.3714,2.3444,2.1994,2.3701,2.3956,2.34,2.5464,2.4701,2.2116,2.3846,2.4861,2.5396,2.6496,2.7273,2.7599,2.6871,2.6458,2.6456,2.6857,2.7021,2.7103,2.8828,2.9649,2.9727,3.0688,3.1169,3.1104,3.1104,3.1757,3.3003,3.3143,3.4206,3.6179,3.7208,3.843,3.9829,4.1896,4.335,4.4142,4.4255,4.4681,4.5425,4.5933,4.6424,4.6908,4.7291,4.7163,4.6398,4.617,4.5989,4.5791,4.4925,4.4218,0.0,4.2454,0.0,0.0,0.0,0.0,0.0,0.0,0.0,0.0,3.6521,3.6019,3.5204,3.4714,3.4566,3.4912,3.4993,3.5255,3.5721,3.5721,3.5913,3.6305,3.5599,3.5217,3.563,3.5458,3.537,3.5459,3.6029,3.6199,3.5616,3.5146,3.4737,3.4244,3.42,3.4345,3.4957,3.4636,3.4137,3.4163,3.4187,3.4052,3.4027,3.3862,3.4041,3.3959,3.3988,3.3988,3.4002,3.3973,3.4146,3.4776,3.4882,3.5152,3.5927,3.5691,3.6123,3.8478,3.9533,4.0142,2.1994,2.1872,2.3704,2.3887,2.294,2.4047,2.4409,2.4165,2.373,2.312,2.2418,2.4262,2.4815,2.4537,2.5243,2.5858,2.6278,2.6111,2.5994,2.5968,2.6052,2.6135,2.624,2.8327,2.9343,2.9528,3.1417,3.2123,3.1679,3.1679,3.1858,3.2304,3.2946,3.3687,3.4733,0.0,0.0,0.0,4.212,4.2856,4.3384,4.3457,4.3861,4.4662,4.5354,0.0,4.6863,4.689,4.6981,4.7108,4.6034,0.0,0.0,0.0,0.0,0.0,0.0,0.0,0.0,0.0,0.0,0.0,3.6921,3.6786,3.6461,3.5453,3.4479,3.3687,3.3044,3.3044,3.3919,3.3506,3.3728,3.4905,3.4957,3.4876,3.4839,3.5295,3.5688,3.548,3.6153,3.6758,3.6791,3.7056,3.6852,3.6185,3.5677,3.5082,3.4461,3.3917,3.3715,3.3973,3.3606,3.3099,3.3058,3.2917,3.2775,3.2574,3.2588,3.266,3.2674,3.2674,3.266,3.266,3.2588,3.2674,3.2811,3.2763,3.3315,3.4469,3.454,3.5166,3.7291,3.7631,3.7796,2.3057,0.0,2.4059,2.4241,0.0,2.4327,2.4155,2.3647,2.3983,2.3617,2.294,2.3824,2.4196,2.4395,2.511,2.5733,2.6267,2.6267,2.6136,2.5906,2.5895,2.5895,2.599,2.7918,2.8847,2.8928,3.0904,3.1705,3.1431,3.1418,3.1835,3.2662,3.3017,3.3782,3.492,3.627,3.8116,4.0478,4.1491,4.2268,4.2829,4.2829,4.3351,4.4346,4.4936,0.0,0.0,0.0,0.0,0.0,0.0,0.0,0.0,0.0,0.0,4.194,4.0959,3.9969,3.9127,3.8551,3.7822,3.6892,3.6039,3.5649,3.5863,3.4942,3.3986,3.3255,3.2561,3.2516,3.3171,3.2903,3.3115,3.4167,3.4288,3.4356,3.4706,3.4986,3.517,3.5369,3.6123,3.6731,3.6765,3.7128,3.7012,3.6388,3.5608,3.4903,3.4477,3.4105,3.3833,3.3565,3.3085,3.2646,3.2516,3.2314,3.2169,3.2196,3.2413,3.2589,3.2616,3.2616,3.2603,3.2589,3.2386,3.2169,3.2169,3.2169,3.2409,3.3032,3.3259,3.3675,3.5117,3.6055,3.6903,2.4008,2.4744,2.4744,2.4669,2.4584,2.4573,2.3993,2.3135,0.0,0.0,0.0,2.3357,2.3827,2.4432,2.5253,2.598,2.6507,2.6496,2.6289,2.5906,2.5895,2.5979,2.6218,2.7718,2.8505,2.8743,3.0254,3.0986,3.0986,3.0986,3.169,3.2932,3.3157,3.3919,3.5454,3.6667,3.7872,3.9044,4.0365,4.1394,4.2121,4.2137,4.2649,4.3687,4.4177,4.4641,4.4992,4.5352,4.4913,4.3499,4.3242,4.2812,4.2058,4.1285,4.1147,4.1698,4.066,3.9732,3.9172,3.8334,3.7578,3.6984,3.5593,3.478,3.4993,3.4312,3.3699,3.3101,3.2503,3.2386,3.2775,3.2846,3.3129,3.3839,3.3908,3.4249,3.492,3.4668,3.466,3.5171,3.5897,3.6301,3.6344,3.678,3.6896,3.6142,3.5321,3.4677,3.4408,3.4182,3.3842,3.3179,3.2726,3.2503,3.2314,3.2241,3.2169,3.2196,3.2576,3.2888,3.2901,3.2915,3.2915,3.2806,3.2481,3.2236,3.2169,3.2169,3.2169,3.2169,3.2169,3.2386,3.3043,3.4652,3.5996,2.5473,2.5652,2.5652,2.5421,2.5115,2.5115,2.468,2.3993,2.3831,2.3135,2.2078,2.4069,2.4529,2.3978,2.5307,2.592,2.6005,2.6016,2.5961,2.5906,2.5895,2.6302,2.7021,2.7959,2.8821,2.9537,3.0508,3.0986,3.0986,3.0986,3.1468,3.2232,3.2861,3.4002,3.5424,3.6161,3.6925,3.767,3.9011,3.9993,4.068,4.068,4.0917,4.1485,4.2375,4.3065,4.3508,4.3675,4.362,4.3395,4.2607,4.2144,4.1974,4.1267,4.094,4.1026,4.0387,3.968,3.8962,3.8407,3.7695,3.6846,3.6399,3.5464,3.3699,3.2903,3.2458,3.2314,3.2341,3.2444,3.3129,3.3227,3.3521,3.4225,3.4346,3.4399,3.4534,3.4467,3.4588,3.5219,3.5907,3.6272,3.6272,3.6373,3.6228,3.559,3.4969,3.4448,3.4293,3.3839,3.3157,3.2585,3.2282,3.2241,3.2241,3.2169,3.2241,3.2169,3.2277,3.244,3.2453,3.2467,3.244,3.2345,3.2264,3.2182,3.2169,3.2169,3.2169,3.2169,3.2169,3.2241,3.2444,3.3139,3.3832,2.6588,2.6588,2.6588,2.6351,2.5863,2.502,2.4754,2.4819,2.4423,2.3744,2.294,2.3973,2.4413,2.4498,2.5031,2.5559,2.5895,2.5895,2.6135,2.661,2.6622,2.7021,2.7891,2.8676,2.9303,2.9781,3.0583,3.0986,3.0986,3.0986,3.1542,3.272,3.3851,3.4787,3.5504,3.5797,3.6196,3.6845,3.8142,3.9331,4.0365,4.0255,4.042,4.1023,4.156,4.1858,4.2038,4.2568,4.2722,4.2209,4.2083,4.1802,4.1405,4.106,4.0758,4.0451,4.017,3.9525,3.8502,3.7796,3.7351,3.7297,3.6746,3.6285,3.5863,3.4513,3.3466,3.3042,3.3156,3.357,3.4225,3.3986,3.3988,3.4577,3.4344,3.421,3.4346,3.4414,3.453,3.4849,3.5401,3.5778,3.5793,3.5807,3.572,3.5357,3.482,3.4332,3.4148,3.3796,3.3466,3.3113,3.2929,3.2731,3.2503,3.2431,3.2372,3.2241,3.244,3.2616,3.2657,3.2657,3.2671,3.263,3.2426,3.2196,3.2196,3.2169,3.2169,3.2169,3.2169,3.2241,3.2444,3.2917,3.3548,2.7891,2.7891,2.7891,2.7476,2.6753,2.5263,2.4925,2.5505,2.5285,2.4765,2.4317,2.4231,2.4509,2.4861,2.5041,2.5549,2.6135,2.6229,2.6704,2.7406,2.7487,2.7879,2.8676,2.9381,2.9793,3.0024,3.0672,3.0986,3.0999,3.1117,3.2031,3.3621,3.5146,3.5938,3.5938,3.5938,3.622,3.6813,3.7872,3.8974,3.9999,4.005,4.0279,4.0802,4.105,4.1074,4.0976,4.1787,4.1895,4.1283,4.175,4.1711,4.1064,4.1111,4.0914,4.0356,4.0132,3.9599,3.845,3.7649,3.7483,3.7996,3.7418,3.7288,3.7749,3.6514,3.5171,3.4367,3.4181,3.4438,3.482,3.4453,3.4271,3.4609,3.4278,3.4074,3.4346,3.4414,3.4414,3.4472,3.4965,3.5398,3.5227,3.5401,3.5546,3.5343,3.482,3.4317,3.4177,3.42,3.4139,3.4073,3.3734,3.3157,3.2761,3.269,3.2629,3.2391,3.2738,3.3037,3.3173,3.3254,3.3254,3.32,3.2913,3.2709,3.2622,3.2616,3.2657,3.2698,3.2725,3.2717,3.2951,3.3517,3.386,3.0024,3.0024,2.996,2.9213,2.7867,2.6362,2.5812,2.5884,2.5812,2.5812,2.5633,2.5728,2.538,2.5031,2.5559,2.629,2.7021,2.7103,2.7487,2.8187,2.8267,2.8743,2.9574,2.9729,3.0101,3.0862,3.1039,3.1091,3.1166,3.1612,3.2823,3.4857,3.645,3.7195,3.7195,3.721,3.7466,3.7969,3.8554,3.8919,3.9065,3.9909,4.0399,4.0464,4.0668,4.0827,4.0785,4.1172,4.1293,4.1282,4.1778,4.187,4.1333,4.1749,4.1749,4.1077,4.0598,4.0031,3.9235,3.8983,3.8855,3.8965,3.89,3.8577,3.8177,3.7706,3.6975,3.5998,3.4867,3.4511,3.474,3.4284,3.4137,3.4524,3.4433,3.4346,3.4457,3.4414,3.4414,3.4414,3.5009,3.5154,3.4849,3.5503,3.5923,3.5503,3.5024,3.4743,3.5093,3.5165,3.5251,3.5137,3.4355,3.3367,3.2943,3.2704,3.2904,3.305,3.3098,3.3295,3.3607,3.3783,3.3774,3.3634,3.3737,3.3592,3.3636,3.3783,3.3653,3.3525,3.3566,3.3702,3.3832,3.4189,3.4346,3.1382,3.1344,3.0945,3.0058,2.887,2.8255,2.7508,2.6715,2.7174,2.6846,2.6179,2.733,2.7047,2.5559,2.629,2.6869,2.7267,2.7649,2.8359,2.9184,2.9559,3.0127,3.0945,3.1357,3.1682,3.199,3.2018,3.2005,3.2196,3.3136,3.4189,3.5142,3.6611,3.7404,3.7404,3.7297,3.7336,3.7541,3.858,3.9106,3.9167,3.9815,4.0151,4.0135,4.0103,4.0027,4.0087,4.0491,4.0727,4.0785,4.1286,4.1494,4.1213,4.1438,4.1342,4.0727,4.0103,3.9628,3.933,3.9171,3.9294,3.9734,3.9716,3.9807,4.01,3.9647,3.9016,3.8236,3.6603,3.554,3.5568,3.5134,3.4828,3.4922,3.4661,3.4559,3.4951,3.498,3.4965,3.4994,3.5198,3.5299,3.5169,3.5749,3.6156,3.5952,3.5648,3.5613,3.5908,3.5926,3.5971,3.5994,3.5452,3.4753,3.3987,3.3795,3.3696,3.3649,3.3593,3.3742,3.3892,3.3869,3.3869,3.3973,3.4011,3.3991,3.3824,3.3934,3.3938,3.3985,3.4189,3.4251,3.4251,3.4752,3.5048,3.2424,3.245,3.1616,3.0584,2.9561,2.9371,2.8602,2.7672,2.8187,2.7718,2.682,2.8527,2.8386,2.7107,2.7474,2.7871,2.8196,2.8747,2.9534,3.0494,3.1004,3.1511,3.2032,3.2476,3.2686,3.2673,3.266,3.2922,3.3392,3.4665,3.5582,3.6108,3.7311,3.7888,3.7874,3.7693,3.7623,3.7597,3.8647,3.9275,3.9474,3.9953,4.0293,4.0419,4.0214,4.0072,4.0072,4.0511,4.0759,4.0743,4.1298,4.1517,4.1341,4.1458,4.1314,4.0743,4.0261,3.996,3.996,3.9847,4.0002,4.0572,4.0535,4.0805,4.1346,4.0972,4.0385,3.9718,3.8142,3.699,3.6519,3.6011,3.5648,3.559,3.5183,3.5154,3.5561,3.5633,3.5619,3.5619,3.5662,3.5706,3.588,3.617,3.633,3.6533,3.6402,3.6414,3.6556,3.657,3.6562,3.6668,3.6661,3.6111,3.5102,3.4831,3.4657,3.4484,3.4344,3.4412,3.4367,3.4448,3.4448,3.4774,3.4516,3.4397,3.4651,3.4513,3.4353,3.4454,3.4576,3.4808,3.4895,3.5446,3.5822,3.3355,3.3503,3.1954,3.0803,2.9935,2.9064,2.8486,2.8407,2.8462,2.8359,2.8342,2.9169,2.9256,2.9138,2.9256,2.9626,3.0361,3.044,3.1169,3.2319,3.2541,3.258,3.2646,3.2672,3.2725,3.2882,3.2829,3.3423,3.4614,3.5586,3.676,3.7968,3.8766,3.9116,3.8911,3.8882,3.8767,3.8458,3.8999,3.9489,3.9899,4.0454,4.095,4.1317,4.1446,4.1399,4.143,4.1543,4.1512,4.1528,4.2093,4.2172,4.1692,4.2109,4.214,4.1611,4.1446,4.1446,4.1415,4.1415,4.1494,4.1541,4.1491,4.1573,4.1667,4.1153,4.0551,3.9885,3.9146,3.8362,3.7405,3.6648,3.627,3.627,3.6199,3.617,3.6257,3.6272,3.6257,3.6272,3.6272,3.646,3.7027,3.6664,3.6765,3.6983,3.6751,3.6561,3.7097,3.7215,3.733,3.7425,3.739,3.711,3.6082,3.5744,3.563,3.5447,3.5324,3.5393,3.5503,3.5642,3.5574,3.5533,3.5398,3.5398,3.5574,3.5534,3.5494,3.5411,3.5357,3.545,3.5511,3.5998,3.6337,3.3788,3.3257,3.374,3.2738,3.0927,3.1151,3.0795,2.9861,3.0322,3.0194,2.9931,3.1279,3.1493,3.0654,3.1625,3.1668,3.1165,3.1647,3.2265,3.2738,3.3091,3.326,3.33,3.3613,3.3796,3.3783,3.3783,3.4283,3.5183,3.5991,3.6866,3.7738,3.8634,3.8943,3.887,3.8797,3.8664,3.859,3.8943,3.9292,3.9436,4.0285,4.0919,4.1055,4.1456,4.1588,4.1588,4.1588,4.1588,4.1588,4.1835,4.1835,4.1654,4.1851,4.1835,4.1654,4.1588,4.1588,4.1636,4.2031,4.2299,4.2299,4.2284,4.2252,4.2205,4.1673,4.0914,4.0071,3.9749,3.9219,3.8468,3.7529,3.688,3.681,3.6543,3.6519,3.6838,3.6954,3.6954,3.6954,3.6939,3.707,3.7273,3.7418,3.7607,3.7796,3.7665,3.7652,3.7813,3.7899,3.7912,3.7968,3.7994,3.7771,3.7139,3.6741,3.6521,3.6261,3.6008,3.5823,3.5843,3.571,3.5628,3.5615,3.5696,3.571,3.5683,3.5683,3.571,3.571,3.571,3.5804,3.6045,3.6298,3.6693,3.3981,3.2997,3.4177,3.35,3.1672,3.2501,3.2306,3.1404,3.1876,3.1675,3.1436,3.2813,3.3014,3.2431,3.3329,3.3381,3.2465,3.281,3.3064,3.3273,3.3666,3.3849,3.3914,3.4228,3.4397,3.4397,3.4397,3.5046,3.6163,3.6466,3.7078,3.8098,3.856,3.8797,3.8649,3.859,3.8441,3.8516,3.8664,3.887,3.9177,4.0005,4.0662,4.0867,4.1323,4.1588,4.1588,4.1588,4.1588,4.1588,4.1588,4.1699,4.1904,4.1936,4.1952,4.1936,4.1936,4.1952,4.1983,4.2426,4.2679,4.2695,4.2679,4.2631,4.2347,4.1873,4.1205,4.06,4.0462,4.027,3.9768,3.8767,3.7993,3.7783,3.7285,3.7099,3.7535,3.7578,3.7593,3.7593,3.7593,3.7607,3.7651,3.797,3.813,3.8202,3.8202,3.8202,3.8202,3.8202,3.8202,3.8202,3.8052,3.7839,3.7339,3.6835,3.6522,3.6272,3.6115,3.5987,3.5748,3.5695,3.5615,3.5669,3.5696,3.571,3.571,3.571,3.571,3.571,3.571,3.5804,3.6125,3.6443,3.6679,3.3958,3.2764,3.3114,3.2999,3.198,3.2515,3.2712,3.2632,3.2698,3.2684,3.2745,3.3404,3.3652,3.361,3.4084,3.4332,3.4079,3.377,3.3809,3.4214,3.4306,3.4332,3.4332,3.4441,3.4634,3.4634,3.4481,3.5749,3.772,3.7169,3.7462,3.8708,3.8797,3.8649,3.8516,3.8441,3.8366,3.8277,3.8277,3.8516,3.909,3.9636,4.02,4.0715,4.1256,4.1522,4.1588,4.1636,4.1699,4.1683,4.1715,4.1983,4.2521,4.26,4.2631,4.2505,4.2584,4.2616,4.2584,4.2631,4.2695,4.2695,4.2695,4.2442,4.1968,4.1699,4.1522,4.1307,4.1307,4.1374,4.1174,4.027,3.944,3.9118,3.8414,3.8014,3.819,3.8248,3.8188,3.8144,3.8101,3.8173,3.8188,3.8173,3.8202,3.8202,3.8202,3.8202,3.8202,3.8202,3.8202,3.8113,3.7785,3.7443,3.7101,3.6759,3.6473,3.6166,3.6018,3.5847,3.5407,3.5221,3.5167,3.5194,3.5398,3.5425,3.571,3.571,3.571,3.571,3.571,3.5777,3.6125,3.6377,3.6457,3.5415,3.3429,3.5233,3.4658,3.266,3.3051,3.3313,3.3313,3.3313,3.3522,3.3862,3.4071,3.4149,3.4175,3.4332,3.4397,3.4384,3.4214,3.4241,3.4371,3.4397,3.4397,3.4481,3.5032,3.5575,3.5963,3.5588,3.6149,3.7491,3.7491,3.772,3.8352,3.8427,3.8352,3.8292,3.8292,3.8277,3.8202,3.8202,3.8277,3.8501,3.909,3.9651,4.0185,4.0768,4.1189,4.1604,4.2078,4.2331,4.2347,4.2805,4.2963,4.2758,4.2695,4.2457,4.1999,4.1936,4.1936,4.2015,4.241,4.2695,4.2695,4.2695,4.26,4.2315,4.1857,4.1488,4.1122,4.0684,4.0531,4.0783,4.0005,3.9508,3.9621,3.8767,3.8427,3.8723,3.8797,3.8649,3.8277,3.8202,3.8202,3.8217,3.8217,3.8304,3.826,3.826,3.8289,3.826,3.8333,3.8202,3.8202,3.7552,3.7196,3.7011,3.6612,3.6032,3.5751,3.5567,3.5407,3.4998,3.476,3.4706,3.476,3.4963,3.5181,3.5479,3.5574,3.5479,3.5574,3.5547,3.5762,3.6097,3.6243,3.6225,3.6852,3.5159,3.6325,3.5845,3.4179,3.4249,3.4228,3.4188,3.3979,3.4097,3.4358,3.4397,3.4397,3.4397,3.4397,3.4551,3.4868,3.4868,3.5019,3.5264,3.495,3.4716,3.4551,3.5264,3.6373,3.7063,3.6517,3.6922,3.8188,3.7886,3.7872,3.8337,3.8277,3.8202,3.8202,3.8202,3.8202,3.8202,3.8202,3.8202,3.8352,3.8797,3.9379,3.9905,4.0493,4.0946,4.127,4.2378,4.2947,4.2805,4.3121,4.309,4.2726,4.2679,4.2473,4.2141,4.2015,4.2031,4.2047,4.2457,4.2695,4.2695,4.2695,4.2537,4.2284,4.1794,4.1406,4.1122,4.082,4.0684,4.0919,4.0301,3.9864,3.9834,3.932,3.8929,3.909,3.909,3.8797,3.8396,3.8434,3.8434,3.8289,3.8739,3.8739,3.8667,3.8768,3.8913,3.8899,3.8961,3.8873,3.8609,3.8243,3.7734,3.721,3.6445,3.5572,3.5245,3.5022,3.4744,3.4312,3.4258,3.4217,3.4272,3.4421,3.4489,3.4746,3.4828,3.4814,3.5031,3.5276,3.5042,3.5104,3.5774,3.5944,3.8077,3.7734,3.6735,3.6576,3.6429,3.5805,3.5344,3.5234,3.4923,3.4673,3.4494,3.4564,3.4564,3.4564,3.4634,3.5019,3.5669,3.5736,3.6042,3.6425,3.6201,3.5669,3.5277,3.5655,3.6766,3.7947,3.7372,3.7843,3.9031,3.8263,3.8023,3.8634,3.8427,3.8202,3.8277,3.8202,3.8202,3.8202,3.8202,3.8202,3.8202,3.8797,3.932,3.9813,4.0447,4.0743,4.0812,4.2173,4.3121,4.2868,4.2884,4.2774,4.2695,4.2695,4.2663,4.2473,4.2584,4.2426,4.2505,4.2426,4.2457,4.2363,4.241,4.2347,4.1778,4.1652,4.1588,4.1522,4.139,4.1488,4.1484,4.1018,4.0509,4.0115,3.9854,3.9556,3.9179,3.9135,3.89,3.8468,3.8696,3.8957,3.8391,3.9247,3.9421,3.9349,3.9465,3.9596,3.9479,3.9339,3.9809,3.931,3.8344,3.7663,3.6844,3.6094,3.5237,3.4871,3.4689,3.4571,3.4159,3.3987,3.4109,3.4122,3.4068,3.4068,3.4299,3.4665,3.4733,3.4882,3.4719,3.4072,3.4349,3.5205,3.5595,4.0162,3.864,3.9257,3.8624,3.7209,3.7146,3.6552,3.5832,3.6632,3.5845,3.4878,3.5114,3.5345,3.5345,3.5345,3.5816,3.6439,3.6582,3.666,3.6972,3.7386,3.7414,3.7092,3.6752,3.7448,3.8723,3.8263,3.8323,3.9104,3.8797,3.8723,3.8782,3.8723,3.8575,3.8441,3.8441,3.8352,3.8202,3.8202,3.8202,3.8277,3.8723,3.9125,3.9198,4.0178,4.0411,3.9961,4.083,4.2442,4.399,4.3169,4.2695,4.2647,4.2631,4.2426,4.2015,4.1904,4.1667,4.1383,4.162,4.1652,4.1272,4.1573,4.1794,4.1636,4.1588,4.1588,4.1522,4.1339,4.1408,4.194,4.1419,4.0966,4.1018,4.0512,3.9772,3.9431,3.9504,3.9387,3.8483,3.8405,3.867,3.887,3.9247,3.9465,3.932,3.9407,3.945,3.9334,3.9117,3.9353,3.85,3.7624,3.7016,3.6346,3.5576,3.4913,3.4453,3.4453,3.4749,3.4372,3.4126,3.4322,3.4411,3.4326,3.4285,3.4882,3.5398,3.5235,3.4733,3.4855,3.4573,3.4519,3.4961,3.5094,4.125,4.0246,4.0212,3.9518,3.848,3.8046,3.732,3.6803,3.7135,3.6785,3.5763,3.5976,3.6188,3.6201,3.6201,3.6674,3.7372,3.7462,3.7691,3.8055,3.8486,3.8649,3.8501,3.7901,3.8142,3.9192,3.8973,3.8958,3.9192,3.9192,3.9017,3.8929,3.8855,3.8723,3.8516,3.8516,3.8441,3.8277,3.8202,3.8202,3.8277,3.8501,3.8984,3.9239,4.0102,4.038,4.0732,4.0451,4.132,4.3026,4.2837,4.2236,4.222,4.222,4.2015,4.1604,4.1588,4.132,4.0814,4.0972,4.0814,4.0372,4.0546,4.0656,4.0751,4.0956,4.1178,4.1096,4.1084,4.1527,4.183,4.1357,4.1174,4.1392,4.0893,4.0129,3.955,3.9785,3.9358,3.8722,3.866,3.8792,3.8932,3.9421,3.9581,3.9509,3.9828,3.9639,3.9349,3.903,3.8735,3.8265,3.7915,3.7648,3.7258,3.6578,3.5917,3.5319,3.4835,3.5063,3.4617,3.429,3.4308,3.4397,3.4475,3.4611,3.5072,3.5248,3.4746,3.4465,3.4936,3.5072,3.4869,3.4828,3.4882,4.1755,4.2038,4.0203,3.9792,3.9872,3.8696,3.8003,3.7783,3.7678,3.7254,3.683,3.6972,3.7049,3.7049,3.7049,3.7539,3.8352,3.8337,3.8723,3.9031,3.928,3.928,3.9192,3.8663,3.8737,3.928,3.9424,3.9352,3.9352,3.9192,3.9192,3.9104,3.8943,3.8797,3.8664,3.859,3.8441,3.8352,3.8277,3.8352,3.8501,3.862,3.9071,3.964,3.9749,4.0752,4.1327,4.083,4.0546,4.2505,4.1873,4.1588,4.1557,4.162,4.1604,4.1604,4.1557,4.1272,4.0688,4.0609,4.0403,3.985,3.9787,3.9724,4.0151,4.064,4.0941,4.0956,4.1272,4.1507,4.1617,4.12,4.1299,4.1526,4.1168,4.0639,4.0173,4.0021,3.9553,3.8575,3.9298,3.9268,3.9171,3.9644,4.0502,3.9363,3.9639,3.9509,3.9233,3.8971,3.8938,3.8914,3.8731,3.8652,3.8184,3.7699,3.7084,3.6493,3.5861,3.5568,3.4906,3.4516,3.4339,3.4316,3.4814,3.4841,3.4719,3.4597,3.4329,3.4465,3.5086,3.4936,3.4706,3.4801,3.4855,4.2099,4.1715,4.097,4.0377,4.0064,3.9892,3.9159,3.8207,3.9161,3.846,3.7366,3.763,3.7872,3.7947,3.7947,3.8337,3.9031,3.9031,3.9265,3.9352,3.9424,3.9424,3.9352,3.9164,3.9222,3.9424,3.9424,3.9424,3.9352,3.9352,3.9352,3.9352,3.9265,3.9192,3.8958,3.8885,3.8885,3.8649,3.8516,3.8649,3.9002,3.9262,3.9481,3.9748,3.9738,4.0363,4.1223,4.0324,4.0309,4.1241,4.1367,4.132,4.1525,4.1636,4.1667,4.1699,4.1652,4.113,4.0261,4.0767,4.083,3.9898,4.0467,4.1146,4.1146,4.1241,4.1383,4.1383,4.1509,4.1731,4.1794,4.2106,4.2066,4.1821,4.1355,4.0901,4.0662,4.0674,4.0088,3.9399,3.9412,3.9664,3.9098,3.9498,3.9865,3.9324,3.9247,3.9247,3.9059,3.8826,3.8808,3.8799,3.8558,3.8227,3.779,3.7346,3.6948,3.6587,3.6204,3.5951,3.5287,3.5045,3.4936,3.5099,3.5411,3.5262,3.4963,3.514,3.5181,3.5235,3.5208,3.5181,3.5126,3.5045,3.5072,4.1432,4.1039,4.067,4.033,4.0016,3.9929,3.9504,3.8988,3.9534,3.9269,3.8366,3.856,3.8738,3.8723,3.8738,3.9046,3.9265,3.9424,3.9424,3.9424,3.9424,3.9424,3.9424,3.9424,3.9424,3.9424,3.9424,3.9424,3.9424,3.9439,3.9424,3.9424,3.9424,3.925,3.9104,3.909,3.8958,3.8797,3.8723,3.8797,3.9162,3.9205,3.9531,3.9917,4.02,4.0893,4.1415,4.1336,4.143,4.1889,4.2047,4.1825,4.1699,4.1904,4.2078,4.2141,4.2457,4.211,4.1573,4.1573,4.1652,4.0577,4.1225,4.1446,4.1715,4.1873,4.211,4.2173,4.2378,4.26,4.26,4.2821,4.2853,4.2726,4.2297,4.2022,4.1713,4.1247,4.0375,3.9511,3.9508,3.9369,3.9269,3.9652,3.9323,3.9004,3.9233,3.9204,3.8667,3.8449,3.833,3.825,3.8016,3.7607,3.7233,3.68,3.6325,3.6111,3.5951,3.5804,3.552,3.5533,3.5628,3.5683,3.5642,3.5669,3.5479,3.571,3.571,3.5588,3.552,3.5601,3.5628,3.552,3.5655,4.0524,4.047,4.0137,4.0066,3.9996,3.9655,3.9439,3.9424,3.9409,3.9397,3.9352,3.9424,3.9265,3.9352,3.9352,3.9352,3.9424,3.9424,3.9424,3.9424,3.9424,3.9424,3.9424,3.9424,3.9424,3.9424,3.9424,3.9454,3.9574,3.9484,3.9529,3.9544,3.9439,3.9352,3.9177,3.9104,3.9104,3.8958,3.887,3.9133,3.9277,3.9147,3.9493,4.0562,4.1435,4.1936,4.222,4.2426,4.2789,4.2884,4.3421,4.3011,4.2457,4.2426,4.2837,4.2853,4.3295,4.3058,4.2537,4.2616,4.2505,4.1841,4.1936,4.1968,4.2141,4.2505,4.2774,4.2979,4.3184,4.35,4.369,4.3595,4.3611,4.3579,4.3658,4.3443,4.2927,4.1914,4.1039,4.0118,4.0557,4.0781,3.9936,3.9814,3.9188,3.8801,3.9059,3.9175,3.8681,3.8481,3.8536,3.8572,3.8494,3.8088,3.7564,3.7334,3.6768,3.6307,3.6049,3.5954,3.59,3.575,3.575,3.5723,3.571,3.571,3.571,3.571,3.571,3.571,3.571,3.571,3.5885,3.6035,3.6144,4.0524,4.0455,4.0347,4.0277,4.0191,3.9839,3.9625,3.9625,3.9481,3.9424,3.9424,3.9424,3.9424,3.9424,3.9424,3.9424,3.9424,3.9424,3.9424,3.9424,3.9424,3.9424,3.9424,3.9424,3.9424,3.9424,3.9439,3.9649,3.9873,3.9753,3.9649,3.9963,3.9664,3.9352,3.9352,3.9352,3.9265,3.9222,3.9164,3.9541,4.0081,4.0258,4.0699,4.1897,4.2732,4.3121,4.3263,4.3421,4.3548,4.3564,4.3674,4.3611,4.3469,4.3532,4.3595,4.3595,4.3785,4.3706,4.3216,4.3342,4.3153,4.2821,4.3042,4.3342,4.3406,4.3485,4.3674,4.3674,4.3722,4.3801,4.3722,4.3927,4.3785,4.3769,4.3864,4.381,4.356,4.3286,4.2685,4.1721,4.2155,4.2231,4.0979,4.0214,4.0064,3.9748,3.9707,3.9867,3.9726,3.9507,3.9492,3.9387,3.9305,3.8752,3.8226,3.802,3.769,3.718,3.6865,3.651,3.6347,3.594,3.5818,3.6062,3.5913,3.571,3.571,3.5723,3.571,3.571,3.5817,3.5845,3.5966,3.6101,3.6248,4.0524,4.047,4.0331,4.0292,4.0207,3.9824,3.9681,3.9696,3.9496,3.9424,3.9424,3.9424,3.9424,3.9424,3.9424,3.9424,3.9424,3.9424,3.9424,3.9424,3.9424,3.9424,3.9424,3.9424,3.9424,3.9424,3.9454,3.9574,3.9843,3.9589,3.9634,3.9709,3.9529,3.9424,3.9424,3.9424,3.9439,3.9412,3.9651,4.0106,4.0852,4.1223,4.2318,4.2962,4.3622,4.3881,4.3785,4.4132,4.4227,4.4306,4.4622,4.4764,4.478,4.4717,4.4606,4.4369,4.4543,4.467,4.4354,4.4654,4.4638,4.4448,4.4622,4.478,4.4796,4.4812,4.4717,4.4764,4.4796,4.4796,4.4843,4.4749,4.4796,4.4796,4.4764,4.4575,4.4448,4.4591,4.3977,4.3131,4.2567,4.2056,4.128,4.084,4.0961,4.0761,4.0432,4.049,4.0549,4.0446,4.0251,4.006,3.9931,3.9477,3.8989,3.8769,3.8463,3.8002,3.7602,3.7259,3.6985,3.6659,3.6646,3.6836,3.6497,3.5981,3.575,3.5778,3.575,3.5764,3.5832,3.5967,3.6033,3.6152,3.6449,4.0524,4.0455,4.0401,4.0347,4.0261,3.998,3.9839,3.9768,3.9625,3.9568,3.9496,3.9496,3.9481,3.9409,3.9424,3.9424,3.9424,3.9424,3.9424,3.9424,3.9424,3.9424,3.9424,3.9424,3.9424,3.9424,3.9424,3.9484,3.9723,3.9514,3.9484,3.9649,3.9589,3.9424,3.9424,3.9619,3.9559,3.9813,4.0437,4.0842,4.1504,4.2809,4.3747,4.3949,4.4489,4.4749,4.4687,4.4881,4.5033,4.5207,4.5453,4.5744,4.5792,4.5807,4.5539,4.5159,4.5507,4.5744,4.5744,4.5681,4.5555,4.546,4.5713,4.5776,4.5728,4.5586,4.5697,4.5807,4.5744,4.5665,4.5586,4.5744,4.5728,4.5713,4.5608,4.5599,4.5075,4.4834,4.4623,4.3745,4.2863,4.2349,4.2043,4.167,4.1789,4.1489,4.123,4.12,4.123,4.1033,4.0851,4.0699,4.0487,4.0163,3.981,3.9564,3.9116,3.8632,3.8273,3.7986,3.7708,3.7487,3.7487,3.7351,3.6958,3.6469,3.6157,3.6076,3.6361,3.6442,3.6198,3.6266,3.6729,3.6933,3.707,4.0524,4.0524,4.0455,4.0455,4.0455,4.0261,4.0207,4.0191,3.9996,3.994,3.9854,3.9696,3.9625,3.961,3.9481,3.9424,3.9424,3.9424,3.9424,3.9424,3.9424,3.9424,3.9424,3.9424,3.9499,3.9544,3.9514,3.9783,4.0038,3.9768,3.9798,4.0083,3.9858,3.9484,3.9738,4.0083,4.0277,4.0529,4.1526,4.2729,4.3796,4.5088,4.5514,4.574,4.6011,4.6318,4.6083,4.6051,4.592,4.5984,4.5841,4.5807,4.5807,4.5807,4.5807,4.5728,4.5776,4.5807,4.5807,4.5807,4.5807,4.5807,4.5807,4.5807,4.5807,4.5823,4.5823,4.5807,4.5855,4.5997,4.606,4.5934,4.5871,4.5965,4.6123,4.5719,4.5238,4.5461,4.5171,4.4525,4.3603,4.3527,4.3386,4.2976,4.2562,4.2254,4.1995,4.1907,4.182,4.1564,4.1334,4.1097,4.0982,4.0721,4.0264,4.0097,3.9702,3.9125,3.8833,3.8646,3.8419,3.8125,3.7813,3.7609,3.7324,3.7311,3.7311,3.7297,3.7311,3.7121,3.6863,3.7262,3.7799,3.7827,3.7621,4.0524,4.0524,4.0524,4.0524,4.047,4.0331,4.0292,4.0277,4.0081,4.0026,3.997,3.9798,3.9625,3.9553,3.9424,3.9424,3.9424,3.9424,3.9424,3.9439,3.9439,3.9439,3.9424,3.9454,3.9544,4.0006,4.0038,4.0397,4.0546,4.0412,4.0307,4.0786,4.0681,4.0606,4.0412,4.0771,4.092,4.134,4.2343,4.3928,4.5362,4.6248,4.6645,4.6678,4.6987,4.705,4.6876,4.6512,4.6301,4.623,4.5992,4.5807,4.5807,4.5807,4.5807,4.5807,4.5807,4.5807,4.5807,4.5823,4.5855,4.5823,4.5823,4.5807,4.5807,4.5855,4.6029,4.636,4.6376,4.6518,4.685,4.6992,4.6992,4.6961,4.6771,4.6654,4.6322,4.602,4.585,4.5145,4.4509,4.4439,4.4148,4.3397,4.302,4.3012,4.2643,4.2325,4.2237,4.2106,4.1796,4.1453,4.1339,4.1239,4.0661,4.0306,3.9965,3.9513,3.9264,3.9046,3.8959,3.8708,3.841,3.8423,3.8491,3.8491,3.839,3.8047,3.7604,3.756,3.7528,3.7833,3.8112,3.8131,3.8048,4.0524,4.0524,4.0524,4.0524,4.0455,4.0401,4.0331,4.0347,4.0207,4.0152,4.0112,3.9925,3.9768,3.9568,3.9568,3.9568,3.9496,3.9481,3.9424,3.9439,3.9589,3.9694,3.9886,3.9989,4.0553,4.0902,4.1382,4.1632,4.1714,4.1505,4.1414,4.146,4.1549,4.1475,4.146,4.161,4.1912,4.286,4.3878,4.5326,4.6702,4.702,4.7288,4.7455,4.7488,4.7437,4.715,4.6791,4.6636,4.6582,4.6333,4.6207,4.6136,4.6064,4.5992,4.5936,4.5936,4.595,4.606,4.6139,4.606,4.606,4.6092,4.625,4.6424,4.625,4.6345,4.7008,4.7071,4.7387,4.7719,4.783,4.7719,4.7672,4.7719,4.7754,4.7633,4.7014,4.6374,4.5761,4.5182,4.499,4.4557,4.3632,4.3396,4.3656,4.339,4.2855,4.2714,4.267,4.2339,4.2093,4.161,4.1397,4.0929,4.0471,4.0198,3.9917,3.968,3.9435,3.9264,3.921,3.902,3.9183,3.9386,3.9183,3.8884,3.8357,3.7931,3.8189,3.8328,3.8165,3.8184,3.8235,3.8351,4.0524,4.0524,4.0524,4.0524,4.0524,4.0455,4.0524,4.047,4.0455,4.047,4.0347,4.0277,4.0081,3.9985,3.999,3.9904,3.9787,3.9696,3.979,3.9929,3.9993,4.0482,4.0852,4.1488,4.2073,4.2299,4.2489,4.2875,4.3337,4.3192,4.2469,4.1701,4.2347,4.1985,4.2002,4.247,4.3589,4.4695,4.5769,4.6548,4.7522,4.7787,4.7853,4.7853,4.7935,4.7935,4.7869,4.7421,4.7186,4.7134,4.6807,4.6684,4.6615,4.6388,4.6317,4.6246,4.6295,4.6373,4.6659,4.6639,4.6708,4.6724,4.6787,4.6961,4.7293,4.6977,4.715,4.7672,4.7782,4.7893,4.7988,4.794,4.8241,4.8304,4.843,4.8229,4.8043,4.7497,4.6932,4.6299,4.5919,4.5693,4.5317,4.4538,4.3741,4.3917,4.3926,4.3364,4.3387,4.3314,4.3055,4.2632,4.1922,4.1426,4.0928,4.058,4.0507,4.0309,4.0117,3.9788,3.9625,3.9509,3.9726,3.9693,3.9802,3.9509,3.9414,3.9289,3.9186,3.9203,3.9102,3.879,3.8722,3.8855,3.8896,4.1706,4.1706,4.1706,4.1276,4.0539,4.0956,4.0904,4.0593,4.0888,4.0836,4.0416,4.0307,4.038,4.0583,4.0648,4.0861,4.1092,4.1152,4.1222,4.1484,4.1771,4.2063,4.2416,4.2458,4.2633,4.3091,4.3156,4.3181,4.3333,4.4288,4.4183,4.3712,4.3602,4.3591,4.3609,4.3879,4.5076,4.5897,4.6689,4.7186,4.7853,4.8001,4.8001,4.8001,4.8001,4.8001,4.7935,4.7555,4.7471,4.7337,4.7082,4.7014,4.6945,4.6738,4.6668,4.6733,4.6811,4.7173,4.7341,4.7177,4.6977,4.7435,4.7498,4.764,4.8019,4.7624,4.7861,4.8256,4.8525,4.8588,4.9078,4.9141,4.922,4.9157,4.8984,4.8828,4.8514,4.8136,4.7818,4.7369,4.6773,4.6293,4.5946,4.5522,4.4763,4.4182,4.4109,4.4036,4.4006,4.3845,4.3529,4.3098,4.2323,4.1776,4.1295,4.1052,4.0831,4.0595,4.0464,4.0291,4.0119,4.0431,4.0567,4.0427,4.0314,4.0273,4.0341,4.0363,4.0173,3.9631,3.9386,3.9224,3.9264,3.9414,3.9292,4.2715,4.2585,4.299,4.2381,4.1241,4.1591,4.1525,4.1209,4.1343,4.135,4.1024,4.1001,4.1481,4.1945,4.2186,4.2326,4.2723,4.2801,4.2989,4.3192,4.3411,4.3623,4.3663,4.3961,4.4216,4.4282,4.4177,4.4291,4.506,4.5719,4.5384,4.5059,4.5079,4.5075,4.4943,4.5608,4.6324,4.6673,4.7101,4.7337,4.8001,4.8001,4.8001,4.8001,4.8001,4.8001,4.7935,4.777,4.7638,4.7555,4.7437,4.7286,4.7218,4.715,4.7098,4.7257,4.7561,4.8064,4.8094,4.8054,4.7945,4.866,4.8333,4.8335,4.8399,4.8351,4.8494,4.9078,4.922,4.9394,4.9916,4.9758,4.9694,4.9568,4.9584,4.9458,4.941,4.9109,4.8851,4.8573,4.7943,4.7289,4.6565,4.6174,4.5464,4.4938,4.4951,4.4864,4.4763,4.4486,4.3904,4.3378,4.2646,4.2216,4.1827,4.1366,4.0995,4.0941,4.0849,4.0865,4.092,4.1177,4.1164,4.0825,4.0872,4.1019,4.105,4.0815,4.0248,3.9685,3.9699,3.9861,3.9956,4.0038,3.9707,4.3327,4.2731,4.4155,4.3864,4.2668,4.249,4.2539,4.2334,4.1947,4.2082,4.2699,4.2746,4.3512,4.4391,4.4613,4.4641,4.4605,4.4625,4.4677,4.4785,4.5378,4.4999,4.5151,4.5651,4.6319,4.6853,4.6526,4.6414,4.7221,4.6753,4.623,4.604,4.6182,4.6324,4.5841,4.6394,4.6811,4.6896,4.7621,4.7853,4.8001,4.8001,4.8001,4.8001,4.8001,4.8001,4.8001,4.7935,4.7853,4.7853,4.7853,4.7787,4.7787,4.7504,4.7421,4.747,4.7851,4.8378,4.8884,4.9212,4.9609,4.9904,4.931,4.9156,4.9457,4.9363,4.9062,4.96,4.9742,4.9789,4.9916,4.9916,4.9916,4.9916,4.9916,4.9916,4.9821,4.9741,4.9405,4.8907,4.8826,4.8514,4.7522,4.6743,4.6018,4.5639,4.581,4.5735,4.5399,4.4985,4.4352,4.3955,4.3314,4.2731,4.2357,4.1647,4.1245,4.1191,4.1313,4.1517,4.153,4.1584,4.1476,4.1259,4.1447,4.1704,4.1463,4.1139,4.0911,4.0759,4.0594,4.0648,4.073,4.0513,4.006,4.5601,4.5417,4.5935,4.5835,4.5324,4.488,4.421,4.3378,4.3138,4.3653,4.4653,4.483,4.5608,4.654,4.6936,4.6835,4.6831,4.7362,4.7362,4.7337,4.7861,4.8406,4.8384,4.8074,4.8497,4.8372,4.7999,4.7345,4.7141,4.7297,4.6941,4.6689,4.715,4.7421,4.7354,4.7555,4.7621,4.7638,4.7853,4.8001,4.8001,4.8001,4.8001,4.8001,4.8001,4.8001,4.8001,4.8001,4.8001,4.8001,4.8001,4.8001,4.8001,4.7787,4.7787,4.7935,4.8362,4.9069,4.9637,5.0095,5.0299,5.0326,5.0195,4.985,4.99,4.9742,4.9773,4.9837,4.9916,4.9916,4.9916,4.9916,4.9916,4.9916,4.9916,4.9916,4.9836,4.9836,4.963,4.896,4.8602,4.758,4.6604,4.6675,4.6129,4.5595,4.5667,4.5721,4.55,4.5192,4.4755,4.4509,4.3996,4.3391,4.2871,4.2181,4.1978,4.2046,4.2195,4.2412,4.2344,4.21,4.2154,4.2114,4.2209,4.2304,4.2058,4.1949,4.2193,4.214,4.1652,4.1259,4.1218,4.0835,4.0177,4.7022,4.6853,4.7361,4.7394,4.7098,4.6451,4.5566,4.4865,4.4835,4.5603,4.6782,4.7028,4.7768,4.8791,4.9088,4.9088,4.9121,4.9483,4.9733,4.9693,5.0009,5.0059,5.0074,5.0154,4.9793,4.962,4.9012,4.8356,4.9012,4.8571,4.8228,4.7998,4.7952,4.7869,4.7919,4.7935,4.7935,4.7935,4.8001,4.8001,4.8001,4.8001,4.8001,4.8001,4.8001,4.8001,4.8001,4.8001,4.8017,4.8034,4.8034,4.8034,4.8034,4.8034,4.8017,4.8216,4.8995,4.9889,5.076,5.1135,5.1239,5.1054,5.0755,5.037,5.0136,4.9931,4.9868,4.99,4.9916,4.9916,4.9916,4.9916,4.9916,4.9916,4.9916,4.9916,4.9916,4.9916,4.9821,4.9137,4.8571,4.7211,4.6161,4.616,4.6267,4.5769,4.5361,4.5476,4.5367,4.4929,4.4627,4.4377,4.3918,4.3231,4.289,4.2849,4.2697,4.286,4.2887,4.2887,4.2833,4.2548,4.2765,4.2887,4.2711,4.2629,4.2765,4.2833,4.2751,4.2548,4.2141,4.1856,4.172,4.1257,4.0668,4.753,4.7124,4.8392,4.8562,4.7902,4.7301,4.6999,4.6985,4.7002,4.7832,4.9161,4.9177,4.9959,5.1006,5.1206,5.109,5.1058,5.1208,5.1157,5.1223,5.1294,5.1011,5.0743,5.0641,5.0955,5.085,5.043,5.032,5.1463,5.0443,4.9743,4.926,4.8678,4.8447,4.8282,4.8233,4.815,4.8067,4.8001,4.8001,4.8001,4.8001,4.8001,4.8001,4.8001,4.81,4.8117,4.81,4.8166,4.8183,4.8183,4.815,4.8117,4.81,4.8084,4.8498,4.9574,5.0634,5.1496,5.1706,5.1812,5.1369,5.1027,5.0663,5.0448,5.0214,5.0073,4.9995,4.9995,4.9916,4.9916,4.9916,4.9916,4.9916,4.9916,4.9916,4.9916,4.9916,4.9916,4.9521,4.9064,4.82,4.7315,4.6997,4.6674,4.6032,4.5548,4.5142,4.4893,4.4067,4.3856,4.3728,4.3298,4.2699,4.2657,4.2848,4.2997,4.29,4.29,4.2887,4.2887,4.29,4.29,4.29,4.29,4.29,4.29,4.29,4.2873,4.2643,4.2426,4.2426,4.229,4.1964,4.161,4.8562,4.8426,4.8832,4.8866,4.8765,4.9001,4.9193,4.9157,4.919,5.0015,5.1361,5.1378,5.1798,5.2807,5.2858,5.2469,5.2384,5.2435,5.235,5.235,5.2401,5.2555,5.2489,5.2354,5.2606,5.2353,5.2068,5.1682,5.1699,5.1212,5.076,5.0209,4.9508,4.9127,4.8978,4.8846,4.8547,4.8266,4.8216,4.8233,4.8183,4.8199,4.8183,4.8199,4.8216,4.8382,4.8663,4.8349,4.8547,4.9309,4.8995,4.8961,4.9574,4.9574,4.9574,4.9607,5.0071,5.0436,5.085,5.133,5.1624,5.168,5.1443,5.1268,5.0984,5.0602,5.037,5.023,4.9995,4.9916,4.9916,4.9916,4.9916,4.9916,4.9916,4.9916,4.9916,4.9916,4.9916,4.9789,4.9331,4.8671,4.7867,4.7573,4.7167,4.6463,4.5794,4.5253,4.4531,4.377,4.3356,4.3352,4.3078,4.2576,4.2426,4.2602,4.2778,4.29,4.29,4.2928,4.3009,4.2995,4.2928,4.3023,4.3226,4.3104,4.29,4.2941,4.3063,4.2914,4.2738,4.2819,4.2806,4.2426,4.2154,4.9018,4.9018,4.9018,4.9171,4.9543,5.0219,5.0676,5.0913,5.0963,5.1674,5.2689,5.2756,5.3044,5.3365,5.3399,5.3213,5.2858,5.3095,5.3129,5.3061,5.3264,5.3247,5.3484,5.3518,5.3366,5.3281,5.3112,5.2674,5.2437,5.1865,5.1295,5.1178,5.0409,5.0058,4.9909,4.9676,4.9427,4.9144,4.9011,4.8879,4.8829,4.8812,4.8862,4.8796,4.8796,4.9127,4.9425,4.8961,4.9442,5.0104,4.9657,4.9723,5.0171,5.0171,5.0701,5.0734,5.0767,5.1197,5.1694,5.1744,5.1761,5.181,5.1878,5.1826,5.145,5.0984,5.0679,5.0448,5.0152,4.9916,4.9916,4.9916,4.9916,4.9916,4.9916,4.9916,4.9916,4.9916,4.99,4.9868,4.9426,4.8812,4.8369,4.814,4.7614,4.6701,4.5999,4.5463,4.4705,4.3753,4.3412,4.3375,4.2968,4.2562,4.2535,4.2534,4.2751,4.29,4.29,4.2955,4.3077,4.3321,4.3457,4.3579,4.3715,4.3552,4.3389,4.3267,4.3294,4.3158,4.3036,4.2995,4.2941,4.2711,4.2493,4.9018,4.9018,4.9052,4.956,5.0236,5.098,5.1691,5.235,5.2334,5.279,5.3382,5.3484,5.345,5.3518,5.3501,5.3501,5.3331,5.345,5.3484,5.3484,5.345,5.3518,5.3518,5.3518,5.3518,5.3518,5.3433,5.3247,5.323,5.274,5.2269,5.2168,5.1412,5.0992,5.0843,5.0643,5.0426,5.0376,5.0307,5.0322,5.0038,5.0104,5.022,5.0104,5.0071,5.0171,5.0237,5.0237,5.027,5.0353,5.0336,5.0353,5.0535,5.0634,5.133,5.1612,5.1562,5.1877,5.2258,5.234,5.2258,5.2274,5.2373,5.2302,5.1835,5.1376,5.0984,5.0679,5.037,5.0073,4.9995,4.9916,4.9916,4.9916,4.9916,4.9916,4.9916,4.9916,4.99,4.9884,4.9726,4.9158,4.8934,4.8705,4.825,4.7162,4.6356,4.5771,4.5155,4.4171,4.3673,4.3585,4.3346,4.2998,4.2562,4.2588,4.2792,4.29,4.2955,4.3172,4.343,4.3742,4.4054,4.4122,4.4176,4.4135,4.4013,4.3904,4.3742,4.3552,4.3402,4.3199,4.3077,4.309,4.2846,4.9018,4.9069,4.9593,5.0253,5.0997,5.1725,5.2486,5.3196,5.3213,5.3298,5.3484,5.3518,5.3518,5.3518,5.3518,5.3518,5.3518,5.3518,5.3518,5.3501,5.3518,5.3518,5.3518,5.3518,5.3518,5.3518,5.3518,5.3518,5.3433,5.3247,5.3145,5.3028,5.2336,5.1815,5.1732,5.1598,5.1463,5.1479,5.1591,5.122,5.0535,5.0303,5.022,5.0286,5.032,5.0651,5.0684,5.0551,5.1065,5.1529,5.1197,5.1363,5.181,5.181,5.1993,5.2274,5.2208,5.239,5.2523,5.2589,5.2423,5.2373,5.2373,5.2373,5.2214,5.1762,5.1301,5.0984,5.0586,5.0292,4.9995,4.9995,4.9916,4.9916,4.9916,4.9916,4.9916,4.9916,4.9916,4.9916,4.9916,4.9741,4.9486,4.9113,4.8723,4.8027,4.716,4.6491,4.5945,4.5144,4.4326,4.4051,4.4083,4.3707,4.3026,4.267,4.2887,4.3131,4.328,4.3511,4.3823,4.4339,4.4786,4.4637,4.4596,4.4651,4.4664,4.4529,4.4352,4.4054,4.3972,4.385,4.3932,4.3972,4.3511,4.9018,4.9086,4.9796,5.0727,5.1674,5.2131,5.2756,5.3416,5.3518,5.3518,5.3518,5.3518,5.3518,5.3518,5.3518,5.3518,5.3518,5.3518,5.3518,5.3518,5.3518,5.3518,5.3518,5.3518,5.3518,5.3518,5.3518,5.3518,5.3518,5.3484,5.3433,5.3433,5.2859,5.2674,5.2674,5.2488,5.2387,5.2437,5.2667,5.2091,5.122,5.1184,5.1164,5.1181,5.1247,5.1446,5.1446,5.1347,5.1694,5.2125,5.1893,5.191,5.2191,5.2224,5.2506,5.2655,5.2622,5.2506,5.2622,5.2556,5.239,5.2373,5.2373,5.2373,5.2373,5.1997,5.1851,5.145,5.1043,5.0663,5.037,5.0214,5.0058,4.9995,4.9916,4.9916,4.9916,4.9916,4.9916,4.9916,4.9836,4.9661,4.9369,4.9066,4.8568,4.7718,4.7007,4.7021,4.6512,4.596,4.5162,4.4498,4.4441,4.3861,4.2944,4.2819,4.2995,4.3267,4.3647,4.4122,4.4583,4.5139,4.5505,4.5397,4.5343,4.5356,4.5329,4.5153,4.4827,4.4501,4.4529,4.4583,4.4691,4.4719,4.4271,4.9069,4.9238,5.005,5.1099,5.2215,5.2435,5.2875,5.3433,5.3518,5.3518,5.3518,5.3518,5.3518,5.3518,5.3518,5.3518,5.3518,5.3518,5.3518,5.3518,5.3518,5.3518,5.3518,5.3518,5.3518,5.3518,5.3518,5.3518,5.3518,5.3518,5.3518,5.3518,5.3518,5.3501,5.3416,5.3315,5.3146,5.3044,5.3041,5.2834,5.2677,5.2516,5.2295,5.2345,5.2373,5.2373,5.2357,5.2357,5.2357,5.234,5.2291,5.2307,5.2324,5.239,5.2638,5.2754,5.2605,5.2688,5.2854,5.2622,5.2473,5.2373,5.2373,5.2373,5.239,5.2318,5.2158,5.1851,5.1434,5.1043,5.0739,5.0432,5.0214,4.9979,4.9916,4.9916,4.9916,4.9916,4.9916,4.9931,4.982,4.966,4.9248,4.8967,4.8434,4.7569,4.7227,4.7168,4.6986,4.6433,4.5761,4.4997,4.469,4.3971,4.3213,4.3253,4.3511,4.3837,4.4284,4.4814,4.5316,4.5736,4.6062,4.6238,4.6184,4.598,4.5872,4.5736,4.537,4.5058,4.5248,4.5383,4.5288,4.5261,4.4949,4.9357,4.9999,5.1302,5.2063,5.2401,5.2976,5.3365,5.3484,5.3518,5.3518,5.3518,5.3518,5.3518,5.3518,5.3518,5.3518,5.3518,5.3518,5.3518,5.3518,5.3636,5.3568,5.3585,5.3737,5.3551,5.3551,5.3568,5.3518,5.3518,5.3518,5.3518,5.3518,5.3518,5.3518,5.3501,5.3433,5.3433,5.3348,5.3264,5.3127,5.2989,5.2781,5.2516,5.2445,5.2373,5.2373,5.2373,5.2373,5.2373,5.2373,5.2373,5.2373,5.2373,5.2373,5.2539,5.2622,5.2456,5.2523,5.2572,5.2506,5.2373,5.2373,5.2373,5.2373,5.2373,5.2373,5.2302,5.223,5.1762,5.1285,5.0984,5.0739,5.0509,5.0136,4.9916,4.9916,4.9916,4.9916,4.9916,5.0089,5.0199,4.9817,4.9225,4.899,4.9001,4.8268,4.783,4.7721,4.7442,4.6856,4.6296,4.5735,4.5125,4.477,4.4393,4.4149,4.4298,4.4583,4.4908,4.5424,4.5858,4.6197,4.6469,4.6469,4.6482,4.6319,4.6252,4.6116,4.6116,4.5899,4.6102,4.6197,4.6035,4.5845,4.5587]},{"header":{"parameterUnit":"m.s-1","parameterCategory":1,"la1":31.0,"la2":29.5877,"lo1":-88.7671,"lo2":-86.6584,"dx":0.0162,"dy":0.0185,"nx":115,"ny":88,"refTime":"2023-02-01T18:00:00:Z","depth":0,"parameterNumber":3,"parameterNumberName":"V-component_of_WINDS"},"data":[0.0,0.0,0.0,0.0,0.0,0.0,0.0,0.0,0.0,0.0,0.0,0.0,0.0,0.0,0.0,0.0,0.0,0.0,0.0,0.0,0.0,0.0,0.0,0.0,0.0,0.0,0.0,0.0,0.0,0.0,0.0,0.0,0.0,0.0,0.0,0.0,0.0,0.0,0.0,0.0,0.0,0.0,0.0,0.0,0.0,0.0,0.0,0.0,0.0,0.0,0.0,0.0,0.0,0.0,0.0,0.0,0.0,0.0,0.0,0.0,0.0,0.0,0.0,0.0,0.0,0.0,0.0,0.0,0.0,0.0,0.0,0.0,0.0,0.0,0.0,0.0,0.0,0.0,0.0,0.0,0.0,0.0,0.0,0.0,0.0,0.0,0.0,0.0,0.0,0.0,0.0,0.0,0.0,0.0,0.0,0.0,0.0,0.0,0.0,0.0,0.0,0.0,0.0,0.0,0.0,0.0,0.0,0.0,0.0,0.0,0.0,0.0,0.0,0.0,0.0,0.0,0.0,0.0,0.0,0.0,0.0,0.0,0.0,0.0,0.0,0.0,0.0,0.0,0.0,0.0,0.0,0.0,0.0,0.0,0.0,0.0,0.0,0.0,0.0,0.0,0.0,0.0,0.0,0.0,0.0,0.0,0.0,0.0,0.0,0.0,0.0,0.0,0.0,0.0,0.0,0.0,0.0,0.0,0.0,0.0,0.0,0.0,0.0,0.0,0.0,0.0,0.0,0.0,0.0,0.0,0.0,0.0,0.0,0.0,0.0,0.0,0.0,0.0,0.0,0.0,0.0,0.0,0.0,0.0,0.0,0.0,0.0,0.0,0.0,0.0,0.0,0.0,0.0,0.0,0.0,0.0,0.0,0.0,0.0,0.0,0.0,0.0,0.0,0.0,0.0,0.0,0.0,0.0,0.0,0.0,0.0,0.0,0.0,0.0,0.0,0.0,0.0,0.0,0.0,0.0,0.0,0.0,0.0,0.0,0.0,0.0,0.0,0.0,0.0,0.0,0.0,0.0,0.0,0.0,0.0,0.0,0.0,0.0,0.0,0.0,0.0,0.0,0.0,0.0,0.0,0.0,0.0,0.0,0.0,0.0,0.0,0.0,0.0,0.0,0.0,0.0,0.0,0.0,0.0,0.0,0.0,0.0,0.0,0.0,0.0,0.0,0.0,0.0,0.0,0.0,0.0,0.0,0.0,0.0,0.0,0.0,0.0,0.0,0.0,0.0,0.0,0.0,0.0,0.0,0.0,0.0,0.0,0.0,0.0,0.0,0.0,0.0,0.0,0.0,0.0,0.0,0.0,0.0,0.0,0.0,0.0,0.0,0.0,0.0,0.0,0.0,0.0,0.0,0.0,0.0,0.0,0.0,0.0,0.0,0.0,0.0,0.0,0.0,0.0,0.0,0.0,0.0,0.0,0.0,0.0,0.0,0.0,0.0,0.0,0.0,0.0,0.0,0.0,0.0,0.0,0.0,0.0,0.0,0.0,0.0,0.0,0.0,0.0,0.0,0.0,0.0,0.0,0.0,0.0,0.0,0.0,0.0,0.0,0.0,0.0,0.0,0.0,0.0,0.0,0.0,0.0,0.0,0.0,0.0,0.0,0.0,0.0,0.0,0.0,0.0,0.0,0.0,0.0,0.0,0.0,0.0,0.0,0.0,0.0,0.0,0.0,0.0,0.0,0.0,0.0,0.0,0.0,0.0,0.0,0.0,0.0,0.0,0.0,0.0,0.0,0.0,0.0,0.0,0.0,0.0,0.0,0.0,0.0,0.0,0.0,0.0,0.0,0.0,0.0,0.0,0.0,0.0,0.0,0.0,0.0,0.0,0.0,0.0,0.0,0.0,0.0,0.0,0.0,0.0,0.0,0.0,0.0,0.0,0.0,0.0,0.0,0.0,0.0,0.0,0.0,0.0,0.0,0.0,0.0,0.0,0.0,0.0,0.0,0.0,0.0,0.0,0.0,0.0,0.0,0.0,0.0,0.0,0.0,0.0,0.0,0.0,0.0,0.0,0.0,0.0,0.0,0.0,0.0,0.0,0.0,0.0,0.0,0.0,0.0,0.0,0.0,0.0,0.0,0.0,0.0,0.0,0.0,0.0,0.0,0.0,0.0,0.0,0.0,0.0,0.0,0.0,0.0,0.0,0.0,0.0,0.0,0.0,0.0,0.0,0.0,0.0,0.0,0.0,0.0,0.0,0.0,0.0,0.0,0.0,0.0,0.0,0.0,0.0,0.0,0.0,0.0,0.0,0.0,0.0,0.0,0.0,0.0,0.0,0.0,0.0,0.0,0.0,0.0,0.0,0.0,0.0,0.0,0.0,0.0,0.0,0.0,0.0,0.0,0.0,0.0,0.0,0.0,0.0,0.0,0.0,0.0,0.0,0.0,0.0,0.0,0.0,0.0,0.0,0.0,0.0,0.0,0.0,0.0,0.0,0.0,0.0,0.0,0.0,0.0,0.0,0.0,0.0,0.0,0.0,0.0,0.0,0.0,0.0,0.0,0.0,0.0,0.0,0.0,0.0,0.0,0.0,0.0,0.0,0.0,0.0,0.0,0.0,0.0,0.0,0.0,0.0,0.0,0.0,0.0,0.0,0.0,0.0,0.0,0.0,0.0,0.0,0.0,0.0,0.0,0.0,0.0,0.0,0.0,0.0,0.0,0.0,0.0,0.0,0.0,0.0,0.0,0.0,0.0,0.0,0.0,0.0,0.0,0.0,0.0,0.0,0.0,0.0,0.0,0.0,0.0,0.0,0.0,0.0,0.0,0.0,0.0,0.0,0.0,0.0,0.0,0.0,0.0,0.0,0.0,0.0,0.0,0.0,0.0,0.0,0.0,0.0,0.0,0.0,0.0,0.0,0.0,0.0,0.0,0.0,0.0,0.0,0.0,0.0,0.0,0.0,0.0,0.0,0.0,0.0,0.0,0.0,0.0,0.0,0.0,0.0,0.0,0.0,0.0,0.0,0.0,0.0,0.0,0.0,0.0,0.0,0.0,0.0,0.0,0.0,0.0,0.0,0.0,0.0,0.0,0.0,0.0,0.0,0.0,0.0,0.0,0.0,0.0,0.0,0.0,0.0,0.0,0.0,0.0,0.0,0.0,0.0,0.0,0.0,0.0,0.0,0.0,0.0,0.0,0.0,0.0,0.0,0.0,0.0,0.0,0.0,0.0,0.0,0.0,0.0,0.0,0.0,0.0,0.0,0.0,0.0,0.0,0.0,0.0,0.0,0.0,0.0,0.0,0.0,0.0,0.0,0.0,0.0,0.0,0.0,0.0,0.0,0.0,0.0,0.0,0.0,0.0,0.0,0.0,0.0,0.0,0.0,0.0,0.0,0.0,0.0,0.0,0.0,0.0,0.0,0.0,0.0,0.0,0.0,0.0,0.0,0.0,0.0,0.0,0.0,0.0,0.0,0.0,0.0,0.0,0.0,0.0,0.0,0.0,0.0,0.0,0.0,0.0,0.0,0.0,0.0,0.0,0.0,0.0,0.0,0.0,0.0,0.0,0.0,0.0,0.0,0.0,0.0,0.0,0.0,0.0,0.0,0.0,0.0,0.0,0.0,0.0,0.0,0.0,0.0,0.0,0.0,0.0,0.0,0.0,0.0,0.0,0.0,0.0,0.0,0.0,0.0,0.0,0.0,0.0,0.0,0.0,0.0,0.0,0.0,0.0,0.0,0.0,0.0,0.0,0.0,0.0,0.0,0.0,0.0,0.0,0.0,0.0,0.0,0.0,0.0,0.0,0.0,0.0,0.0,0.0,0.0,0.0,0.0,0.0,0.0,0.0,0.0,0.0,0.0,0.0,0.0,0.0,0.0,0.0,0.0,0.0,0.0,0.0,0.0,0.0,0.0,0.0,0.0,0.0,0.0,0.0,0.0,0.0,0.0,0.0,0.0,0.0,0.0,0.0,0.0,0.0,0.0,0.0,0.0,0.0,0.0,0.0,0.0,0.0,0.0,0.0,0.0,0.0,0.0,0.0,0.0,0.0,0.0,0.0,0.0,0.0,0.0,0.0,0.0,0.0,0.0,0.0,0.0,0.0,0.0,0.0,0.0,0.0,0.0,0.0,0.0,0.0,0.0,0.0,0.0,0.0,0.0,0.0,0.0,0.0,0.0,0.0,0.0,0.0,0.0,0.0,0.0,0.0,0.0,0.0,0.0,0.0,0.0,0.0,0.0,0.0,0.0,0.0,0.0,0.0,0.0,0.0,0.0,0.0,0.0,0.0,0.0,0.0,0.0,0.0,0.0,-1.4359,0.0,0.0,0.0,0.0,0.0,0.0,0.0,0.0,0.0,0.0,0.0,0.0,0.0,0.0,0.0,0.0,0.0,0.0,0.0,0.0,0.0,0.0,0.0,0.0,0.0,0.0,0.0,0.0,0.0,0.0,0.0,0.0,0.0,0.0,0.0,0.0,0.0,0.0,0.0,0.0,0.0,0.0,0.0,0.0,0.0,0.0,0.0,0.0,0.0,0.0,0.0,0.0,0.0,0.0,0.0,0.0,0.0,0.0,0.0,0.0,0.0,0.0,0.0,0.0,0.0,0.0,0.0,0.0,0.0,0.0,0.0,0.0,0.0,0.0,0.0,0.0,0.0,0.0,0.0,0.0,0.0,0.0,0.0,0.0,0.0,0.0,0.0,0.0,0.0,0.0,0.0,0.0,0.0,0.0,0.0,0.0,0.0,0.0,0.0,0.0,0.0,0.0,0.0,0.0,0.0,0.0,0.0,0.0,0.0,0.0,-1.446,-1.4628,-1.3485,-1.313,-1.3692,0.0,0.0,0.0,0.0,0.0,0.0,0.0,0.0,0.0,0.0,0.0,0.0,0.0,0.0,0.0,0.0,0.0,0.0,0.0,0.0,0.0,0.0,0.0,0.0,0.0,0.0,0.0,0.0,0.0,0.0,0.0,0.0,0.0,0.0,0.0,0.0,0.0,0.0,0.0,0.0,0.0,0.0,0.0,0.0,0.0,0.0,0.0,0.0,0.0,0.0,0.0,0.0,0.0,0.0,0.0,0.0,0.0,0.0,0.0,0.0,0.0,0.0,0.0,0.0,0.0,0.0,0.0,0.0,0.0,0.0,0.0,0.0,0.0,0.0,0.0,0.0,0.0,0.0,0.0,0.0,0.0,0.0,0.0,0.0,0.0,0.0,0.0,0.0,0.0,0.0,0.0,0.0,0.0,0.0,0.0,0.0,0.0,0.0,0.0,0.0,0.0,0.0,0.0,0.0,0.0,0.0,0.0,0.0,0.0,0.0,0.0,0.0,-1.3042,-1.2765,-1.3317,0.0,0.0,0.0,0.0,0.0,0.0,0.0,0.0,0.0,0.0,0.0,0.0,0.0,0.0,0.0,0.0,0.0,0.0,0.0,0.0,0.0,0.0,0.0,0.0,0.0,0.0,0.0,0.0,0.0,0.0,0.0,0.0,0.0,0.0,0.0,0.0,0.0,0.0,0.0,0.0,0.0,0.0,0.0,0.0,0.0,0.0,0.0,0.0,0.0,0.0,0.0,0.0,0.0,0.0,0.0,0.0,0.0,0.0,0.0,0.0,0.0,0.0,0.0,0.0,0.0,0.0,0.0,0.0,0.0,0.0,0.0,0.0,0.0,0.0,0.0,0.0,0.0,0.0,0.0,0.0,0.0,0.0,0.0,0.0,0.0,0.0,0.0,0.0,0.0,0.0,0.0,0.0,0.0,0.0,0.0,0.0,0.0,0.0,0.0,0.0,0.0,0.0,0.0,0.0,0.0,0.0,0.0,0.0,0.0,0.0,-1.3995,-1.3893,-1.3469,0.0,-1.4285,0.0,0.0,0.0,0.0,0.0,0.0,0.0,0.0,0.0,0.0,0.0,0.0,0.0,0.0,0.0,0.0,0.0,0.0,0.0,0.0,0.0,0.0,0.0,0.0,0.0,0.0,0.0,0.0,0.0,0.0,0.0,0.0,0.0,0.0,0.0,0.0,0.0,0.0,0.0,0.0,0.0,0.0,0.0,0.0,0.0,0.0,0.0,0.0,0.0,0.0,0.0,0.0,0.0,0.0,0.0,0.0,0.0,0.0,0.0,0.0,0.0,0.0,0.0,0.0,0.0,0.0,0.0,0.0,0.0,0.0,0.0,0.0,0.0,0.0,0.0,0.0,0.0,0.0,0.0,0.0,0.0,0.0,0.0,0.0,0.0,0.0,0.0,0.0,0.0,0.0,0.0,0.0,0.0,0.0,0.0,0.0,0.0,0.0,0.0,0.0,0.0,0.0,0.0,0.0,0.0,0.0,0.0,0.0,0.0,0.0,-1.3196,-1.3369,-1.2649,-1.2513,0.0,0.0,0.0,0.0,0.0,0.0,0.0,0.0,0.0,0.0,0.0,0.0,0.0,0.0,0.0,0.0,0.0,0.0,0.0,0.0,0.0,0.0,0.0,0.0,0.0,0.0,0.0,0.0,0.0,0.0,0.0,0.0,0.0,0.0,0.0,0.0,0.0,0.0,0.0,0.0,0.0,0.0,0.0,0.0,0.0,0.0,0.0,0.0,0.0,0.0,0.0,0.0,0.0,0.0,0.0,0.0,0.0,0.0,0.0,0.0,0.0,0.0,0.0,0.0,0.0,0.0,0.0,0.0,0.0,0.0,0.0,0.0,0.0,0.0,0.0,0.0,0.0,0.0,0.0,0.0,0.0,0.0,0.0,0.0,0.0,0.0,0.0,0.0,0.0,0.0,0.0,0.0,0.0,0.0,0.0,0.0,0.0,0.0,0.0,0.0,0.0,0.0,0.0,0.0,0.0,0.0,0.0,0.0,0.0,0.0,-1.2794,-1.2629,-1.2825,-1.203,-1.1826,-1.2407,0.0,0.0,0.0,0.0,0.0,0.0,0.0,0.0,0.0,0.0,0.0,0.0,0.0,0.0,0.0,0.0,0.0,0.0,0.0,0.0,0.0,0.0,0.0,0.0,0.0,0.0,0.0,0.0,0.0,0.0,0.0,0.0,0.0,0.0,0.0,0.0,0.0,0.0,0.0,0.0,0.0,0.0,0.0,0.0,0.0,0.0,0.0,0.0,0.0,0.0,0.0,0.0,0.0,0.0,0.0,0.0,0.0,0.0,0.0,0.0,0.0,0.0,0.0,0.0,0.0,0.0,0.0,0.0,0.0,0.0,0.0,0.0,0.0,0.0,0.0,0.0,0.0,0.0,0.0,0.0,0.0,0.0,0.0,0.0,0.0,0.0,0.0,0.0,0.0,0.0,0.0,0.0,0.0,0.0,0.0,0.0,0.0,0.0,0.0,0.0,0.0,0.0,0.0,0.0,0.0,0.0,0.0,0.0,-1.2989,-1.2664,-1.2484,-1.2473,-1.1952,-1.2031,0.0,0.0,0.0,0.0,0.0,0.0,0.0,0.0,0.0,0.0,0.0,0.0,0.0,0.0,0.0,0.0,0.0,0.0,0.0,0.0,0.0,0.0,0.0,0.0,0.0,0.0,0.0,0.0,0.0,0.0,0.0,0.0,0.0,0.0,0.0,0.0,0.0,0.0,0.0,0.0,0.0,0.0,0.0,0.0,0.0,0.0,0.0,0.0,0.0,0.0,0.0,0.0,0.0,0.0,0.0,0.0,0.0,0.0,0.0,0.0,0.0,0.0,0.0,0.0,0.0,0.0,0.0,0.0,0.0,0.0,0.0,0.0,0.0,0.0,0.0,0.0,0.0,0.0,0.0,0.0,0.0,0.0,0.0,0.0,0.0,0.0,0.0,0.0,0.0,0.0,0.0,0.0,0.0,0.0,0.0,0.0,0.0,0.0,0.0,0.0,0.0,0.0,0.0,0.0,0.0,0.0,0.0,0.0,0.0,-1.2511,-1.2457,-1.206,-1.1455,-1.1616,-1.1886,0.0,0.0,0.0,0.0,0.0,0.0,0.0,0.0,0.0,0.0,0.0,0.0,0.0,0.0,0.0,0.0,0.0,0.0,0.0,0.0,0.0,0.0,0.0,0.0,0.0,0.0,0.0,0.0,0.0,0.0,0.0,0.0,0.0,0.0,0.0,0.0,0.0,0.0,0.0,0.0,0.0,0.0,0.0,0.0,0.0,0.0,0.0,0.0,0.0,0.0,0.0,0.0,0.0,0.0,0.0,0.0,0.0,0.0,0.0,0.0,0.0,0.0,0.0,0.0,0.0,0.0,0.0,0.0,0.0,0.0,0.0,0.0,0.0,0.0,0.0,0.0,0.0,0.0,0.0,0.0,0.0,0.0,0.0,0.0,0.0,0.0,0.0,0.0,0.0,0.0,0.0,0.0,0.0,0.0,0.0,0.0,0.0,0.0,0.0,0.0,0.0,0.0,0.0,0.0,0.0,0.0,0.0,0.0,0.0,-1.1703,0.0,-1.131,-1.0912,-1.1057,-1.1304,0.0,0.0,0.0,0.0,0.0,0.0,0.0,0.0,0.0,0.0,0.0,0.0,0.0,0.0,0.0,0.0,0.0,0.0,0.0,0.0,0.0,0.0,0.0,0.0,0.0,0.0,0.0,0.0,0.0,0.0,0.0,0.0,0.0,0.0,0.0,0.0,0.0,0.0,0.0,0.0,0.0,0.0,0.0,0.0,0.0,0.0,0.0,0.0,0.0,0.0,0.0,0.0,0.0,0.0,0.0,0.0,0.0,0.0,0.0,0.0,0.0,0.0,0.0,0.0,0.0,0.0,0.0,0.0,0.0,0.0,0.0,0.0,0.0,0.0,0.0,0.0,0.0,0.0,0.0,0.0,0.0,0.0,0.0,0.0,0.0,0.0,0.0,0.0,0.0,0.0,0.0,0.0,0.0,0.0,0.0,0.0,0.0,0.0,0.0,0.0,0.0,0.0,0.0,0.0,0.0,0.0,0.0,0.0,-1.0722,-1.0548,-1.0105,-1.0221,-1.1039,-1.0167,-1.0374,0.0,0.0,0.0,0.0,0.0,0.0,0.0,0.0,0.0,0.0,0.0,0.0,0.0,0.0,0.0,0.0,0.0,0.0,0.0,0.0,0.0,0.0,0.0,0.0,0.0,0.0,0.0,0.0,0.0,0.0,0.0,0.0,0.0,0.0,0.0,0.0,0.0,0.0,0.0,0.0,0.0,0.0,0.0,0.0,0.0,0.0,0.0,0.0,0.0,0.0,0.0,0.0,0.0,0.0,0.0,0.0,0.0,0.0,0.0,0.0,0.0,0.0,0.0,0.0,0.0,0.0,0.0,0.0,0.0,0.0,0.0,0.0,0.0,0.0,0.0,0.0,0.0,0.0,0.0,0.0,0.0,0.0,0.0,0.0,0.0,0.0,0.0,0.0,0.0,0.0,0.0,0.0,0.0,0.0,0.0,0.0,0.0,0.0,0.0,0.0,0.0,0.0,0.0,0.0,0.0,0.0,0.0,0.0,0.0,-0.9764,-0.9807,-0.9611,-0.9252,-0.9483,-0.9761,0.0,0.0,0.0,0.0,0.0,0.0,0.0,0.0,0.0,0.0,0.0,0.0,0.0,0.0,0.0,0.0,0.0,0.0,0.0,0.0,0.0,0.0,0.0,0.0,0.0,0.0,0.0,0.0,0.0,0.0,0.0,0.0,0.0,0.0,0.0,0.0,0.0,0.0,0.0,0.0,0.0,0.0,0.0,0.0,0.0,0.0,0.0,0.0,0.0,0.0,0.0,0.0,0.0,0.0,0.0,0.0,0.0,0.0,0.0,0.0,0.0,0.0,0.0,0.0,0.0,0.0,0.0,0.0,0.0,0.0,0.0,0.0,0.0,0.0,0.0,0.0,0.0,0.0,0.0,0.0,0.0,0.0,0.0,0.0,0.0,0.0,0.0,0.0,0.0,0.0,0.0,0.0,0.0,0.0,0.0,0.0,0.0,0.0,0.0,0.0,0.0,0.0,0.0,0.0,0.0,0.0,0.0,0.0,0.0,-0.9086,-0.9271,-0.9041,-0.8526,-0.885,-0.9086,-0.9321,0.0,0.0,0.0,0.0,0.0,0.0,0.0,0.0,0.0,0.0,0.0,0.0,0.0,0.0,0.0,0.0,0.0,0.0,0.0,0.0,0.0,0.0,0.0,0.0,0.0,0.0,0.0,0.0,0.0,0.0,0.0,0.0,0.0,0.0,0.0,0.0,0.0,0.0,0.0,0.0,0.0,0.0,0.0,0.0,0.0,0.0,0.0,0.0,0.0,0.0,0.0,0.0,0.0,0.0,0.0,0.0,0.0,0.0,0.0,0.0,0.0,0.0,0.0,0.0,0.0,0.0,0.0,0.0,0.0,0.0,0.0,0.0,0.0,0.0,0.0,0.0,0.0,0.0,0.0,0.0,0.0,0.0,0.0,0.0,0.0,0.0,0.0,0.0,0.0,0.0,0.0,0.0,0.0,0.0,0.0,0.0,0.0,0.0,0.0,0.0,0.0,0.0,0.0,0.0,0.0,0.0,0.0,0.0,-0.8526,-0.8553,-0.8558,-0.8535,-0.8184,-0.8337,0.0,0.0,0.0,0.0,0.0,0.0,0.0,0.0,0.0,0.0,0.0,0.0,0.0,0.0,0.0,0.0,0.0,0.0,0.0,0.0,0.0,0.0,0.0,0.0,0.0,0.0,0.0,0.0,0.0,0.0,0.0,0.0,0.0,0.0,0.0,0.0,0.0,0.0,0.0,0.0,0.0,0.0,0.0,0.0,0.0,0.0,0.0,0.0,0.0,0.0,0.0,0.0,0.0,0.0,0.0,0.0,0.0,0.0,0.0,0.0,0.0,0.0,0.0,0.0,0.0,0.0,0.0,0.0,0.0,0.0,0.0,0.0,0.0,0.0,0.0,0.0,0.0,0.0,0.0,0.0,0.0,0.0,0.0,0.0,0.0,0.0,0.0,0.0,0.0,0.0,0.0,0.0,0.0,0.0,0.0,0.0,0.0,0.0,0.0,0.0,0.0,0.0,0.0,0.0,0.0,0.0,0.0,0.0,0.0,-0.7363,-0.748,-0.7505,-0.7591,-0.7852,-0.7741,0.0,0.0,0.0,0.0,0.0,0.0,0.0,0.0,0.0,0.0,0.0,0.0,0.0,0.0,0.0,0.0,0.0,0.0,0.0,0.0,0.0,0.0,0.0,0.0,0.0,0.0,0.0,0.0,0.0,0.0,0.0,0.0,0.0,0.0,0.0,0.0,0.0,0.0,0.0,0.0,0.0,0.0,0.0,0.0,0.0,0.0,0.0,0.0,0.0,0.0,0.0,0.0,0.0,0.0,0.0,0.0,0.0,0.0,0.0,0.0,0.0,0.0,0.0,0.0,0.0,0.0,0.0,0.0,0.0,0.0,0.0,0.0,0.0,0.0,0.0,0.0,0.0,0.0,0.0,0.0,0.0,0.0,0.0,0.0,0.0,0.0,0.0,0.0,0.0,0.0,0.0,0.0,0.0,0.0,0.0,0.0,0.0,0.0,0.0,0.0,0.0,0.0,0.0,0.0,0.0,0.0,0.0,0.0,-0.6198,-0.6393,-0.6477,-0.6301,-0.5959,-0.7027,-0.725,0.0,0.0,0.0,0.0,0.0,0.0,0.0,0.0,0.0,0.0,0.0,0.0,0.0,0.0,0.0,0.0,0.0,0.0,0.0,0.0,0.0,0.0,0.0,0.0,0.0,0.0,0.0,0.0,0.0,0.0,0.0,0.0,0.0,0.0,0.0,0.0,0.0,0.0,0.0,0.0,0.0,0.0,0.0,0.0,0.0,0.0,0.0,0.0,0.0,0.0,0.0,0.0,0.0,0.0,0.0,0.0,0.0,0.0,0.0,0.0,0.0,0.0,0.0,0.0,0.0,0.0,0.0,0.0,0.0,0.0,0.0,0.0,0.0,0.0,0.0,0.0,0.0,0.0,0.0,0.0,0.0,0.0,0.0,0.0,0.0,0.0,0.0,0.0,0.0,0.0,0.0,0.0,0.0,0.0,0.0,0.0,0.0,0.0,0.0,0.0,0.0,0.0,0.0,0.0,0.0,0.0,0.0,0.0,-0.5315,-0.5536,-0.5542,-0.5186,-0.4385,-0.5863,-0.6668,0.0,0.0,0.0,0.0,0.0,0.0,0.0,0.0,0.0,0.0,0.0,0.0,0.0,0.0,0.0,0.0,0.0,0.0,0.0,0.0,0.0,0.0,0.0,0.0,0.0,0.0,0.0,0.0,0.0,0.0,0.0,0.0,0.0,0.0,0.0,0.0,0.0,0.0,0.0,0.0,0.0,0.0,0.0,0.0,0.0,0.0,0.0,0.0,0.0,0.0,0.0,0.0,0.0,0.0,0.0,0.0,0.0,0.0,0.0,0.0,0.0,0.0,0.0,0.0,0.0,0.0,0.0,0.0,0.0,0.0,0.0,0.0,0.0,0.0,0.0,0.0,0.0,0.0,0.0,0.0,0.0,0.0,0.0,0.0,0.0,0.0,0.0,0.0,0.0,0.0,0.0,0.0,0.0,0.0,0.0,0.0,0.0,0.0,0.0,0.0,0.0,0.0,0.0,0.0,0.0,0.0,0.0,0.0,-0.427,-0.4561,-0.4567,-0.4478,-0.4297,-0.5252,-0.565,0.0,0.0,0.0,0.0,0.0,0.0,0.0,0.0,0.0,0.0,0.0,0.0,0.0,0.0,0.0,0.0,0.0,0.0,0.0,0.0,0.0,0.0,0.0,0.0,0.0,0.0,0.0,0.0,0.0,0.0,0.0,0.0,0.0,0.0,0.0,0.0,0.0,0.0,0.0,0.0,0.0,0.0,0.0,0.0,0.0,0.0,0.0,0.0,-0.0588,0.0,0.0,0.0,0.0,0.0,0.0,0.0,0.0,0.0,0.0,0.0,0.0,0.0,0.0,0.0,0.0,0.0,0.0,0.0,0.0,0.0,0.0,0.0,0.0,0.0,0.0,0.0,0.0,0.0,0.0,0.0,0.0,0.0,0.0,0.0,0.0,0.0,0.0,0.0,0.0,0.0,0.0,0.0,0.0,0.0,0.0,0.0,0.0,0.0,0.0,0.0,0.0,0.0,0.0,0.0,0.0,0.0,0.0,0.0,-0.2103,-0.2594,-0.2956,-0.3136,-0.3133,-0.3807,-0.4504,0.0,0.0,0.0,0.0,0.0,0.0,0.0,0.0,0.0,0.0,0.0,0.0,0.0,0.0,0.0,0.0,0.0,0.0,0.0,0.0,0.0,0.0,0.0,0.0,0.0,0.0,0.0,0.0,0.0,0.0,0.0,0.0,0.0,0.0,0.0,0.0,0.0,0.0,0.0,0.0,0.0,0.0,0.0,0.0,0.0,0.0,0.0,0.0,0.0,0.0,0.0,0.0,0.0,0.0,0.0,0.0,0.0,0.0,0.0,0.0,0.0,0.0,0.0,0.0,0.0,0.0,0.0,0.0,0.0,0.0,0.0,0.0,0.0,0.0,0.0,0.0,0.0,0.0,0.0,0.0,0.0,0.0,0.0,0.0,0.0,0.0,0.0,0.0,0.0,0.0,0.0,0.0,0.0,0.0,0.0,0.0,0.0,0.0,0.0,0.0,0.0,0.0,0.0,0.0,0.0,0.0,0.0,-0.0344,-0.0176,-0.0717,-0.1346,-0.1705,-0.1795,-0.2334,-0.3431,-0.4888,0.0,0.0,0.0,0.0,0.0,0.0,0.0,0.0,0.0,0.0,0.0,0.0,0.0,0.0,0.0,0.0,0.0,0.0,0.0,0.0,0.0,0.0,0.0,0.0,0.0,0.0,0.0,0.0,0.0,0.0,0.0,0.0,0.0,0.0,0.0,0.0,0.0,0.0,0.4359,0.4346,0.0,0.0,0.0,0.0,0.0,0.0,0.0,0.0,0.1278,0.0,0.0,0.0,0.0,0.0,0.0,0.0,0.0,0.0,0.0,0.0,0.0,0.0,0.0,0.0,0.0,0.0,0.0,0.0,0.0,0.0,0.0,0.0,0.0,0.0,0.0,0.0,0.0,0.0,0.0,0.0,0.0,0.0,0.0,0.0,0.0,0.0,0.0,0.0,0.0,0.0,0.0,0.0,0.0,0.0,0.0,0.0,0.0,0.0,0.0,0.0,0.0,0.0,0.0,0.0,0.0,-0.0086,0.0087,-0.0088,-0.0717,-0.0807,-0.1166,-0.1795,-0.1705,-0.2392,-0.388,0.0,0.0,0.0,0.0,0.0,0.0,0.0,0.0,0.0,0.0,0.0,0.0,0.0,0.0,0.0,0.0,0.0,0.0,0.0,0.0,0.0,0.0,0.0,0.0,0.0,0.0,0.0,0.0,0.0,0.0,0.0,0.0,0.0,0.0,0.0,0.0,0.0,0.0,0.0,0.5063,0.4987,0.0,0.0,0.0,0.0,0.0,0.0,0.0,0.0,0.2684,0.0,0.0,0.0,0.0,0.0,0.0,0.0,0.0,0.0,0.0,0.0,0.0,0.0,0.0,0.0,0.0,0.0,0.0,0.0,0.0,0.0,0.0,0.0,0.0,0.0,0.0,0.0,0.0,0.0,0.0,0.0,0.0,0.0,0.0,0.0,0.0,0.0,0.0,0.0,0.0,0.0,0.0,0.0,0.0,0.0,0.0,0.0,0.0,0.0,0.0,0.0,0.0,0.0,0.0,0.0,0.1534,0.1831,0.1685,0.1164,0.0806,0.045,0.0091,-0.0637,-0.1442,0.0,0.0,0.0,0.0,0.0,0.0,0.0,0.0,0.0,0.0,0.0,0.0,0.0,0.0,0.0,0.0,0.0,0.0,0.0,0.0,0.0,0.0,0.0,0.0,0.0,0.0,0.0,0.0,0.0,0.0,0.0,0.0,0.0,0.0,0.0,0.0,0.0,0.0,0.0,0.0,0.6432,0.6346,0.6986,0.0,0.0,0.0,0.0,0.0,0.0,0.4148,0.4176,0.0,0.0,0.0,0.0,0.0,0.0,0.0,0.0,0.0,0.0,0.0,0.0,0.0,0.0,0.0,0.0,0.0,0.0,0.0,0.0,0.0,0.0,0.0,0.0,0.0,0.0,0.0,0.0,0.0,0.0,0.0,0.0,0.0,0.0,0.0,0.0,0.0,0.0,0.0,0.0,0.0,0.0,0.0,0.0,0.0,0.0,0.0,0.0,0.0,0.0,0.0,0.0,0.0,0.0,0.0,0.329,0.3717,0.3718,0.3174,0.2447,0.2011,0.195,0.0557,-0.0276,0.0,0.0,0.0,0.0,0.0,0.0,0.0,0.0,0.0,0.0,0.0,0.0,0.0,0.0,0.0,0.0,0.0,0.0,0.0,0.0,0.0,0.0,0.0,0.0,0.0,0.0,0.0,0.0,0.0,0.0,0.0,0.0,0.0,0.0,0.0,0.0,0.0,0.0,0.0,0.0,0.0,0.7542,0.7156,0.6697,0.0,0.0,0.0,0.0,0.5622,0.5452,0.0,0.0,0.0,0.0,0.0,0.0,0.0,0.0,0.0,0.0,0.0,0.0,0.0,0.0,0.0,0.0,0.0,0.0,0.0,0.0,0.0,0.0,0.0,0.0,0.0,0.0,0.0,0.0,0.0,0.0,0.0,0.0,0.0,0.0,0.0,0.0,0.0,0.0,0.0,0.0,0.0,0.0,0.0,0.0,0.0,0.0,0.0,0.0,0.0,0.0,0.0,0.0,0.0,0.0,0.0,0.0,0.5269,0.5127,0.4714,0.4152,0.3402,0.2651,0.2087,0.2087,0.1326,0.0,0.0,0.0,0.0,0.0,0.0,0.0,0.0,0.0,0.0,0.0,0.0,0.0,0.0,0.0,0.0,0.0,0.0,0.0,0.0,0.0,0.0,0.0,0.0,0.0,0.0,0.0,0.0,0.0,0.0,0.0,0.0,0.0,0.0,0.0,0.0,0.0,0.0,0.0,0.0,0.0,0.8102,0.7234,0.7401,0.7863,0.0,0.0,0.7224,0.6416,0.6495,0.0,0.0,0.0,0.0,0.0,0.0,0.0,0.0,0.0,0.0,0.0,0.0,0.0,0.0,0.0,0.0,0.0,0.0,0.0,0.0,0.0,0.0,0.0,0.0,0.0,0.0,0.0,0.0,0.0,0.0,0.0,0.0,0.0,0.0,0.0,0.0,0.0,0.0,0.0,0.0,0.0,0.0,0.0,0.0,0.0,0.0,0.0,0.0,0.0,0.0,0.0,0.0,0.0,0.0,0.0,0.7718,0.7469,0.6655,0.6072,0.579,0.5036,0.4494,0.4251,0.3287,0.2515,0.0,0.0,0.0,0.0,0.0,0.0,0.0,0.0,0.0,0.0,0.0,0.0,0.0,0.0,0.0,0.0,0.0,0.0,0.0,0.0,0.0,0.0,0.0,0.0,0.0,0.0,0.0,0.0,0.0,0.0,0.0,0.0,0.0,0.0,0.0,0.0,0.0,0.0,0.0,0.0,0.0,0.0,0.8995,0.8894,0.0,0.0,0.0,0.8116,0.7757,0.0,0.0,0.0,0.0,0.0,0.0,0.0,0.0,0.0,0.0,0.0,0.0,0.0,0.0,0.0,0.0,0.0,0.0,0.0,0.0,0.0,0.0,0.0,0.0,0.0,0.0,0.0,0.0,0.0,0.0,0.0,0.0,0.0,0.0,0.0,0.0,0.0,0.0,0.0,0.0,0.0,0.0,0.0,0.0,0.0,0.0,0.0,0.0,0.0,0.0,0.0,0.0,0.0,0.0,0.0,0.0,0.0,0.9648,0.8563,0.7818,0.7689,0.6831,0.6211,0.601,0.4826,0.0,0.0,0.0,0.0,0.0,0.0,0.0,0.0,0.0,0.0,0.0,0.0,0.0,0.0,0.0,0.0,0.0,0.0,0.0,0.0,0.0,0.0,0.0,0.0,0.0,0.0,0.0,0.78,0.0,0.0,0.0,0.0,0.0,0.0,0.0,0.0,0.0,0.0,0.0,0.0,0.0,0.0,1.026,1.0768,1.0381,1.0202,0.0,0.0,0.8911,0.8915,0.874,0.8572,0.0,0.0,0.0,0.0,0.0,0.0,0.0,0.0,0.0,0.0,0.0,0.0,0.0,0.0,0.0,0.0,0.0,0.0,0.0,0.0,0.0,0.0,0.0,0.0,0.0,0.0,0.0,0.0,0.0,0.0,0.0,0.0,0.0,0.0,0.0,0.0,0.0,0.0,0.0,0.0,0.0,0.0,0.0,0.0,0.0,0.0,0.0,0.0,0.0,0.0,0.0,0.0,0.0,0.0,0.0,1.1844,1.088,1.0194,0.9751,0.8579,0.7406,0.6423,0.6714,0.6009,0.0,0.0,0.0,0.0,0.0,0.0,0.0,0.0,0.0,0.0,0.0,0.0,0.0,0.0,0.0,0.0,0.0,0.0,0.0,0.0,0.0,0.0,0.0,0.0,0.0,0.0,0.0,0.0,0.0,0.0,0.0,0.0,0.0,0.0,0.0,0.0,0.0,0.0,0.0,0.0,0.0,1.1575,1.202,1.1607,1.1424,0.0,0.0,0.9859,0.9772,0.917,0.8572,0.8572,0.0,0.0,0.0,0.0,0.0,0.0,0.0,0.0,0.0,0.0,0.0,0.0,0.0,0.0,0.0,0.0,0.0,0.0,0.0,0.0,0.0,0.0,0.0,0.0,0.0,0.0,0.0,0.0,0.0,0.0,0.0,0.0,0.0,0.0,0.0,0.0,0.0,0.0,0.0,0.0,0.0,0.0,0.0,0.0,0.0,0.0,0.0,0.0,0.0,0.0,0.0,0.0,0.0,1.4021,1.3332,1.2225,1.1531,1.1361,0.9989,0.9008,0.8616,0.7717,0.6822,0.0,0.0,0.0,0.0,0.0,0.0,0.0,0.0,0.0,0.0,0.0,0.0,0.0,0.0,0.0,0.0,0.0,0.0,0.0,0.0,0.0,0.0,0.0,0.0,0.0,0.0,0.0,0.0,1.1843,1.2351,1.2923,0.0,0.0,0.0,0.0,0.0,0.0,0.0,0.0,0.0,0.0,1.3952,1.4126,1.3432,0.0,0.0,1.1837,1.0722,1.0722,1.0463,1.0289,1.0294,1.0289,0.0,0.0,0.0,0.0,0.0,0.0,0.0,0.0,0.0,0.0,0.0,0.0,0.0,0.0,0.0,0.0,0.0,0.0,0.0,0.0,0.0,0.0,0.0,0.0,0.0,0.0,0.0,0.0,0.0,0.0,0.0,0.0,0.0,0.0,0.0,0.0,0.0,0.0,0.0,0.0,0.0,0.0,0.0,0.0,0.0,0.0,0.0,0.0,0.0,0.0,0.0,0.0,1.5779,1.5102,1.3896,1.3204,1.3113,1.1653,1.0779,1.0382,0.9099,0.8333,0.0,0.0,0.0,0.0,0.0,0.0,0.0,0.0,0.0,0.0,0.0,0.0,0.0,0.0,0.0,0.0,0.0,0.0,0.0,0.0,0.0,0.0,0.0,0.0,0.0,0.0,0.0,0.0,1.3366,1.4112,1.4768,0.0,0.0,0.0,0.0,0.0,0.0,0.0,0.0,0.0,0.0,1.5741,1.5749,1.5177,1.4761,1.4566,1.3159,1.2083,1.2169,1.1906,1.174,1.1649,0.0,0.0,0.0,0.0,0.0,0.0,0.0,0.0,0.0,0.0,0.0,0.0,0.0,0.0,0.0,0.0,0.0,0.0,0.0,0.0,0.0,0.0,0.0,0.0,0.0,0.0,0.0,0.0,0.0,0.0,1.6293,0.0,0.0,0.0,0.0,0.0,0.0,0.0,0.0,0.0,0.0,0.0,0.0,0.0,0.0,0.0,0.0,0.0,0.0,0.0,0.0,0.0,0.0,1.7494,1.7247,1.5948,1.5222,1.4943,1.3698,1.2522,1.1536,1.1258,1.0771,0.9953,0.0,0.0,0.0,0.0,0.0,0.0,0.0,0.0,0.0,0.0,0.0,0.0,0.0,0.0,0.0,0.0,0.0,0.0,0.0,0.0,0.0,0.0,0.0,0.0,0.0,0.0,1.5311,1.6041,1.6609,0.0,0.0,0.0,0.0,0.0,0.0,0.0,0.0,0.0,0.0,1.669,1.669,1.669,1.669,1.6413,1.583,1.4726,1.4015,1.4028,1.325,1.2553,0.0,0.0,0.0,0.0,0.0,0.0,0.0,0.0,0.0,0.0,0.0,0.0,0.0,0.0,0.0,0.0,0.0,0.0,0.0,0.0,0.0,0.0,0.0,0.0,0.0,0.0,0.0,1.0067,1.2369,0.0,0.0,0.0,0.0,0.0,0.0,0.0,0.0,0.0,0.0,0.0,2.5256,2.6132,0.0,0.0,0.0,0.0,0.0,0.0,0.0,0.0,0.0,0.0,0.0,0.0,1.9127,1.8465,1.7402,1.68,1.6814,1.5222,1.3992,1.3113,1.2328,1.1353,1.0062,0.0,0.0,0.0,0.0,0.0,0.0,0.0,0.0,0.0,0.0,0.0,0.0,0.0,0.0,0.0,0.0,0.0,0.0,0.0,0.0,0.0,0.0,0.0,0.0,0.0,1.6288,0.0,0.0,0.0,0.0,0.0,0.0,0.0,0.0,0.0,0.0,0.0,1.9027,1.8479,1.8407,1.8407,1.8399,1.7811,1.7301,0.0,0.0,0.0,0.0,0.0,0.0,0.0,0.0,0.0,0.0,0.0,0.0,0.0,0.0,1.9722,1.7731,1.7588,1.7696,1.7859,0.0,0.0,0.0,0.0,0.0,0.0,0.0,0.0,0.0,0.0,0.0,0.0,0.0,0.0,1.5842,0.0,1.91,0.0,0.0,0.0,0.0,0.0,0.0,0.0,0.0,2.7521,2.7815,2.7927,2.9012,2.9056,0.0,2.872,2.7767,0.0,0.0,0.0,0.0,0.0,0.0,0.0,0.0,2.0437,1.9557,1.8536,1.791,1.7494,1.6156,1.5242,1.4669,1.3579,1.2221,1.0672,1.0676,1.058,0.0,0.0,0.0,0.0,0.0,0.0,0.0,0.0,0.0,0.0,0.0,0.0,0.0,0.0,0.0,0.0,0.0,0.0,0.0,0.0,0.0,0.0,0.0,1.773,0.0,0.0,0.0,0.0,0.0,0.0,0.0,0.0,0.0,2.0886,2.1135,2.1293,2.0748,2.0543,2.0495,2.0649,0.0,0.0,0.0,0.0,0.0,0.0,0.0,1.8,1.798,1.8288,1.868,1.9274,2.095,2.2246,2.2376,0.0,0.0,2.033,1.9971,2.0112,2.0328,2.0642,2.1006,2.1398,2.1343,2.1175,0.0,0.0,0.0,0.0,0.0,0.0,0.0,0.0,2.1681,2.3012,0.0,2.4194,0.0,0.0,0.0,0.0,0.0,2.9537,0.0,0.0,3.0067,3.0452,3.0112,3.1955,3.2112,3.0677,3.098,3.0171,2.8303,2.6875,0.0,0.0,0.0,0.0,0.0,0.0,2.1286,2.0521,1.947,1.8433,1.7475,1.6678,1.6285,1.6096,1.4911,1.3469,1.1883,1.1893,1.1692,1.1185,1.0623,0.0,0.0,0.0,0.0,0.0,0.0,0.0,0.0,0.0,0.0,0.0,0.0,0.0,0.0,0.0,0.0,0.0,0.0,0.0,0.0,1.8659,0.0,0.0,0.0,0.0,0.0,0.0,0.0,0.0,0.0,0.0,2.3444,2.3353,2.3363,2.3273,0.0,0.0,0.0,0.0,2.1243,2.184,2.1441,2.1223,2.164,2.0407,1.9562,2.0285,0.0,0.0,2.2331,2.4199,2.5344,2.5262,2.497,2.444,2.2862,2.2629,2.2834,2.3167,2.2978,2.3186,2.4206,2.4324,2.3992,1.2187,0.0,0.0,0.0,0.0,2.5692,2.6927,2.5117,2.5681,2.5754,2.5552,2.7284,0.0,0.0,0.0,0.0,0.0,0.0,3.0128,3.0225,3.0403,3.1007,3.2041,3.1527,3.1519,3.2044,3.1739,3.1282,3.0519,2.9704,2.7946,2.5528,0.0,0.0,0.0,0.0,2.2735,2.1864,2.121,2.0395,1.9348,1.848,1.749,1.619,1.4942,1.4096,1.3771,1.3496,1.3308,1.3297,1.2349,0.0,0.0,0.0,0.0,0.0,0.0,0.0,0.0,0.0,0.0,0.0,0.0,0.0,0.0,0.0,0.0,0.0,0.0,0.0,1.9574,2.1417,2.2296,0.0,0.0,0.0,0.0,0.0,0.0,0.0,0.0,0.0,2.5541,2.4777,2.3924,0.0,0.0,2.2579,2.2714,2.2667,2.2426,2.1902,2.3253,0.0,0.0,2.17,2.1612,2.1527,2.2288,2.3314,2.4604,2.5311,2.5801,2.6154,2.5837,2.5565,2.5881,2.5018,2.4682,2.5381,2.5498,2.5658,2.6163,2.6282,2.6097,2.8352,2.1633,3.0437,3.1533,2.7773,3.0597,3.0989,2.9687,2.8912,2.8931,2.9649,3.0648,3.1268,3.1722,3.2389,0.0,0.0,0.0,3.2422,3.2614,3.2004,3.2486,3.3651,3.2261,3.2083,3.2959,3.2668,3.2233,3.1694,3.1347,2.9938,2.7565,0.0,0.0,2.4293,2.4235,2.3804,2.282,2.2353,2.1735,2.0993,2.0054,1.8824,1.7309,1.6049,1.536,1.532,1.4648,1.4365,1.4566,1.3813,1.3802,0.0,0.0,0.0,0.0,0.0,0.0,0.0,0.0,0.0,0.0,0.0,1.8991,0.0,0.0,0.0,0.0,2.0615,2.1457,2.2126,2.3395,0.0,0.0,0.0,0.0,0.0,0.0,0.0,2.505,2.5872,2.6507,2.6813,2.6561,2.5847,2.4465,2.4148,2.4172,2.4381,0.0,2.3831,2.4271,2.5127,2.5183,2.3919,2.3565,2.3342,2.3023,2.4325,2.5474,2.6068,2.6577,2.6937,2.7235,2.7416,2.7626,2.8037,2.7836,2.744,2.7424,2.7428,2.7615,2.8177,2.8136,2.7776,4.0231,3.8663,3.6551,3.4699,3.3248,3.4098,3.3845,3.2819,3.164,3.2346,3.4287,3.3999,3.4136,3.4647,3.494,0.0,3.474,3.5306,3.5447,3.5284,3.4386,3.4382,3.5056,3.3944,3.3492,3.3762,3.3725,3.3231,3.2345,3.2194,3.1585,3.0443,2.8973,2.743,2.5947,2.5462,2.4597,2.3416,2.3038,2.2684,2.2117,2.1182,2.0127,1.8852,1.7853,1.7059,1.6467,1.5481,1.4898,1.5101,1.4971,1.5035,1.5312,0.0,0.0,0.0,0.0,0.0,0.0,0.0,0.0,0.0,0.0,0.0,0.0,0.0,0.0,0.0,2.4264,0.0,2.4914,2.4967,0.0,0.0,0.0,2.4829,2.4829,2.5045,2.5278,2.544,0.0,0.0,2.7544,2.8512,2.8361,2.6198,2.6353,2.69,2.7412,2.5754,2.5367,2.7589,2.6843,2.6158,2.6364,2.5776,2.5239,2.5214,2.6449,2.7435,2.7325,2.7959,2.8645,2.8766,2.9438,2.9893,2.9549,3.0666,3.1145,2.9289,2.8935,2.9106,2.9903,2.9794,2.9172,3.986,3.9313,3.7953,3.6882,3.5963,3.5405,3.4794,3.4264,3.4769,3.4312,3.3291,3.4955,3.5704,3.5739,3.6172,3.579,3.4896,3.5272,3.5116,3.4515,3.4616,3.4908,3.5293,3.4981,3.5198,3.5718,3.5678,3.5302,3.4548,3.396,3.298,3.1636,3.054,2.9303,2.7941,2.7126,2.6431,2.5847,2.5028,2.3881,2.2553,2.1501,2.0603,1.9657,1.9071,1.8269,1.7272,1.6687,1.589,1.5208,1.6027,1.6666,1.697,1.7428,0.0,0.0,0.0,0.0,0.0,0.0,0.0,0.0,0.0,2.3591,2.4589,0.0,2.5024,0.0,2.7001,2.7277,2.608,2.7749,0.0,0.0,2.6755,2.7256,2.7936,2.6792,2.6501,2.8009,2.8402,2.867,2.879,2.9376,2.9315,2.794,2.7846,2.7983,2.8017,2.7366,2.6989,2.7614,2.8075,2.8139,2.7891,2.7963,2.8111,2.8699,2.9124,2.9563,2.9859,3.0126,3.042,3.0766,2.9744,2.9756,3.1337,3.2044,3.2066,3.1335,3.0495,3.0071,3.1084,3.0703,3.0276,4.0531,4.0069,3.8978,3.8599,3.8535,3.6629,3.5742,3.578,3.5577,3.5189,3.4825,3.6384,3.7367,3.7817,3.7783,3.7302,3.6537,3.7012,3.6721,3.5853,3.5943,3.6088,3.6284,3.5667,3.5594,3.5917,3.5615,3.5285,3.4951,3.4507,3.3578,3.2087,3.1563,3.065,2.9476,2.8409,2.7357,2.6507,2.5786,2.5085,2.4193,2.3515,2.2646,2.1607,2.0908,2.0006,1.9097,1.8289,1.7516,1.6881,1.7559,1.816,1.8452,1.8773,1.9533,0.0,0.0,0.0,0.0,0.0,0.0,0.0,0.0,0.0,0.0,0.0,2.686,2.7853,2.8868,2.9102,2.8056,2.9229,2.9499,2.8164,2.8164,2.8414,2.87,2.777,2.7458,2.827,2.9059,2.9517,2.9611,3.0577,3.0938,3.005,3.0075,2.9808,2.8988,2.8912,2.9049,2.8762,2.9691,3.018,2.9372,2.9503,2.99,3.0333,3.0498,3.0529,3.083,3.0895,3.0999,3.1172,3.0327,3.0099,3.1798,3.2592,3.2698,3.2269,3.1524,3.1038,3.1245,3.1101,3.0849,4.1376,4.0707,3.9662,3.98,4.0508,3.7746,3.6888,3.7266,3.5864,3.6109,3.7545,3.7978,3.8837,3.9863,3.9282,3.877,3.8515,3.9098,3.8859,3.796,3.7653,3.7535,3.7476,3.6241,3.5649,3.5584,3.4993,3.4617,3.4545,3.4545,3.3758,3.229,3.2146,3.162,3.0628,2.9464,2.805,2.6487,2.6053,2.5919,2.6001,2.5809,2.5023,2.3647,2.2776,2.1895,2.0885,1.9952,1.9295,1.91,1.9242,1.9521,2.003,1.9768,2.0151,0.0,2.1865,0.0,0.0,0.0,0.0,0.0,0.0,0.0,0.0,2.8662,2.9167,2.9935,3.0443,3.0581,3.0215,3.0152,2.9845,2.9316,2.9316,2.9081,2.8621,2.8443,2.8264,2.7963,2.9359,3.0342,3.0688,3.1876,3.2594,3.1928,3.1924,3.1415,3.0031,3.0258,3.0654,3.0254,3.1323,3.1694,3.1031,3.0917,3.1066,3.118,3.1302,3.1193,3.1254,3.1281,3.1281,3.1294,3.1267,3.1426,3.1866,3.2671,3.3068,3.2633,3.2136,3.1679,3.1159,3.1026,3.0942,4.0508,4.0707,3.9645,3.9558,4.0137,3.9049,3.8685,3.8861,3.9105,3.9446,3.9827,3.9398,3.933,3.9458,3.9057,3.8699,3.8415,3.8529,3.8537,3.8319,3.8262,3.8205,3.818,3.7421,3.7054,3.6957,3.63,3.5677,3.5183,3.5183,3.4464,3.3017,3.2376,3.169,3.0864,0.0,0.0,0.0,2.6833,2.6133,2.5555,2.547,2.4689,2.325,2.3359,0.0,2.0987,2.0877,2.0428,1.9633,2.0496,0.0,0.0,0.0,0.0,0.0,0.0,0.0,0.0,0.0,0.0,0.0,2.7822,2.8482,2.9923,3.1229,3.1872,3.169,3.2331,3.2331,3.1355,3.1796,3.1589,3.0343,3.0254,3.0317,3.0419,2.9616,2.9419,3.0842,3.1289,3.1813,3.2694,3.3219,3.3182,3.2581,3.2123,3.1588,3.0758,3.0808,3.1029,3.1267,3.2031,3.2526,3.2345,3.2489,3.2632,3.286,3.2874,3.2803,3.2816,3.2816,3.2803,3.2803,3.2874,3.2816,3.2955,3.3195,3.317,3.2853,3.2777,3.2365,3.143,3.0745,3.0199,3.9935,0.0,3.9454,3.9365,0.0,3.9312,3.9418,3.9747,3.9523,3.9697,4.0137,3.9847,3.9874,4.0004,3.9605,3.925,3.8942,3.8942,3.8748,3.8408,3.8391,3.8391,3.8351,3.7387,3.6923,3.686,3.5866,3.5212,3.4907,3.4893,3.4139,3.2662,3.2304,3.1502,3.0355,3.0032,2.938,2.8343,2.6945,2.6156,2.5989,2.5989,2.5535,2.4581,2.4398,0.0,0.0,0.0,0.0,0.0,0.0,0.0,0.0,0.0,0.0,2.23,2.2471,2.3309,2.4807,2.5516,2.6483,2.7926,2.8924,2.9649,3.0093,3.1187,3.1971,3.2114,3.2846,3.2945,3.2173,3.2475,3.2259,3.1172,3.1009,3.0934,3.057,3.0279,3.0305,3.0881,3.1679,3.2497,3.3104,3.343,3.3326,3.2764,3.2344,3.1843,3.1179,3.0979,3.1275,3.2272,3.2513,3.2789,3.2945,3.3171,3.3312,3.334,3.3564,3.3747,3.3775,3.3775,3.3761,3.3747,3.3536,3.3312,3.3312,3.3312,3.3269,3.3176,3.3115,3.2804,3.1898,3.1342,3.0829,3.937,3.9028,3.9028,3.9098,3.9152,3.9135,3.954,4.007,0.0,0.0,0.0,3.9851,4.005,4.0461,4.0023,3.9625,3.9298,3.9282,3.8974,3.8408,3.8391,3.8335,3.8148,3.6951,3.6322,3.6134,3.4957,3.4414,3.4414,3.4414,3.3687,3.2362,3.216,3.1355,2.9882,2.9297,2.8799,2.8367,2.6844,2.6118,2.632,2.633,2.6135,2.5734,2.5121,2.4491,2.3923,2.3233,2.2761,2.2524,2.251,2.2405,2.2245,2.1951,2.1878,2.2171,2.277,2.3521,2.4478,2.5735,2.6928,2.7869,2.9471,3.0367,3.0152,3.0895,3.1563,3.2245,3.2931,3.31,3.2632,3.2561,3.2273,3.1556,3.1482,3.111,3.0355,3.0672,3.0799,3.0573,3.1759,3.2685,3.2725,3.3117,3.3221,3.2686,3.2225,3.1915,3.1254,3.1185,3.1696,3.2891,3.3012,3.2931,3.3171,3.3241,3.3312,3.334,3.3733,3.4056,3.407,3.4084,3.4084,3.3972,3.3635,3.3382,3.3312,3.3312,3.3312,3.3312,3.3312,3.31,3.2472,3.2173,3.1707,3.8486,3.839,3.839,3.859,3.886,3.886,3.9115,3.954,3.9661,4.007,4.0662,3.947,3.9255,3.9709,3.8969,3.861,3.8553,3.857,3.8489,3.8408,3.8391,3.8091,3.7535,3.6768,3.6072,3.5514,3.4787,3.4414,3.4414,3.4414,3.3894,3.3087,3.2434,3.1294,2.9856,2.9022,2.8205,2.7369,2.6686,2.6096,2.542,2.542,2.5074,2.4315,2.422,2.3749,2.3012,2.2736,2.2586,2.247,2.2417,2.229,2.2318,2.1942,2.1768,2.1814,2.2618,2.3607,2.4702,2.5663,2.6764,2.8018,2.8566,2.9626,3.1563,3.2475,3.303,3.3171,3.3199,3.3016,3.2273,3.2228,3.195,3.1224,3.1061,3.0973,3.0823,3.0898,3.1143,3.1434,3.2189,3.2659,3.2659,3.2751,3.262,3.2045,3.1625,3.1153,3.1149,3.1556,3.23,3.3014,3.3283,3.3241,3.3241,3.3312,3.3241,3.3312,3.3424,3.3593,3.3607,3.3621,3.3593,3.3494,3.341,3.3326,3.3312,3.3312,3.3312,3.3312,3.3312,3.3241,3.3016,3.2708,3.2105,3.7796,3.7796,3.7796,3.7985,3.8343,3.8898,3.9044,3.8957,3.9276,3.9713,4.0137,3.9506,3.9259,3.9206,3.8914,3.8616,3.8391,3.8391,3.8205,3.7828,3.7844,3.7535,3.6845,3.6212,3.5706,3.5335,3.4721,3.4414,3.4414,3.4414,3.3825,3.2577,3.1429,3.0508,2.9792,2.9378,2.8791,2.7891,2.6707,2.5787,2.5223,2.5399,2.5503,2.5386,2.5219,2.5027,2.4762,2.3839,2.3196,2.3157,2.2612,2.2226,2.2016,2.1832,2.19,2.2422,2.2843,2.3867,2.5484,2.6588,2.7638,2.849,2.9229,3.0044,3.1176,3.1487,3.2177,3.3331,3.3301,3.3134,3.305,3.282,3.2395,3.1823,3.147,3.1211,3.1061,3.0986,3.1091,3.1378,3.1875,3.2215,3.2228,3.2241,3.2163,3.1836,3.1352,3.1048,3.1018,3.1516,3.2036,3.254,3.2643,3.2731,3.2931,3.3002,3.3086,3.3241,3.3593,3.3775,3.3817,3.3817,3.3831,3.3789,3.3578,3.334,3.334,3.3312,3.3312,3.3312,3.3312,3.3241,3.3016,3.2489,3.1836,3.6845,3.6845,3.6845,3.7131,3.7679,3.8717,3.8936,3.8535,3.875,3.9061,3.9295,3.9348,3.9222,3.9023,3.8931,3.86,3.8205,3.8164,3.7786,3.7207,3.7147,3.6829,3.6212,3.5642,3.535,3.5154,3.4668,3.4414,3.4428,3.4559,3.3902,3.2467,3.0958,3.0156,3.0156,3.0156,2.9725,2.8891,2.7389,2.6289,2.5728,2.6009,2.6408,2.6751,2.6404,2.6293,2.6483,2.5108,2.431,2.4196,2.3262,2.2765,2.2645,2.2438,2.2796,2.3653,2.3994,2.4864,2.6674,2.7859,2.8632,2.9024,2.9764,3.0331,3.0569,3.0503,3.1254,3.3043,3.3152,3.3111,3.3333,3.2982,3.2522,3.2133,3.1686,3.136,3.1061,3.0986,3.0986,3.1039,3.1483,3.1733,3.1718,3.1875,3.2006,3.1823,3.1352,3.1035,3.1044,3.1338,3.1835,3.2334,3.2293,3.23,3.2618,3.269,3.2915,3.3395,3.3902,3.4211,3.4351,3.4436,3.4436,3.4379,3.3786,3.3577,3.3634,3.3775,3.3817,3.3859,3.3888,3.3732,3.3531,3.2937,3.2132,3.5154,3.5154,3.5234,3.5755,3.6814,3.8001,3.8448,3.8375,3.8448,3.8448,3.8544,3.8504,3.8711,3.8914,3.8616,3.8075,3.7535,3.7476,3.7147,3.6569,3.6508,3.6134,3.5559,3.5429,3.5088,3.4578,3.4472,3.453,3.4462,3.4955,3.4739,3.3661,3.2107,3.121,3.121,3.1223,3.0885,3.0202,2.945,2.8407,2.7227,2.7173,2.725,2.7293,2.6918,2.664,2.674,2.6104,2.5802,2.5671,2.4856,2.4663,2.5329,2.4715,2.4715,2.5668,2.6491,2.7513,2.8637,2.911,2.928,2.9362,2.9447,2.9869,3.0504,3.0807,3.144,3.2555,3.2943,3.2893,3.2537,3.211,3.1694,3.136,3.114,3.1061,3.1026,3.0986,3.0986,3.0986,3.1522,3.1653,3.1378,3.1967,3.2346,3.1967,3.1535,3.1146,3.1047,3.1524,3.2302,3.3198,3.2887,3.2364,3.2657,3.2704,3.3193,3.3926,3.4125,3.4478,3.4801,3.4983,3.5127,3.4829,3.4182,3.3886,3.4528,3.4983,3.5001,3.4716,3.4759,3.4899,3.4882,3.4339,3.3458,3.5942,3.5898,3.5598,3.5663,3.6133,3.7157,3.7689,3.7801,3.7401,3.7637,3.827,3.7963,3.8093,3.8616,3.8075,3.7669,3.7358,3.7027,3.6461,3.5879,3.6179,3.6064,3.5442,3.5756,3.5653,3.5218,3.5404,3.5389,3.5136,3.4766,3.4339,3.3788,3.2249,3.1386,3.1386,3.1574,3.1468,3.1223,3.0688,3.0143,2.9515,2.84,2.7854,2.7843,2.7821,2.7897,2.781,2.7183,2.6829,2.674,2.5924,2.5552,2.6003,2.5643,2.5834,2.6829,2.7821,2.8528,2.897,2.925,2.9476,2.9671,2.9793,2.9997,3.0355,3.0975,3.1736,3.2369,3.267,3.2709,3.2592,3.2053,3.1635,3.1444,3.1209,3.1117,3.147,3.1496,3.1483,3.1509,3.1692,3.1784,3.1666,3.2189,3.2555,3.2372,3.2097,3.1785,3.1214,3.1785,3.2817,3.3712,3.3205,3.2979,3.3545,3.3795,3.414,3.4542,3.4787,3.4941,3.5096,3.5226,3.5226,3.518,3.4762,3.459,3.5026,3.5759,3.6077,3.5656,3.4943,3.4854,3.4854,3.43,3.3405,3.6168,3.6198,3.5893,3.5652,3.5544,3.6432,3.694,3.7058,3.6569,3.6951,3.7775,3.7515,3.767,3.8003,3.7642,3.7324,3.7079,3.6629,3.6148,3.5703,3.6141,3.609,3.5732,3.6069,3.6142,3.597,3.6114,3.6086,3.5652,3.4665,3.4062,3.3819,3.2577,3.1933,3.1921,3.2193,3.2275,3.2396,3.2,3.1663,3.1258,2.9834,2.8874,2.8697,2.895,2.9114,2.9114,2.8498,2.8144,2.8133,2.7205,2.6833,2.7104,2.6923,2.7216,2.8133,2.8851,2.93,2.93,2.9485,2.9735,2.9885,3.0132,3.0194,3.0316,3.1015,3.1553,3.1735,3.2147,3.2439,3.2881,3.2424,3.2097,3.2045,3.1679,3.1653,3.2019,3.2084,3.2071,3.2071,3.211,3.215,3.2306,3.2568,3.2712,3.2894,3.2777,3.2501,3.1778,3.2354,3.3357,3.4193,3.3741,3.3674,3.4194,3.408,3.4506,3.5091,3.5255,3.5325,3.5588,3.5672,3.5672,3.6009,3.5742,3.5775,3.5883,3.6528,3.6839,3.5991,3.5493,3.5266,3.5509,3.4681,3.4292,3.4691,3.5305,3.5645,3.5592,3.5204,3.6052,3.6461,3.6523,3.643,3.6461,3.677,3.7167,3.7446,3.7463,3.7446,3.7079,3.6505,3.6439,3.6333,3.621,3.6299,3.6343,3.6257,3.6286,3.6344,3.636,3.646,3.6316,3.6,3.5123,3.458,3.4337,3.3403,3.3114,3.3233,3.3208,3.3551,3.3727,3.3161,3.2698,3.2166,3.1464,3.0718,3.0157,3.0112,3.0078,3.0101,3.0045,3.0022,3.0033,2.9065,2.8984,2.9738,2.9076,2.8962,2.9818,3.0112,3.0112,3.0089,3.0089,3.0147,3.0181,3.0283,3.0204,3.0273,3.0871,3.1116,3.0604,3.1418,3.219,3.3238,3.2854,3.2515,3.2515,3.2594,3.2568,3.2646,3.2659,3.2646,3.2659,3.2659,3.2829,3.3339,3.3012,3.3104,3.33,3.3091,3.2776,3.282,3.3216,3.376,3.4294,3.4563,3.4606,3.3647,3.392,3.4407,3.4986,3.5634,3.5703,3.6445,3.6908,3.6838,3.6796,3.6655,3.6655,3.6838,3.6958,3.6916,3.6669,3.6613,3.655,3.6136,3.6314,3.5864,3.5142,3.4893,3.6182,3.5884,3.4651,3.5678,3.6216,3.6386,3.5977,3.6466,3.746,3.7443,3.7366,3.7352,3.7357,3.7243,3.6977,3.6566,3.631,3.6359,3.6751,3.6939,3.6983,3.7331,3.7535,3.752,3.752,3.725,3.6753,3.5991,3.5291,3.4733,3.3882,3.3556,3.3641,3.3725,3.3907,3.3992,3.3556,3.3116,3.2945,3.1901,3.1116,3.0937,3.0397,3.0216,3.0216,3.0216,3.0216,3.0216,2.984,2.984,3.0125,2.9852,2.984,3.0125,3.0216,3.0216,3.025,3.0537,3.0732,3.0732,3.0721,3.0698,3.0663,3.0696,3.0831,3.1448,3.176,3.2473,3.3,3.2623,3.206,3.214,3.2473,3.2881,3.3169,3.3273,3.3273,3.3273,3.326,3.3378,3.3561,3.3692,3.3862,3.4031,3.3914,3.3753,3.3749,3.3975,3.4136,3.4337,3.4511,3.4611,3.4633,3.4714,3.5115,3.5634,3.6166,3.6295,3.6794,3.6978,3.6894,3.688,3.6964,3.6978,3.695,3.695,3.6978,3.6978,3.6978,3.6915,3.6679,3.6457,3.6058,3.5497,3.4924,3.6173,3.5925,3.4715,3.5624,3.6195,3.6286,3.5872,3.6438,3.7464,3.7416,3.7316,3.7308,3.7507,3.7565,3.7511,3.6923,3.6722,3.6954,3.7389,3.7593,3.7665,3.8014,3.8202,3.8202,3.8202,3.7582,3.648,3.6149,3.5494,3.4454,3.3966,3.3725,3.3894,3.3992,3.416,3.4076,3.3907,3.3641,3.3313,3.2251,3.1484,3.1217,3.0578,3.0216,3.0216,3.0216,3.0216,3.0216,3.0216,3.0296,3.0445,3.0468,3.048,3.0468,3.0468,3.048,3.0503,3.0824,3.1008,3.1019,3.1008,3.0973,3.0767,3.0422,3.0769,3.1436,3.1613,3.1889,3.2203,3.21,3.2021,3.2269,3.2843,3.3404,3.3796,3.3835,3.3849,3.3849,3.3849,3.3862,3.3901,3.4188,3.4332,3.4397,3.4397,3.4397,3.4397,3.4397,3.4397,3.4397,3.4564,3.4825,3.4819,3.4955,3.5423,3.5957,3.6115,3.6462,3.6696,3.6802,3.688,3.6936,3.6964,3.6978,3.6978,3.6978,3.6978,3.6978,3.6978,3.6915,3.6601,3.6284,3.6045,3.5628,3.4982,3.5511,3.5698,3.5517,3.6112,3.633,3.6401,3.6315,3.6459,3.685,3.7099,3.7375,3.7492,3.7854,3.813,3.8015,3.7506,3.7549,3.7999,3.8101,3.813,3.813,3.8084,3.7962,3.7962,3.8127,3.6858,3.4868,3.5426,3.5087,3.3797,3.3725,3.3894,3.4076,3.416,3.4243,3.4314,3.4314,3.4076,3.3386,3.2673,3.1977,3.1383,3.0668,3.0306,3.0216,3.025,3.0296,3.0285,3.0308,3.0503,3.0893,3.095,3.0973,3.0882,3.0939,3.0962,3.0939,3.0973,3.1019,3.1019,3.1019,3.0836,3.0491,3.0296,3.0306,3.0566,3.0566,3.0476,3.0746,3.1604,3.2512,3.3262,3.3688,3.4228,3.4236,3.4288,3.4384,3.4345,3.4306,3.4371,3.4384,3.4371,3.4397,3.4397,3.4397,3.4397,3.4397,3.4397,3.4397,3.4468,3.4624,3.4764,3.4901,3.5036,3.553,3.6008,3.6018,3.6161,3.6347,3.6473,3.6416,3.6445,3.6655,3.6683,3.6978,3.6978,3.6978,3.6978,3.6978,3.6886,3.6601,3.6377,3.6298,3.6039,3.5536,3.6326,3.6363,3.6114,3.6707,3.6997,3.6997,3.6997,3.723,3.7607,3.7839,3.7926,3.7955,3.813,3.8202,3.8188,3.7999,3.8028,3.8173,3.8202,3.8202,3.8127,3.7567,3.7,3.6596,3.7014,3.6466,3.5114,3.5114,3.4868,3.423,3.4147,3.423,3.4327,3.4327,3.4314,3.4397,3.4397,3.4314,3.4063,3.3386,3.2686,3.1965,3.1282,3.0758,3.0227,3.0572,3.0755,3.0767,3.11,3.1215,3.1065,3.1019,3.0847,3.0514,3.0468,3.0468,3.0526,3.0813,3.1019,3.1019,3.1019,3.095,3.0744,3.0411,3.042,3.0847,3.1359,3.1524,3.1294,3.2251,3.2859,3.2661,3.37,3.4147,3.381,3.3725,3.3894,3.4314,3.4397,3.4397,3.441,3.441,3.4489,3.445,3.445,3.4476,3.445,3.4515,3.4397,3.4397,3.4561,3.4686,3.4969,3.5048,3.5254,3.5595,3.5723,3.5717,3.5927,3.5995,3.5939,3.5995,3.6206,3.6431,3.674,3.6838,3.674,3.6838,3.681,3.671,3.6573,3.6401,3.6225,3.5588,3.5468,3.6484,3.6957,3.6974,3.7705,3.8014,3.797,3.7738,3.7868,3.8159,3.8202,3.8202,3.8202,3.8202,3.8037,3.772,3.772,3.7553,3.7323,3.7644,3.7886,3.8037,3.7323,3.6215,3.548,3.6042,3.5655,3.4384,3.4716,3.4703,3.4217,3.4314,3.4397,3.4397,3.4397,3.4397,3.4397,3.4397,3.4397,3.423,3.3725,3.3043,3.2314,3.1637,3.0855,3.0122,3.079,3.1203,3.11,3.1329,3.1306,3.1042,3.1008,3.0859,3.0618,3.0526,3.0537,3.0549,3.0847,3.1019,3.1019,3.1019,3.0905,3.0721,3.0365,3.0499,3.0847,3.1181,3.1359,3.1116,3.1913,3.2426,3.2401,3.2993,3.3543,3.3386,3.3386,3.3725,3.4269,3.4607,3.4607,3.4476,3.4881,3.4881,3.4816,3.4907,3.5038,3.5025,3.4927,3.4849,3.4763,3.4585,3.4881,3.5157,3.5194,3.5109,3.5245,3.5329,3.5356,3.5531,3.5475,3.5433,3.5489,3.5644,3.5714,3.5981,3.6065,3.6051,3.6276,3.6529,3.6129,3.5878,3.5931,3.5788,3.4739,3.4881,3.6099,3.6896,3.7559,3.8396,3.8741,3.8789,3.8279,3.8005,3.8142,3.8052,3.8052,3.8052,3.7962,3.7553,3.6936,3.6844,3.6517,3.6108,3.636,3.6936,3.7337,3.6922,3.5816,3.462,3.5156,3.4677,3.3484,3.4301,3.4538,3.3882,3.4147,3.4397,3.4314,3.4397,3.4397,3.4397,3.4397,3.4397,3.4397,3.3725,3.2993,3.224,3.1601,3.0702,2.9788,3.0641,3.1329,3.1146,3.1157,3.1077,3.1019,3.1019,3.0996,3.0859,3.0939,3.0824,3.0882,3.0824,3.0847,3.0778,3.0813,3.0767,3.0354,3.0262,3.0216,3.0306,3.0487,3.042,3.0557,3.105,3.1649,3.2052,3.2562,3.3045,3.3462,3.3573,3.3815,3.4334,3.4842,3.5077,3.4567,3.5338,3.5495,3.543,3.5534,3.5652,3.5547,3.5266,3.5531,3.524,3.4677,3.4815,3.5117,3.547,3.5391,3.5176,3.53,3.5334,3.5218,3.5194,3.5321,3.5335,3.5278,3.5278,3.5517,3.5897,3.5967,3.6121,3.5953,3.5437,3.5414,3.5669,3.5751,3.5221,3.5252,3.5503,3.5703,3.6089,3.6823,3.7358,3.743,3.7115,3.7444,3.7897,3.7491,3.7246,3.7246,3.7246,3.6766,3.6122,3.5949,3.5869,3.5548,3.5169,3.5196,3.5507,3.5803,3.5074,3.381,3.4301,3.4204,3.3398,3.3725,3.381,3.3713,3.381,3.3979,3.416,3.416,3.423,3.4397,3.4397,3.4397,3.4314,3.381,3.283,3.1883,3.1532,3.059,2.9166,2.9665,3.0836,3.1961,3.1364,3.1019,3.0985,3.0973,3.0824,3.0526,3.0445,3.0273,3.0067,3.0239,3.0262,2.9986,3.0204,3.0365,3.025,3.0216,3.0216,3.0306,3.0589,3.0921,3.0893,3.107,3.1151,3.105,3.2369,3.3819,3.4276,3.4341,3.4088,3.4347,3.458,3.4666,3.4999,3.5338,3.5534,3.5404,3.5482,3.5521,3.5417,3.5221,3.5279,3.4971,3.4627,3.4821,3.5099,3.5576,3.5683,3.5367,3.5367,3.5515,3.5283,3.5032,3.5386,3.5789,3.5545,3.5503,3.6121,3.6655,3.6487,3.5967,3.6093,3.5958,3.5902,3.6045,3.6025,3.446,3.4678,3.4956,3.5271,3.5571,3.6262,3.6674,3.6642,3.6333,3.6466,3.6872,3.661,3.6346,3.636,3.636,3.5883,3.5156,3.5087,3.4841,3.4415,3.405,3.3894,3.4063,3.4729,3.4494,3.3326,3.3581,3.3569,3.3326,3.3326,3.3471,3.3543,3.3628,3.381,3.4076,3.4076,3.416,3.4314,3.4397,3.4397,3.4314,3.4063,3.3148,3.2203,3.1756,3.0985,2.9866,2.9389,3.0021,3.126,3.1123,3.0686,3.0675,3.0675,3.0526,3.0227,3.0216,3.0021,2.9653,2.9768,2.9653,2.9332,2.9458,2.9538,2.9607,2.9757,2.9917,2.9996,3.0539,3.0729,3.0812,3.1023,3.1168,3.1333,3.2674,3.3821,3.4079,3.3532,3.3763,3.4108,3.4354,3.4471,3.4901,3.5495,3.5639,3.5574,3.5861,3.5691,3.543,3.5142,3.5031,3.491,3.4743,3.4802,3.5049,3.5478,3.576,3.5474,3.5759,3.5837,3.5535,3.5199,3.5372,3.5775,3.57,3.584,3.6318,3.6501,3.5981,3.5845,3.6178,3.6318,3.6107,3.6065,3.6121,3.3065,3.3588,3.4488,3.505,3.5431,3.6085,3.6222,3.6169,3.5599,3.5507,3.5722,3.5548,3.5467,3.5467,3.5467,3.5006,3.423,3.4217,3.381,3.3484,3.3253,3.3253,3.3326,3.4056,3.3972,3.3253,3.3081,3.3167,3.3167,3.3326,3.3326,3.3398,3.3556,3.3725,3.3907,3.3992,3.416,3.423,3.4314,3.423,3.4063,3.3869,3.3076,3.1957,3.1477,3.127,3.0441,2.9665,2.9458,3.0882,3.0422,3.0216,3.0193,3.0239,3.0227,3.0227,3.0193,2.9986,2.9561,2.9504,2.9355,2.8953,2.8907,2.8861,2.9171,2.9527,2.9745,2.9757,2.9986,3.0295,3.0376,3.0906,3.1262,3.1577,3.2454,3.2616,3.2386,3.2264,3.2896,3.3979,3.4161,3.4135,3.4808,3.5539,3.6309,3.5443,3.5691,3.5574,3.5325,3.509,3.5214,3.5502,3.5181,3.4803,3.5143,3.5463,3.5656,3.5705,3.6175,3.6353,3.5989,3.5742,3.5559,3.5691,3.6051,3.6079,3.5953,3.5826,3.5705,3.5845,3.6332,3.6178,3.5939,3.6037,3.6093,3.3039,3.2738,3.3325,3.3433,3.3321,3.4071,3.4645,3.4857,3.4495,3.4782,3.5304,3.4937,3.4703,3.462,3.462,3.4217,3.3484,3.3484,3.324,3.3167,3.3081,3.3081,3.3167,3.3449,3.3351,3.3081,3.3081,3.3081,3.3167,3.3167,3.3167,3.3167,3.324,3.3326,3.3569,3.3654,3.3654,3.3894,3.4076,3.3894,3.3458,3.3091,3.2401,3.1194,3.0217,3.0003,3.0088,2.9297,2.9286,2.9963,3.0055,3.0021,3.017,3.025,3.0273,3.0296,3.0262,2.9883,2.9251,2.9619,2.9665,2.8987,2.9401,2.9894,2.9894,2.9963,3.0067,3.0067,3.0158,3.0319,3.0365,3.0732,3.0985,3.1087,3.1447,3.1812,3.1769,3.2354,3.3046,3.3354,3.3217,3.3282,3.4743,3.4792,3.5115,3.5253,3.5338,3.5338,3.5168,3.4959,3.5096,3.5397,3.5487,3.5182,3.5395,3.5751,3.5993,3.6111,3.6522,3.6744,3.6382,3.629,3.6178,3.6346,3.6669,3.6515,3.6206,3.6388,3.6431,3.6487,3.6459,3.6431,3.6374,3.629,3.6318,3.237,3.2207,3.2641,3.2658,3.2549,3.3208,3.3591,3.3743,3.3617,3.3836,3.4243,3.3966,3.3823,3.381,3.3823,3.3496,3.324,3.3081,3.3081,3.3081,3.3081,3.3081,3.3081,3.3081,3.3081,3.3081,3.3081,3.3081,3.3081,3.3093,3.3081,3.3081,3.3081,3.3227,3.3398,3.3386,3.3569,3.3725,3.381,3.3725,3.33,3.3189,3.2587,3.1327,3.0156,2.9711,3.0089,3.0032,3.0101,3.0434,3.0549,3.0388,3.0296,3.0445,3.0572,3.0618,3.0847,3.0595,3.0204,3.0204,3.0262,2.9481,2.9952,3.0112,3.0308,3.0422,3.0595,3.0641,3.079,3.095,3.095,3.1111,3.1134,3.1042,3.1298,3.1666,3.2007,3.2226,3.2695,3.3007,3.2859,3.3328,3.3986,3.4469,3.4637,3.4966,3.5325,3.5299,3.4816,3.462,3.4664,3.4897,3.5296,3.5532,3.5643,3.6006,3.6484,3.6587,3.6744,3.6915,3.6782,3.6796,3.6894,3.695,3.6908,3.6936,3.674,3.6978,3.6978,3.6852,3.6782,3.6866,3.6894,3.6782,3.6922,3.1661,3.1761,3.2213,3.23,3.2388,3.2835,3.3093,3.3081,3.3068,3.3205,3.3167,3.3081,3.324,3.3167,3.3167,3.3167,3.3081,3.3081,3.3081,3.3081,3.3081,3.3081,3.3081,3.3081,3.3081,3.3081,3.3081,3.3106,3.3206,3.3131,3.3169,3.3181,3.3093,3.3167,3.3313,3.3398,3.3398,3.3569,3.3641,3.3275,3.3104,3.3288,3.2846,3.1834,3.1082,3.0468,3.0675,3.0824,3.1088,3.1157,3.1547,3.1249,3.0847,3.0824,3.1123,3.1134,3.1456,3.1283,3.0905,3.0962,3.0882,3.0399,3.0468,3.0491,3.0618,3.0882,3.1077,3.1226,3.1375,3.1605,3.1743,3.1674,3.1685,3.1662,3.172,3.2146,3.2347,3.1872,3.2207,3.3071,3.2843,3.2877,3.3958,3.461,3.4671,3.4783,3.5168,3.5273,3.4829,3.4497,3.4698,3.5037,3.5584,3.6302,3.6593,3.6688,3.709,3.727,3.733,3.7231,3.7175,3.7021,3.7021,3.6993,3.6978,3.6978,3.6978,3.6978,3.6978,3.6978,3.6978,3.6978,3.6999,3.7153,3.7265,3.1661,3.1749,3.195,3.2038,3.2113,3.255,3.281,3.281,3.2982,3.3081,3.3081,3.3081,3.3081,3.3081,3.3081,3.3081,3.3081,3.3081,3.3081,3.3081,3.3081,3.3081,3.3081,3.3081,3.3081,3.3081,3.3093,3.3269,3.3458,3.3357,3.3269,3.3533,3.3282,3.3167,3.3167,3.3167,3.324,3.3351,3.3449,3.3032,3.2313,3.2311,3.2228,3.1572,3.1332,3.1329,3.1433,3.1547,3.1639,3.1651,3.1731,3.1685,3.1582,3.1628,3.1674,3.1674,3.1812,3.1754,3.1398,3.149,3.1352,3.1111,3.1272,3.149,3.1536,3.1593,3.1731,3.1731,3.1766,3.1823,3.1766,3.1915,3.1812,3.18,3.1869,3.1976,3.2086,3.203,3.2311,3.3484,3.2935,3.2551,3.3931,3.4804,3.4827,3.5011,3.544,3.5583,3.5301,3.5107,3.5094,3.562,3.6174,3.6936,3.7564,3.7689,3.7854,3.8,3.8008,3.7807,3.7639,3.7217,3.7091,3.7344,3.7189,3.6978,3.6978,3.6993,3.6978,3.6978,3.6929,3.6957,3.692,3.6898,3.6726,3.1661,3.1761,3.1937,3.205,3.2125,3.2537,3.2711,3.2723,3.2995,3.3081,3.3081,3.3081,3.3081,3.3081,3.3081,3.3081,3.3081,3.3081,3.3081,3.3081,3.3081,3.3081,3.3081,3.3081,3.3081,3.3081,3.3106,3.3206,3.3432,3.3219,3.3257,3.3319,3.3169,3.3081,3.3081,3.3081,3.3093,3.3217,3.3419,3.3208,3.235,3.2352,3.1889,3.1646,3.1403,3.1445,3.1812,3.2064,3.2133,3.219,3.242,3.2523,3.2535,3.2489,3.2408,3.2236,3.2363,3.2454,3.2225,3.2443,3.2431,3.2294,3.242,3.2535,3.2546,3.2558,3.2489,3.2523,3.2546,3.2546,3.2581,3.2512,3.2546,3.2546,3.2523,3.2684,3.2889,3.2695,3.329,3.4002,3.3708,3.3753,3.4485,3.5035,3.4984,3.5277,3.5771,3.5823,3.5875,3.5784,3.5768,3.607,3.659,3.7136,3.7816,3.8098,3.8463,3.8671,3.8599,3.8415,3.8299,3.7962,3.7948,3.8145,3.7793,3.7259,3.7021,3.7049,3.7021,3.7035,3.7105,3.7083,3.6828,3.6628,3.6609,3.1661,3.1749,3.1849,3.195,3.2025,3.2376,3.255,3.2636,3.281,3.2909,3.2995,3.2995,3.2982,3.3068,3.3081,3.3081,3.3081,3.3081,3.3081,3.3081,3.3081,3.3081,3.3081,3.3081,3.3081,3.3081,3.3081,3.3131,3.3332,3.3156,3.3131,3.3269,3.3219,3.3081,3.3081,3.3244,3.3194,3.3407,3.3482,3.3667,3.3162,3.2406,3.193,3.1785,3.1296,3.1334,3.1728,3.2161,3.2419,3.2544,3.2872,3.3235,3.3269,3.3281,3.3086,3.281,3.3063,3.3235,3.3235,3.3189,3.3097,3.3028,3.3212,3.3258,3.3224,3.312,3.3201,3.3281,3.3235,3.3178,3.312,3.3235,3.3224,3.3212,3.3289,3.3434,3.3813,3.3938,3.4086,3.4485,3.4401,3.4755,3.5278,3.5747,3.5849,3.6225,3.6638,3.6612,3.6638,3.6623,3.6622,3.6645,3.6937,3.7289,3.7779,3.8206,3.8776,3.9312,3.9117,3.8824,3.8877,3.8819,3.8819,3.8678,3.8271,3.7765,3.7442,3.7358,3.7653,3.7737,3.7484,3.7391,3.7376,3.7257,3.7232,3.1661,3.1661,3.1749,3.1749,3.1749,3.2025,3.2125,3.2113,3.2388,3.2487,3.2562,3.2723,3.281,3.2797,3.2982,3.3081,3.3081,3.3081,3.3081,3.3081,3.3081,3.3081,3.3081,3.3081,3.3144,3.3181,3.3156,3.3382,3.3596,3.337,3.3395,3.3633,3.3445,3.3131,3.3345,3.3633,3.3796,3.3708,3.3477,3.264,3.1529,3.0844,3.0844,3.0997,3.1328,3.1537,3.1672,3.2096,3.2453,3.2498,3.3001,3.3281,3.3281,3.3281,3.3281,3.3224,3.3258,3.3281,3.3281,3.3281,3.3281,3.3281,3.3281,3.3281,3.3281,3.3292,3.3292,3.3281,3.3315,3.3419,3.3465,3.3373,3.3327,3.3396,3.3511,3.383,3.4245,3.4726,3.4975,3.5576,3.5784,3.5722,3.5924,3.6382,3.6836,3.7219,3.7482,3.7404,3.7326,3.726,3.7545,3.7659,3.7553,3.7807,3.8209,3.8553,3.9015,3.9814,3.969,3.9326,3.9438,3.9479,3.9156,3.8945,3.865,3.8636,3.8636,3.8622,3.8636,3.844,3.8173,3.8084,3.8131,3.7993,3.7785,3.1661,3.1661,3.1661,3.1661,3.1761,3.1937,3.205,3.2038,3.2313,3.2412,3.2512,3.2661,3.281,3.2896,3.3081,3.3081,3.3081,3.3081,3.3081,3.3093,3.3093,3.3093,3.3081,3.3106,3.3181,3.3421,3.3596,3.3897,3.4022,3.3909,3.3822,3.4223,3.4135,3.4073,3.3909,3.4211,3.4336,3.423,3.3832,3.2803,3.1616,3.1048,3.0874,3.0895,3.11,3.1289,3.1618,3.2117,3.242,3.2521,3.2958,3.3281,3.3281,3.3281,3.3281,3.3281,3.3281,3.3281,3.3281,3.3292,3.3315,3.3292,3.3292,3.3281,3.3281,3.3315,3.3442,3.3683,3.3694,3.3798,3.4039,3.4142,3.4142,3.4119,3.3981,3.4208,3.4591,3.5153,3.5661,3.6395,3.7017,3.6796,3.6718,3.7064,3.7232,3.7062,3.7397,3.7611,3.7533,3.7416,3.7965,3.8655,3.8549,3.8456,3.8925,3.9264,3.9445,4.0034,4.0306,4.0082,4.0167,4.0083,3.9774,3.9788,3.9859,3.9859,3.9928,3.9744,3.9626,3.9236,3.8861,3.8837,3.8783,3.8297,3.8048,3.1661,3.1661,3.1661,3.1661,3.1749,3.1849,3.1937,3.195,3.2125,3.2225,3.2337,3.2475,3.2636,3.2909,3.2909,3.2909,3.2995,3.2982,3.3081,3.3093,3.3219,3.3307,3.332,3.3258,3.3281,3.3717,3.3064,3.3563,3.4082,3.4214,3.4139,3.4635,3.4099,3.4342,3.4635,3.476,3.4703,3.4092,3.3517,3.248,3.1353,3.1122,3.0856,3.0671,3.0692,3.0806,3.1208,3.171,3.1902,3.2015,3.2443,3.2656,3.2757,3.2857,3.2958,3.3069,3.3069,3.3384,3.3465,3.3522,3.3465,3.3465,3.3488,3.3602,3.3729,3.3602,3.3671,3.4153,3.4199,3.4429,3.467,3.475,3.467,3.4636,3.467,3.4855,3.5086,3.5588,3.6069,3.6563,3.7245,3.7751,3.772,3.7928,3.7723,3.7121,3.7222,3.7748,3.779,3.7751,3.8122,3.874,3.8802,3.8772,3.9181,3.9598,3.9848,4.0267,4.0555,4.0658,4.0659,4.0603,4.0407,4.0575,4.0786,4.0575,4.0266,4.042,4.0499,4.0067,3.969,3.9521,3.9368,3.8908,3.8519,3.1661,3.1661,3.1661,3.1661,3.1661,3.1749,3.1661,3.1761,3.1749,3.1761,3.195,3.2038,3.2313,3.2524,3.2673,3.2748,3.2798,3.2723,3.2947,3.3208,3.3558,3.352,3.3378,3.3149,3.3167,3.3196,3.3047,3.3347,3.3707,3.405,3.4237,3.4529,3.4139,3.4151,3.447,3.4854,3.4209,3.3375,3.2497,3.1545,3.0567,3.0297,3.0193,3.0193,3.0099,3.0099,3.0203,3.0795,3.1084,3.1197,3.1721,3.1936,3.2037,3.2331,3.2432,3.2533,3.287,3.3231,3.3436,3.373,3.3935,3.3947,3.3993,3.4119,3.436,3.413,3.4257,3.4636,3.4716,3.4796,3.4865,3.4831,3.5049,3.5095,3.5187,3.5363,3.555,3.5954,3.6338,3.6828,3.7517,3.8341,3.8875,3.9058,3.8869,3.8345,3.8185,3.8704,3.8385,3.8321,3.8259,3.8555,3.8753,3.897,3.9352,3.9878,4.0507,4.084,4.1002,4.1022,4.0854,4.0912,4.1137,4.0924,4.1036,4.0912,4.0814,4.1042,4.1114,4.0773,4.0491,4.0168,4.0097,3.9886,3.9409,2.9886,2.9886,2.9886,3.0543,3.1673,3.1003,3.1104,3.1572,3.1092,3.1193,3.1862,3.2062,3.2409,3.2717,3.2916,3.3088,3.3424,3.3473,3.3232,3.2998,3.3077,3.2863,3.2695,3.3023,3.3308,3.3515,3.3717,3.4348,3.5404,3.4137,3.421,3.4305,3.4066,3.4364,3.4688,3.4282,3.3354,3.2587,3.179,3.1084,3.0193,2.9994,2.9994,2.9994,2.9994,2.9994,3.0099,3.0588,3.0681,3.0888,3.1311,3.1414,3.1516,3.1823,3.1924,3.1969,3.2474,3.2878,3.3149,3.3651,3.413,3.4463,3.4509,3.4613,3.4888,3.4601,3.4773,3.506,3.5256,3.5301,3.5657,3.5703,3.5761,3.5715,3.5753,3.5802,3.6062,3.6273,3.6692,3.7175,3.8386,3.9538,3.994,4.0275,3.9953,3.9607,3.9542,3.9477,3.9277,3.9133,3.9194,3.932,3.964,3.9992,4.0404,4.0873,4.1369,4.1491,4.1537,4.1541,4.1545,4.1868,4.2008,4.1681,4.1383,4.1341,4.1411,4.1797,4.1601,4.1039,4.0786,4.0617,4.0659,4.0814,4.0334,2.8811,2.8724,2.8997,2.9676,3.0656,3.0079,3.017,3.0633,3.0453,3.0738,3.1621,3.1747,3.1829,3.2186,3.2225,3.2331,3.2487,3.2546,3.2394,3.2253,3.2123,3.2132,3.2309,3.2529,3.3168,3.3825,3.3898,3.4294,3.4576,3.3369,3.3429,3.3801,3.397,3.3813,3.4021,3.3289,3.2286,3.1779,3.1176,3.0888,2.9994,2.9994,2.9994,2.9994,2.9994,2.9994,3.0099,3.0287,3.0495,3.0588,3.0806,3.1002,3.1105,3.1208,3.1322,3.1576,3.193,3.2267,3.2746,3.3492,3.4357,3.4869,3.4955,3.5118,3.5164,3.5129,3.5233,3.5657,3.5761,3.5887,3.6266,3.6151,3.6105,3.6013,3.6025,3.6098,3.6229,3.6505,3.698,3.744,3.8307,3.8465,3.9246,3.9436,4.0223,4.0109,4.0474,4.0396,4.0305,4.0232,4.0407,4.0628,4.1003,4.1305,4.1645,4.1911,4.2083,4.2027,4.2116,4.2317,4.2374,4.264,4.2626,4.2275,4.1957,4.1923,4.2139,4.2636,4.2044,4.1095,4.1109,4.1278,4.1376,4.146,4.0938,2.895,2.8822,2.9504,2.9448,2.8916,2.8795,2.8828,2.9231,2.9783,3.0434,3.088,3.0915,3.0751,3.0652,3.0949,3.1113,3.1233,3.1102,3.0994,3.1214,3.1627,3.2097,3.2355,3.2562,3.2735,3.296,3.2881,3.2803,3.2911,3.2283,3.2521,3.2689,3.2488,3.2286,3.3001,3.2185,3.1575,3.1483,3.0484,3.0193,2.9994,2.9994,2.9994,2.9994,2.9994,2.9994,2.9994,3.0099,3.0193,3.0193,3.0193,3.0297,3.0297,3.0703,3.0795,3.0827,3.1672,3.2325,3.2973,3.3981,3.4575,3.5106,3.5335,3.555,3.5933,3.5864,3.5646,3.6036,3.614,3.6174,3.6266,3.6266,3.6266,3.6266,3.6266,3.6266,3.6363,3.6472,3.6893,3.7358,3.646,3.6062,3.7296,3.8361,3.9827,4.0556,4.1067,4.118,4.1057,4.1221,4.1359,4.1895,4.2194,4.2175,4.2357,4.2565,4.2711,4.2654,4.2781,4.2992,4.3006,4.3062,4.295,4.2725,4.2733,4.281,4.3124,4.3541,4.2923,4.2392,4.2036,4.2093,4.2177,4.1952,4.1303,2.7671,2.756,2.7874,2.7813,2.7638,2.8317,2.871,2.9121,2.9509,3.0002,3.0546,3.0667,3.1053,3.1244,3.1214,3.1294,3.144,3.1946,3.1946,3.0888,3.123,3.1286,3.1571,3.1971,3.2252,3.2474,3.2224,3.2388,3.3162,3.1902,3.1662,3.179,3.1208,3.0795,3.0899,3.0588,3.0484,3.0495,3.0193,2.9994,2.9994,2.9994,2.9994,2.9994,2.9994,2.9994,2.9994,2.9994,2.9994,2.9994,2.9994,2.9994,2.9994,3.0297,3.0297,3.0391,3.0958,3.1411,3.2081,3.2844,3.4087,3.4912,3.5474,3.5722,3.6088,3.614,3.6162,3.6208,3.6266,3.6266,3.6266,3.6266,3.6266,3.6266,3.6266,3.6266,3.6375,3.6375,3.6557,3.7062,3.6791,3.6841,3.7572,3.8135,3.9398,4.0339,4.0759,4.1167,4.1149,4.1775,4.2101,4.2982,4.3424,4.3202,4.3059,4.33,4.3469,4.354,4.3694,4.3919,4.3849,4.3596,4.3652,4.361,4.3708,4.3807,4.3934,4.4012,4.4075,4.3828,4.3132,4.2725,4.2683,4.2102,4.1243,2.7148,2.7051,2.7344,2.7363,2.7329,2.7773,2.8473,2.9136,2.9255,2.9757,3.0381,3.054,3.0726,3.1084,3.1272,3.1272,3.1293,3.1524,3.1531,3.0601,3.0796,3.0826,3.0987,3.134,3.1874,3.207,3.2287,3.2463,3.2287,3.1392,3.1021,3.0874,3.0255,3.0203,3.0088,3.0099,3.0099,3.0099,2.9994,2.9994,2.9994,2.9994,2.9994,2.9994,2.9994,2.9994,2.9994,2.9994,3.0005,3.0015,3.0015,3.0015,3.0015,3.0015,3.0005,3.0129,3.0615,3.1174,3.2027,3.242,3.3594,3.4436,3.5046,3.5598,3.5927,3.6111,3.6231,3.6254,3.6266,3.6266,3.6266,3.6266,3.6266,3.6266,3.6266,3.6266,3.6266,3.6266,3.6363,3.686,3.6767,3.7218,3.7715,3.8391,3.8995,3.9786,4.0486,4.0767,4.1209,4.1714,4.235,4.323,4.3918,4.361,4.3645,4.3985,4.4214,4.4383,4.4411,4.4411,4.4355,4.4059,4.4284,4.4411,4.4228,4.4144,4.4284,4.4355,4.427,4.4059,4.3638,4.3343,4.3202,4.2536,4.1747,2.7441,2.7207,2.7939,2.8037,2.7656,2.7447,2.7961,2.9075,2.9086,2.9599,3.0422,3.0432,3.0316,2.9895,2.9862,2.9944,3.0076,3.0013,2.9984,2.9872,3.0214,3.0499,3.0943,3.1185,3.1532,3.1774,3.1819,3.1443,3.1075,3.076,3.0482,3.0335,2.9976,2.998,3.0023,3.0139,3.0087,3.0036,2.9994,2.9994,2.9994,2.9994,2.9994,2.9994,2.9994,3.0056,3.0067,3.0056,3.0098,3.0108,3.0108,3.0087,3.0067,3.0056,3.0046,3.0305,3.0977,3.164,3.2178,3.2467,3.2849,3.3679,3.458,3.5146,3.5488,3.5817,3.6048,3.6157,3.6157,3.6266,3.6266,3.6266,3.6266,3.6266,3.6266,3.6266,3.6266,3.6266,3.6266,3.631,3.5975,3.6157,3.68,3.7551,3.8475,3.8969,3.9594,3.9938,4.0422,4.1093,4.18,4.2972,4.3488,4.3831,4.3981,4.4177,4.4331,4.4425,4.4425,4.4411,4.4411,4.4425,4.4425,4.4425,4.4425,4.4425,4.4425,4.4425,4.4397,4.4158,4.3933,4.3933,4.3793,4.3455,4.2901,2.8037,2.7959,2.8193,2.8213,2.8154,2.8291,2.8545,2.8955,2.8975,2.9461,3.0254,3.0264,3.0359,3.0488,3.0518,3.0293,3.0244,3.0273,3.0225,3.0225,3.0254,3.0649,3.0918,3.0993,3.1142,3.1147,3.0977,3.0747,3.0757,3.0468,3.0349,3.0318,3.0042,3.0105,3.0161,3.0374,3.0188,3.016,3.0129,3.0139,3.0108,3.0118,3.0108,3.0118,3.0129,3.0232,3.0408,3.0212,3.0336,3.0812,3.0615,3.0594,3.0977,3.0977,3.0977,3.0998,3.1288,3.1516,3.1774,3.2075,3.2415,3.2765,3.3567,3.4256,3.4714,3.5268,3.5598,3.5829,3.6157,3.6266,3.6266,3.6266,3.6266,3.6266,3.6266,3.6266,3.6266,3.6266,3.6266,3.6174,3.5841,3.6015,3.6564,3.7168,3.8025,3.8301,3.8767,3.9338,3.992,4.0638,4.1504,4.2602,4.3266,4.3706,4.3933,4.4116,4.4298,4.4425,4.4425,4.4453,4.4537,4.4523,4.4453,4.4551,4.4762,4.4635,4.4425,4.4467,4.4593,4.4439,4.4256,4.434,4.4326,4.3933,4.3652,2.8301,2.8301,2.8301,2.8389,2.8603,2.8994,2.9258,2.9394,2.9424,2.9834,3.042,3.0459,3.0625,3.081,3.083,3.0723,3.0518,3.0654,3.0674,3.0635,3.0752,3.0897,3.0879,3.0898,3.0966,3.0762,3.0664,3.0718,3.0581,3.0399,3.0366,3.0448,3.0289,3.0227,3.0285,3.0591,3.0586,3.056,3.0477,3.0543,3.0512,3.0501,3.0532,3.0491,3.0491,3.0698,3.0884,3.0594,3.0895,3.1309,3.1029,3.1071,3.135,3.135,3.1681,3.1702,3.1723,3.1992,3.2302,3.2333,3.2344,3.2375,3.2891,3.3335,3.4054,3.4714,3.5157,3.5488,3.5938,3.6266,3.6266,3.6266,3.6266,3.6266,3.6266,3.6266,3.6266,3.6266,3.6254,3.6231,3.6241,3.6284,3.6614,3.7106,3.7874,3.8841,3.946,3.987,4.0252,4.08,4.1558,4.2439,4.3155,4.3692,4.3854,4.4045,4.427,4.4425,4.4425,4.4481,4.4607,4.486,4.5001,4.5127,4.5268,4.5099,4.4931,4.4804,4.4832,4.4692,4.4565,4.4523,4.4467,4.4228,4.4003,2.8301,2.8301,2.832,2.8613,2.9004,2.9434,2.9844,3.0225,3.0215,3.0478,3.082,3.0879,3.0859,3.0898,3.0889,3.0889,3.0791,3.0859,3.0879,3.0879,3.0859,3.0898,3.0898,3.0898,3.0898,3.0898,3.085,3.0742,3.0732,3.0603,3.0482,3.0576,3.0284,3.0187,3.0399,3.0731,3.0901,3.087,3.1131,3.1292,3.1267,3.1309,3.1381,3.1309,3.1288,3.135,3.1391,3.1391,3.1412,3.1464,3.1454,3.1464,3.1578,3.164,3.2075,3.225,3.2219,3.2416,3.2654,3.2706,3.2654,3.2664,3.2727,3.2841,3.3501,3.4166,3.4714,3.5157,3.5598,3.6048,3.6157,3.6266,3.6266,3.6266,3.6266,3.6266,3.6266,3.6266,3.6254,3.6243,3.6294,3.6375,3.6707,3.7204,3.7697,3.905,3.9943,4.0317,4.0657,4.101,4.1991,4.2644,4.297,4.3565,4.3882,4.4102,4.4312,4.4425,4.4481,4.4706,4.4973,4.5296,4.5619,4.5689,4.5745,4.5703,4.5577,4.5464,4.5296,4.5099,4.4945,4.4734,4.4607,4.4621,4.4369,2.8301,2.833,2.8633,2.9014,2.9443,2.9863,3.0303,3.0713,3.0723,3.0771,3.0879,3.0898,3.0898,3.0898,3.0898,3.0898,3.0898,3.0898,3.0898,3.0889,3.0898,3.0898,3.0898,3.0898,3.0898,3.0898,3.0898,3.0898,3.085,3.0742,3.0684,3.077,3.0522,3.0522,3.0625,3.085,3.1075,3.1085,3.1615,3.1696,3.1578,3.1433,3.1381,3.1422,3.1443,3.165,3.1671,3.1588,3.1909,3.2199,3.1992,3.2095,3.2375,3.2375,3.2489,3.2664,3.2623,3.2737,3.282,3.2861,3.2758,3.2727,3.2727,3.2727,3.2944,3.3614,3.4278,3.4714,3.5256,3.5708,3.6157,3.6157,3.6266,3.6266,3.6266,3.6266,3.6266,3.6266,3.6266,3.6266,3.6266,3.6472,3.6785,3.7346,3.7725,3.8546,3.9572,4.0236,4.0828,4.1367,4.2806,4.3479,4.2944,4.3327,4.3784,4.4186,4.4411,4.4664,4.4818,4.5057,4.538,4.5914,4.6378,4.6223,4.6181,4.6237,4.6251,4.6111,4.5928,4.5619,4.5535,4.5408,4.5493,4.5535,4.5057,2.8301,2.834,2.875,2.9287,2.9834,3.0098,3.0459,3.084,3.0898,3.0898,3.0898,3.0898,3.0898,3.0898,3.0898,3.0898,3.0898,3.0898,3.0898,3.0898,3.0898,3.0898,3.0898,3.0898,3.0898,3.0898,3.0898,3.0898,3.0898,3.0879,3.085,3.085,3.0827,3.0718,3.0718,3.1072,3.1167,3.1197,3.1802,3.1921,3.1696,3.1828,3.1971,3.1981,3.2023,3.2147,3.2147,3.2085,3.2302,3.2571,3.2426,3.2437,3.2613,3.2633,3.2809,3.2903,3.2882,3.2809,3.2882,3.284,3.2737,3.2727,3.2727,3.2727,3.2727,3.3285,3.3512,3.4054,3.4591,3.5146,3.5598,3.5817,3.6036,3.6157,3.6266,3.6266,3.6266,3.6266,3.6266,3.6266,3.6375,3.658,3.7202,3.8334,3.8806,3.9511,4.0325,4.1055,4.1513,4.1747,4.3233,4.4304,4.3863,4.367,4.4083,4.434,4.4523,4.4804,4.5197,4.5689,4.6167,4.6743,4.7122,4.701,4.6954,4.6968,4.694,4.6757,4.642,4.6083,4.6111,4.6167,4.6279,4.6307,4.5844,2.833,2.8428,2.8896,2.9502,3.0146,3.0273,3.0527,3.085,3.0898,3.0898,3.0898,3.0898,3.0898,3.0898,3.0898,3.0898,3.0898,3.0898,3.0898,3.0898,3.0898,3.0898,3.0898,3.0898,3.0898,3.0898,3.0898,3.0898,3.0898,3.0898,3.0898,3.0898,3.0898,3.0889,3.0995,3.1092,3.1149,3.1245,3.1556,3.1903,3.2123,3.2498,3.2519,3.255,3.2727,3.2727,3.2716,3.2716,3.2716,3.2706,3.2675,3.2685,3.2696,3.2737,3.2892,3.2965,3.2871,3.2923,3.3027,3.2882,3.2789,3.2727,3.2727,3.2727,3.2737,3.2851,3.3069,3.3512,3.4043,3.4591,3.5035,3.5477,3.5817,3.6145,3.6266,3.6266,3.6266,3.6266,3.6266,3.6277,3.6529,3.6746,3.7619,3.8776,3.9749,4.0449,4.1235,4.2099,4.2679,4.2735,4.3425,4.4606,4.4886,4.4745,4.4748,4.479,4.5057,4.5394,4.5858,4.6406,4.6926,4.7361,4.7698,4.7881,4.7825,4.7614,4.7502,4.7361,4.6982,4.6659,4.6855,4.6996,4.6897,4.6869,4.6546,2.8496,2.8867,2.9619,3.0059,3.0254,3.0586,3.081,3.0879,3.0898,3.0898,3.0898,3.0898,3.0898,3.0898,3.0898,3.0898,3.0898,3.0898,3.0898,3.0898,3.0967,3.0928,3.0937,3.1025,3.0918,3.0918,3.0928,3.0898,3.0898,3.0898,3.0898,3.0898,3.0898,3.0898,3.0889,3.1005,3.1005,3.1112,3.1218,3.145,3.1682,3.2028,3.2498,3.2612,3.2727,3.2727,3.2727,3.2727,3.2727,3.2727,3.2727,3.2727,3.2727,3.2727,3.283,3.2882,3.2778,3.282,3.2851,3.2809,3.2727,3.2727,3.2727,3.2727,3.2727,3.2727,3.2841,3.2955,3.3614,3.4267,3.4714,3.5035,3.5367,3.5927,3.6266,3.6266,3.6266,3.6266,3.6266,3.6392,3.6639,3.6863,3.7262,3.8621,3.9857,4.0681,4.1762,4.2593,4.2904,4.3313,4.3741,4.4747,4.572,4.5958,4.597,4.5717,4.5872,4.6167,4.6504,4.7038,4.7488,4.7839,4.812,4.812,4.8134,4.7965,4.7895,4.7754,4.7754,4.753,4.774,4.7839,4.767,4.7474,4.7207]}]]